[[{"header":{"parameterUnit":"m.s-1","parameterCategory":1,"la1":31.0,"la2":29.5877,"lo1":-88.7671,"lo2":-86.6584,"dx":0.0162,"dy":0.0185,"nx":115,"ny":88,"refTime":"2022-11-09T06:00:00:Z","depth":0,"parameterNumber":2,"parameterNumberName":"U-component_of_WINDS"},"data":[0.0,0.0,0.0,0.0,0.0,0.0,0.0,0.0,0.0,0.0,0.0,0.0,0.0,0.0,0.0,0.0,0.0,0.0,0.0,0.0,0.0,0.0,0.0,0.0,0.0,0.0,0.0,0.0,0.0,0.0,0.0,0.0,0.0,0.0,0.0,0.0,0.0,0.0,0.0,0.0,0.0,0.0,0.0,0.0,0.0,0.0,0.0,0.0,0.0,0.0,0.0,0.0,0.0,0.0,0.0,0.0,0.0,0.0,0.0,0.0,0.0,0.0,0.0,0.0,0.0,0.0,0.0,0.0,0.0,0.0,0.0,0.0,0.0,0.0,0.0,0.0,0.0,0.0,0.0,0.0,0.0,0.0,0.0,0.0,0.0,0.0,0.0,0.0,0.0,0.0,0.0,0.0,0.0,0.0,0.0,0.0,0.0,0.0,0.0,0.0,0.0,0.0,0.0,0.0,0.0,0.0,0.0,0.0,0.0,0.0,0.0,0.0,0.0,0.0,0.0,0.0,0.0,0.0,0.0,0.0,0.0,0.0,0.0,0.0,0.0,0.0,0.0,0.0,0.0,0.0,0.0,0.0,0.0,0.0,0.0,0.0,0.0,0.0,0.0,0.0,0.0,0.0,0.0,0.0,0.0,0.0,0.0,0.0,0.0,0.0,0.0,0.0,0.0,0.0,0.0,0.0,0.0,0.0,0.0,0.0,0.0,0.0,0.0,0.0,0.0,0.0,0.0,0.0,0.0,0.0,0.0,0.0,0.0,0.0,0.0,0.0,0.0,0.0,0.0,0.0,0.0,0.0,0.0,0.0,0.0,0.0,0.0,0.0,0.0,0.0,0.0,0.0,0.0,0.0,0.0,0.0,0.0,0.0,0.0,0.0,0.0,0.0,0.0,0.0,0.0,0.0,0.0,0.0,0.0,0.0,0.0,0.0,0.0,0.0,0.0,0.0,0.0,0.0,0.0,0.0,0.0,0.0,0.0,0.0,0.0,0.0,0.0,0.0,0.0,0.0,0.0,0.0,0.0,0.0,0.0,0.0,0.0,0.0,0.0,0.0,0.0,0.0,0.0,0.0,0.0,0.0,0.0,0.0,0.0,0.0,0.0,0.0,0.0,0.0,0.0,0.0,0.0,0.0,0.0,0.0,0.0,0.0,0.0,0.0,0.0,0.0,0.0,0.0,0.0,0.0,0.0,0.0,0.0,0.0,0.0,0.0,0.0,0.0,0.0,0.0,0.0,0.0,0.0,0.0,0.0,0.0,0.0,0.0,0.0,0.0,0.0,0.0,0.0,0.0,0.0,0.0,0.0,0.0,0.0,0.0,0.0,0.0,0.0,0.0,0.0,0.0,0.0,0.0,0.0,0.0,0.0,0.0,0.0,0.0,0.0,0.0,0.0,0.0,0.0,0.0,0.0,0.0,0.0,0.0,0.0,0.0,0.0,0.0,0.0,0.0,0.0,0.0,0.0,0.0,0.0,0.0,0.0,0.0,0.0,0.0,0.0,0.0,0.0,0.0,0.0,0.0,0.0,0.0,0.0,0.0,0.0,0.0,0.0,0.0,0.0,0.0,0.0,0.0,0.0,0.0,0.0,0.0,0.0,0.0,0.0,0.0,0.0,0.0,0.0,0.0,0.0,0.0,0.0,0.0,0.0,0.0,0.0,0.0,0.0,0.0,0.0,0.0,0.0,0.0,0.0,0.0,0.0,0.0,0.0,0.0,0.0,0.0,0.0,0.0,0.0,0.0,0.0,0.0,0.0,0.0,0.0,0.0,0.0,0.0,0.0,0.0,0.0,0.0,0.0,0.0,0.0,0.0,0.0,0.0,0.0,0.0,0.0,0.0,0.0,0.0,0.0,0.0,0.0,0.0,0.0,0.0,0.0,0.0,0.0,0.0,0.0,0.0,0.0,0.0,0.0,0.0,0.0,0.0,0.0,0.0,0.0,0.0,0.0,0.0,0.0,0.0,0.0,0.0,0.0,0.0,0.0,0.0,0.0,0.0,0.0,0.0,0.0,0.0,0.0,0.0,0.0,0.0,0.0,0.0,0.0,0.0,0.0,0.0,0.0,0.0,0.0,0.0,0.0,0.0,0.0,0.0,0.0,0.0,0.0,0.0,0.0,0.0,0.0,0.0,0.0,0.0,0.0,0.0,0.0,0.0,0.0,0.0,0.0,0.0,0.0,0.0,0.0,0.0,0.0,0.0,0.0,0.0,0.0,0.0,0.0,0.0,0.0,0.0,0.0,0.0,0.0,0.0,0.0,0.0,0.0,0.0,0.0,0.0,0.0,0.0,0.0,0.0,0.0,0.0,0.0,0.0,0.0,0.0,0.0,0.0,0.0,0.0,0.0,0.0,0.0,0.0,0.0,0.0,0.0,0.0,0.0,0.0,0.0,0.0,0.0,0.0,0.0,0.0,0.0,0.0,0.0,0.0,0.0,0.0,0.0,0.0,0.0,0.0,0.0,0.0,0.0,0.0,0.0,0.0,0.0,0.0,0.0,0.0,0.0,0.0,0.0,0.0,0.0,0.0,0.0,0.0,0.0,0.0,0.0,0.0,0.0,0.0,0.0,0.0,0.0,0.0,0.0,0.0,0.0,0.0,0.0,0.0,0.0,0.0,0.0,0.0,0.0,0.0,0.0,0.0,0.0,0.0,0.0,0.0,0.0,0.0,0.0,0.0,0.0,0.0,0.0,0.0,0.0,0.0,0.0,0.0,0.0,0.0,0.0,0.0,0.0,0.0,0.0,0.0,0.0,0.0,0.0,0.0,0.0,0.0,0.0,0.0,0.0,0.0,0.0,0.0,0.0,0.0,0.0,0.0,0.0,0.0,0.0,0.0,0.0,0.0,0.0,0.0,0.0,0.0,0.0,0.0,0.0,0.0,0.0,0.0,0.0,0.0,0.0,0.0,0.0,0.0,0.0,0.0,0.0,0.0,0.0,0.0,0.0,0.0,0.0,0.0,0.0,0.0,0.0,0.0,0.0,0.0,0.0,0.0,0.0,0.0,0.0,0.0,0.0,0.0,0.0,0.0,0.0,0.0,0.0,0.0,0.0,0.0,0.0,0.0,0.0,0.0,0.0,0.0,0.0,0.0,0.0,0.0,0.0,0.0,0.0,0.0,0.0,0.0,0.0,0.0,0.0,0.0,0.0,0.0,0.0,0.0,0.0,0.0,0.0,0.0,0.0,0.0,0.0,0.0,0.0,0.0,0.0,0.0,0.0,0.0,0.0,0.0,0.0,0.0,0.0,0.0,0.0,0.0,0.0,0.0,0.0,0.0,0.0,0.0,0.0,0.0,0.0,0.0,0.0,0.0,0.0,0.0,0.0,0.0,0.0,0.0,0.0,0.0,0.0,0.0,0.0,0.0,0.0,0.0,0.0,0.0,0.0,0.0,0.0,0.0,0.0,0.0,0.0,0.0,0.0,0.0,0.0,0.0,0.0,0.0,0.0,0.0,0.0,0.0,0.0,0.0,0.0,0.0,0.0,0.0,0.0,0.0,0.0,0.0,0.0,0.0,0.0,0.0,0.0,0.0,0.0,0.0,0.0,0.0,0.0,0.0,0.0,0.0,0.0,0.0,0.0,0.0,0.0,0.0,0.0,0.0,0.0,0.0,0.0,0.0,0.0,0.0,0.0,0.0,0.0,0.0,0.0,0.0,0.0,0.0,0.0,0.0,0.0,0.0,0.0,0.0,0.0,0.0,0.0,0.0,0.0,0.0,0.0,0.0,0.0,0.0,0.0,0.0,0.0,0.0,0.0,0.0,0.0,0.0,0.0,0.0,0.0,0.0,0.0,0.0,0.0,0.0,0.0,0.0,0.0,0.0,0.0,0.0,0.0,0.0,0.0,0.0,0.0,0.0,0.0,0.0,0.0,0.0,0.0,0.0,0.0,0.0,0.0,0.0,0.0,0.0,0.0,0.0,0.0,0.0,0.0,0.0,0.0,0.0,0.0,0.0,0.0,0.0,0.0,0.0,0.0,0.0,0.0,0.0,0.0,0.0,0.0,0.0,0.0,0.0,0.0,0.0,0.0,0.0,0.0,0.0,0.0,0.0,0.0,0.0,0.0,0.0,0.0,0.0,0.0,0.0,0.0,0.0,0.0,0.0,0.0,0.0,0.0,0.0,0.0,0.0,0.0,0.0,0.0,0.0,0.0,0.0,0.0,0.0,0.0,0.0,0.0,0.0,0.0,0.0,0.0,0.0,0.0,0.0,0.0,0.0,0.0,0.0,0.0,0.0,3.7595,0.0,0.0,0.0,3.6806,0.0,0.0,0.0,0.0,0.0,0.0,0.0,0.0,0.0,0.0,0.0,0.0,0.0,0.0,0.0,0.0,0.0,0.0,0.0,0.0,0.0,0.0,0.0,0.0,0.0,0.0,0.0,0.0,0.0,0.0,0.0,0.0,0.0,0.0,0.0,0.0,0.0,0.0,0.0,0.0,0.0,0.0,0.0,0.0,0.0,0.0,0.0,0.0,0.0,0.0,0.0,0.0,0.0,0.0,0.0,0.0,0.0,0.0,0.0,0.0,0.0,0.0,0.0,0.0,0.0,0.0,0.0,0.0,0.0,0.0,0.0,0.0,0.0,0.0,0.0,0.0,0.0,0.0,0.0,0.0,0.0,0.0,0.0,0.0,0.0,0.0,0.0,0.0,0.0,0.0,0.0,0.0,0.0,0.0,0.0,0.0,0.0,0.0,0.0,0.0,0.0,0.0,0.0,0.0,0.0,0.0,0.0,0.0,0.0,0.0,3.7876,3.7523,3.759,3.7426,3.6983,0.0,0.0,0.0,0.0,0.0,0.0,0.0,0.0,0.0,0.0,0.0,0.0,0.0,0.0,0.0,0.0,0.0,0.0,0.0,0.0,0.0,0.0,0.0,0.0,0.0,0.0,0.0,0.0,0.0,0.0,0.0,0.0,0.0,0.0,0.0,0.0,0.0,0.0,0.0,0.0,0.0,0.0,0.0,0.0,0.0,0.0,0.0,0.0,0.0,0.0,0.0,0.0,0.0,0.0,0.0,0.0,0.0,0.0,0.0,0.0,0.0,0.0,0.0,0.0,0.0,0.0,0.0,0.0,0.0,0.0,0.0,0.0,0.0,0.0,0.0,0.0,0.0,0.0,0.0,0.0,0.0,0.0,0.0,0.0,0.0,0.0,0.0,0.0,0.0,0.0,0.0,0.0,0.0,0.0,0.0,0.0,0.0,0.0,0.0,0.0,0.0,0.0,0.0,0.0,0.0,0.0,0.0,0.0,0.0,0.0,0.0,0.0,3.7792,3.7734,3.7108,0.0,0.0,0.0,0.0,0.0,0.0,0.0,0.0,0.0,0.0,0.0,0.0,0.0,0.0,0.0,0.0,0.0,0.0,0.0,0.0,0.0,0.0,0.0,0.0,0.0,0.0,0.0,0.0,0.0,0.0,0.0,0.0,0.0,0.0,0.0,0.0,0.0,0.0,0.0,0.0,0.0,0.0,0.0,0.0,0.0,0.0,0.0,0.0,0.0,0.0,0.0,0.0,0.0,0.0,0.0,0.0,0.0,0.0,0.0,0.0,0.0,0.0,0.0,0.0,0.0,0.0,0.0,0.0,0.0,0.0,0.0,0.0,0.0,0.0,0.0,0.0,0.0,0.0,0.0,0.0,0.0,0.0,0.0,0.0,0.0,0.0,0.0,0.0,0.0,0.0,0.0,0.0,0.0,0.0,0.0,0.0,0.0,0.0,0.0,0.0,0.0,0.0,0.0,0.0,0.0,0.0,0.0,0.0,0.0,0.0,3.7175,3.6968,3.7358,0.0,3.7367,0.0,0.0,0.0,0.0,0.0,0.0,0.0,0.0,0.0,0.0,0.0,0.0,0.0,0.0,0.0,0.0,0.0,0.0,0.0,0.0,0.0,0.0,0.0,0.0,0.0,0.0,0.0,0.0,0.0,0.0,0.0,0.0,0.0,0.0,0.0,0.0,0.0,0.0,0.0,0.0,0.0,0.0,0.0,0.0,0.0,0.0,0.0,0.0,0.0,0.0,0.0,0.0,0.0,0.0,0.0,0.0,0.0,0.0,0.0,0.0,0.0,0.0,0.0,0.0,0.0,0.0,0.0,0.0,0.0,0.0,0.0,0.0,0.0,0.0,0.0,0.0,0.0,0.0,0.0,0.0,0.0,0.0,0.0,0.0,0.0,0.0,0.0,0.0,0.0,0.0,0.0,0.0,0.0,0.0,0.0,0.0,0.0,0.0,0.0,0.0,0.0,0.0,0.0,0.0,0.0,0.0,0.0,0.0,0.0,0.0,3.7344,3.7229,3.7418,3.7442,0.0,0.0,0.0,0.0,0.0,0.0,0.0,0.0,0.0,0.0,0.0,0.0,0.0,0.0,0.0,0.0,0.0,0.0,0.0,0.0,0.0,0.0,0.0,0.0,0.0,0.0,0.0,0.0,0.0,0.0,0.0,0.0,0.0,0.0,0.0,0.0,0.0,0.0,0.0,0.0,0.0,0.0,0.0,0.0,0.0,0.0,0.0,0.0,0.0,0.0,0.0,0.0,0.0,0.0,0.0,0.0,0.0,0.0,0.0,0.0,0.0,0.0,0.0,0.0,0.0,0.0,0.0,0.0,0.0,0.0,0.0,0.0,0.0,0.0,0.0,0.0,0.0,0.0,0.0,0.0,0.0,0.0,0.0,0.0,0.0,0.0,0.0,0.0,0.0,0.0,0.0,0.0,0.0,0.0,0.0,0.0,0.0,0.0,0.0,0.0,0.0,0.0,0.0,0.0,0.0,0.0,0.0,0.0,0.0,0.0,3.7137,3.7395,3.7487,3.7288,3.7154,3.7192,0.0,0.0,0.0,0.0,0.0,0.0,0.0,0.0,0.0,0.0,0.0,0.0,0.0,0.0,0.0,0.0,0.0,0.0,0.0,0.0,0.0,0.0,0.0,0.0,0.0,0.0,0.0,0.0,0.0,0.0,0.0,0.0,0.0,0.0,0.0,0.0,0.0,0.0,0.0,0.0,0.0,0.0,0.0,0.0,0.0,0.0,0.0,0.0,0.0,0.0,0.0,0.0,0.0,0.0,0.0,0.0,0.0,0.0,0.0,0.0,0.0,0.0,0.0,0.0,0.0,0.0,0.0,0.0,0.0,0.0,0.0,0.0,0.0,0.0,0.0,0.0,0.0,0.0,0.0,0.0,0.0,0.0,0.0,0.0,0.0,0.0,0.0,0.0,0.0,0.0,0.0,0.0,0.0,0.0,0.0,0.0,0.0,0.0,0.0,0.0,0.0,0.0,0.0,0.0,0.0,0.0,0.0,0.0,3.631,3.6721,3.7127,3.7478,3.6746,3.6503,0.0,0.0,0.0,0.0,0.0,0.0,0.0,0.0,0.0,0.0,0.0,0.0,0.0,0.0,0.0,0.0,0.0,0.0,0.0,0.0,0.0,0.0,0.0,0.0,0.0,0.0,0.0,0.0,0.0,0.0,0.0,0.0,0.0,0.0,0.0,0.0,0.0,0.0,0.0,0.0,0.0,0.0,0.0,0.0,0.0,0.0,0.0,0.0,0.0,0.0,0.0,0.0,0.0,0.0,0.0,0.0,0.0,0.0,0.0,0.0,0.0,0.0,0.0,0.0,0.0,0.0,0.0,0.0,0.0,0.0,0.0,0.0,0.0,0.0,0.0,0.0,0.0,0.0,0.0,0.0,0.0,0.0,0.0,0.0,0.0,0.0,0.0,0.0,0.0,0.0,0.0,0.0,0.0,0.0,0.0,0.0,0.0,0.0,0.0,0.0,0.0,0.0,0.0,0.0,0.0,0.0,0.0,0.0,0.0,3.6194,3.6905,3.7353,3.7482,3.6905,3.6478,0.0,0.0,0.0,0.0,0.0,0.0,0.0,0.0,0.0,0.0,0.0,0.0,0.0,0.0,0.0,0.0,0.0,0.0,0.0,0.0,0.0,0.0,0.0,0.0,0.0,0.0,0.0,0.0,0.0,0.0,0.0,0.0,0.0,0.0,0.0,0.0,0.0,0.0,0.0,0.0,0.0,0.0,0.0,0.0,0.0,0.0,0.0,0.0,0.0,0.0,0.0,0.0,0.0,0.0,0.0,0.0,0.0,0.0,0.0,0.0,0.0,0.0,0.0,0.0,0.0,0.0,0.0,0.0,0.0,0.0,0.0,0.0,0.0,0.0,0.0,0.0,0.0,0.0,0.0,0.0,0.0,0.0,0.0,0.0,0.0,0.0,0.0,0.0,0.0,0.0,0.0,0.0,0.0,0.0,0.0,0.0,0.0,0.0,0.0,0.0,0.0,0.0,0.0,0.0,0.0,0.0,0.0,0.0,0.0,3.6124,3.6835,3.7265,3.7215,3.6933,3.6504,0.0,0.0,0.0,0.0,0.0,0.0,0.0,0.0,0.0,0.0,0.0,0.0,0.0,0.0,0.0,0.0,0.0,0.0,0.0,0.0,0.0,0.0,0.0,0.0,0.0,0.0,0.0,0.0,0.0,0.0,0.0,0.0,0.0,0.0,0.0,0.0,0.0,0.0,0.0,0.0,0.0,0.0,0.0,0.0,0.0,0.0,0.0,0.0,0.0,0.0,0.0,0.0,0.0,0.0,0.0,0.0,0.0,0.0,0.0,0.0,0.0,0.0,0.0,0.0,0.0,0.0,0.0,0.0,0.0,0.0,0.0,0.0,0.0,0.0,0.0,0.0,0.0,0.0,0.0,0.0,0.0,0.0,0.0,0.0,0.0,0.0,0.0,0.0,0.0,0.0,0.0,0.0,0.0,0.0,0.0,0.0,0.0,0.0,0.0,0.0,0.0,0.0,0.0,0.0,0.0,0.0,0.0,0.0,3.6325,3.6153,3.6489,3.6716,3.6711,3.6786,3.661,0.0,0.0,0.0,0.0,0.0,0.0,0.0,0.0,0.0,0.0,0.0,0.0,0.0,0.0,0.0,0.0,0.0,0.0,0.0,0.0,0.0,0.0,0.0,0.0,0.0,0.0,0.0,0.0,0.0,0.0,0.0,0.0,0.0,0.0,0.0,0.0,0.0,0.0,0.0,0.0,0.0,0.0,0.0,0.0,0.0,0.0,0.0,0.0,0.0,0.0,0.0,0.0,0.0,0.0,0.0,0.0,0.0,0.0,0.0,0.0,0.0,0.0,0.0,0.0,0.0,0.0,0.0,0.0,0.0,0.0,0.0,0.0,0.0,0.0,0.0,0.0,0.0,0.0,0.0,0.0,0.0,0.0,0.0,0.0,0.0,0.0,0.0,0.0,0.0,0.0,0.0,0.0,0.0,0.0,0.0,0.0,0.0,0.0,0.0,0.0,0.0,0.0,0.0,0.0,0.0,0.0,0.0,0.0,0.0,3.7651,3.6688,3.6319,3.6671,3.6298,3.5869,0.0,0.0,0.0,0.0,0.0,0.0,0.0,0.0,0.0,0.0,0.0,0.0,0.0,0.0,0.0,0.0,0.0,0.0,0.0,0.0,0.0,0.0,0.0,0.0,0.0,0.0,0.0,0.0,0.0,0.0,0.0,0.0,0.0,0.0,0.0,0.0,0.0,0.0,0.0,0.0,0.0,0.0,0.0,0.0,0.0,0.0,0.0,0.0,0.0,0.0,0.0,0.0,0.0,0.0,0.0,0.0,0.0,0.0,0.0,0.0,0.0,0.0,0.0,0.0,0.0,0.0,0.0,0.0,0.0,0.0,0.0,0.0,0.0,0.0,0.0,0.0,0.0,0.0,0.0,0.0,0.0,0.0,0.0,0.0,0.0,0.0,0.0,0.0,0.0,0.0,0.0,0.0,0.0,0.0,0.0,0.0,0.0,0.0,0.0,0.0,0.0,0.0,0.0,0.0,0.0,0.0,0.0,0.0,0.0,3.8992,3.7161,3.6176,3.6186,3.5972,3.5638,3.5134,0.0,0.0,0.0,0.0,0.0,0.0,0.0,0.0,0.0,0.0,0.0,0.0,0.0,0.0,0.0,0.0,0.0,0.0,0.0,0.0,0.0,0.0,0.0,0.0,0.0,0.0,0.0,0.0,0.0,0.0,0.0,0.0,0.0,0.0,0.0,0.0,0.0,0.0,0.0,0.0,0.0,0.0,0.0,0.0,0.0,0.0,0.0,0.0,0.0,0.0,0.0,0.0,0.0,0.0,0.0,0.0,0.0,0.0,0.0,0.0,0.0,0.0,0.0,0.0,0.0,0.0,0.0,0.0,0.0,0.0,0.0,0.0,0.0,0.0,0.0,0.0,0.0,0.0,0.0,0.0,0.0,0.0,0.0,0.0,0.0,0.0,0.0,0.0,0.0,0.0,0.0,0.0,0.0,0.0,0.0,0.0,0.0,0.0,0.0,0.0,0.0,0.0,0.0,0.0,0.0,0.0,0.0,0.0,4.0245,3.7926,3.6321,3.5528,3.5874,3.5801,0.0,0.0,0.0,0.0,0.0,0.0,0.0,0.0,0.0,0.0,0.0,0.0,0.0,0.0,0.0,0.0,0.0,0.0,0.0,0.0,0.0,0.0,0.0,0.0,0.0,0.0,0.0,0.0,0.0,0.0,0.0,0.0,0.0,0.0,0.0,0.0,0.0,0.0,0.0,0.0,0.0,0.0,0.0,0.0,0.0,0.0,0.0,0.0,0.0,0.0,0.0,0.0,0.0,0.0,0.0,0.0,0.0,0.0,0.0,0.0,0.0,0.0,0.0,0.0,0.0,0.0,0.0,0.0,0.0,0.0,0.0,0.0,0.0,0.0,0.0,0.0,0.0,0.0,0.0,0.0,0.0,0.0,0.0,0.0,0.0,0.0,0.0,0.0,0.0,0.0,0.0,0.0,0.0,0.0,0.0,0.0,0.0,0.0,0.0,0.0,0.0,0.0,0.0,0.0,0.0,0.0,0.0,0.0,0.0,3.9583,3.861,3.7788,3.7222,3.6442,3.5964,0.0,0.0,0.0,0.0,0.0,0.0,0.0,0.0,0.0,0.0,0.0,0.0,0.0,0.0,0.0,0.0,0.0,0.0,0.0,0.0,0.0,0.0,0.0,0.0,0.0,0.0,0.0,0.0,0.0,0.0,0.0,0.0,0.0,0.0,0.0,0.0,0.0,0.0,0.0,0.0,0.0,0.0,0.0,0.0,0.0,0.0,0.0,0.0,0.0,0.0,0.0,0.0,0.0,0.0,0.0,0.0,0.0,0.0,0.0,0.0,0.0,0.0,0.0,0.0,0.0,0.0,0.0,0.0,0.0,0.0,0.0,0.0,0.0,0.0,0.0,0.0,0.0,0.0,0.0,0.0,0.0,0.0,0.0,0.0,0.0,0.0,0.0,0.0,0.0,0.0,0.0,0.0,0.0,0.0,0.0,0.0,0.0,0.0,0.0,0.0,0.0,0.0,0.0,0.0,0.0,0.0,0.0,0.0,3.9887,3.9807,3.9528,3.9064,3.8497,3.7526,3.6694,0.0,0.0,0.0,0.0,0.0,0.0,0.0,0.0,0.0,0.0,0.0,0.0,0.0,0.0,0.0,0.0,0.0,0.0,0.0,0.0,0.0,0.0,0.0,0.0,0.0,0.0,0.0,0.0,0.0,0.0,0.0,0.0,0.0,0.0,0.0,0.0,0.0,0.0,0.0,0.0,0.0,0.0,0.0,0.0,0.0,0.0,0.0,0.0,0.0,0.0,0.0,0.0,0.0,0.0,0.0,0.0,0.0,0.0,0.0,0.0,0.0,0.0,0.0,0.0,0.0,0.0,0.0,0.0,0.0,0.0,0.0,0.0,0.0,0.0,0.0,0.0,0.0,0.0,0.0,0.0,0.0,0.0,0.0,0.0,0.0,0.0,0.0,0.0,0.0,0.0,0.0,0.0,0.0,0.0,0.0,0.0,0.0,0.0,0.0,0.0,0.0,0.0,0.0,0.0,0.0,0.0,0.0,0.0,4.0428,4.0495,4.0369,4.0004,3.9415,3.873,3.7693,0.0,0.0,0.0,0.0,0.0,0.0,0.0,0.0,0.0,0.0,0.0,0.0,0.0,0.0,0.0,0.0,0.0,0.0,0.0,0.0,0.0,0.0,0.0,0.0,0.0,0.0,0.0,0.0,0.0,0.0,0.0,0.0,0.0,0.0,0.0,0.0,0.0,0.0,0.0,0.0,0.0,0.0,0.0,0.0,0.0,0.0,0.0,0.0,0.0,0.0,0.0,0.0,0.0,0.0,0.0,0.0,0.0,0.0,0.0,0.0,0.0,0.0,0.0,0.0,0.0,0.0,0.0,0.0,0.0,0.0,0.0,0.0,0.0,0.0,0.0,0.0,0.0,0.0,0.0,0.0,0.0,0.0,0.0,0.0,0.0,0.0,0.0,0.0,0.0,0.0,0.0,0.0,0.0,0.0,0.0,0.0,0.0,0.0,0.0,0.0,0.0,0.0,0.0,0.0,0.0,0.0,0.0,0.0,4.066,4.117,4.0097,3.9739,4.0144,3.8924,3.8089,0.0,0.0,0.0,0.0,0.0,0.0,0.0,0.0,0.0,0.0,0.0,0.0,0.0,0.0,0.0,0.0,0.0,0.0,0.0,0.0,0.0,0.0,0.0,0.0,0.0,0.0,0.0,0.0,0.0,0.0,0.0,0.0,0.0,0.0,0.0,0.0,0.0,0.0,0.0,0.0,0.0,0.0,0.0,0.0,0.0,0.0,0.0,0.0,3.5711,0.0,0.0,0.0,0.0,0.0,0.0,0.0,0.0,0.0,0.0,0.0,0.0,0.0,0.0,0.0,0.0,0.0,0.0,0.0,0.0,0.0,0.0,0.0,0.0,0.0,0.0,0.0,0.0,0.0,0.0,0.0,0.0,0.0,0.0,0.0,0.0,0.0,0.0,0.0,0.0,0.0,0.0,0.0,0.0,0.0,0.0,0.0,0.0,0.0,0.0,0.0,0.0,0.0,0.0,0.0,0.0,0.0,0.0,0.0,4.0885,4.0912,4.0521,4.0329,4.0362,3.9951,3.9242,0.0,0.0,0.0,0.0,0.0,0.0,0.0,0.0,0.0,0.0,0.0,0.0,0.0,0.0,0.0,0.0,0.0,0.0,0.0,0.0,0.0,0.0,0.0,0.0,0.0,0.0,0.0,0.0,0.0,0.0,0.0,0.0,0.0,0.0,0.0,0.0,0.0,0.0,0.0,0.0,0.0,0.0,0.0,0.0,0.0,0.0,0.0,0.0,0.0,0.0,0.0,0.0,0.0,0.0,0.0,0.0,0.0,0.0,0.0,0.0,0.0,0.0,0.0,0.0,0.0,0.0,0.0,0.0,0.0,0.0,0.0,0.0,0.0,0.0,0.0,0.0,0.0,0.0,0.0,0.0,0.0,0.0,0.0,0.0,0.0,0.0,0.0,0.0,0.0,0.0,0.0,0.0,0.0,0.0,0.0,0.0,0.0,0.0,0.0,0.0,0.0,0.0,0.0,0.0,0.0,0.0,0.0,4.1342,4.1401,4.0753,4.1177,4.1163,4.072,4.117,4.0573,3.8778,0.0,0.0,0.0,0.0,0.0,0.0,0.0,0.0,0.0,0.0,0.0,0.0,0.0,0.0,0.0,0.0,0.0,0.0,0.0,0.0,0.0,0.0,0.0,0.0,0.0,0.0,0.0,0.0,0.0,0.0,0.0,0.0,0.0,0.0,0.0,0.0,0.0,0.0,3.4933,3.5006,0.0,0.0,0.0,0.0,0.0,0.0,0.0,0.0,3.6071,0.0,0.0,0.0,0.0,0.0,0.0,0.0,0.0,0.0,0.0,0.0,0.0,0.0,0.0,0.0,0.0,0.0,0.0,0.0,0.0,0.0,0.0,0.0,0.0,0.0,0.0,0.0,0.0,0.0,0.0,0.0,0.0,0.0,0.0,0.0,0.0,0.0,0.0,0.0,0.0,0.0,0.0,0.0,0.0,0.0,0.0,0.0,0.0,0.0,0.0,0.0,0.0,0.0,0.0,0.0,0.0,4.1269,4.2561,4.2877,4.2189,4.1659,4.1633,4.213,4.1666,4.1229,4.0872,0.0,0.0,0.0,0.0,0.0,0.0,0.0,0.0,0.0,0.0,0.0,0.0,0.0,0.0,0.0,0.0,0.0,0.0,0.0,0.0,0.0,0.0,0.0,0.0,0.0,0.0,0.0,0.0,0.0,0.0,0.0,0.0,0.0,0.0,0.0,0.0,0.0,0.0,0.0,3.5182,3.5215,0.0,0.0,0.0,0.0,0.0,0.0,0.0,0.0,3.6084,0.0,0.0,0.0,0.0,0.0,0.0,0.0,0.0,0.0,0.0,0.0,0.0,0.0,0.0,0.0,0.0,0.0,0.0,0.0,0.0,0.0,0.0,0.0,0.0,0.0,0.0,0.0,0.0,0.0,0.0,0.0,0.0,0.0,0.0,0.0,0.0,0.0,0.0,0.0,0.0,0.0,0.0,0.0,0.0,0.0,0.0,0.0,0.0,0.0,0.0,0.0,0.0,0.0,0.0,0.0,4.2579,4.3621,4.3812,4.3076,4.2348,4.2116,4.2487,4.252,4.2355,0.0,0.0,0.0,0.0,0.0,0.0,0.0,0.0,0.0,0.0,0.0,0.0,0.0,0.0,0.0,0.0,0.0,0.0,0.0,0.0,0.0,0.0,0.0,0.0,0.0,0.0,0.0,0.0,0.0,0.0,0.0,0.0,0.0,0.0,0.0,0.0,0.0,0.0,0.0,0.0,3.5043,3.5384,3.5761,0.0,0.0,0.0,0.0,0.0,0.0,3.7674,3.7439,0.0,0.0,0.0,0.0,0.0,0.0,0.0,0.0,0.0,0.0,0.0,0.0,0.0,0.0,0.0,0.0,0.0,0.0,0.0,0.0,0.0,0.0,0.0,0.0,0.0,0.0,0.0,0.0,0.0,0.0,0.0,0.0,0.0,0.0,0.0,0.0,0.0,0.0,0.0,0.0,0.0,0.0,0.0,0.0,0.0,0.0,0.0,0.0,0.0,0.0,0.0,0.0,0.0,0.0,0.0,4.3804,4.4556,4.4556,4.3845,4.3116,4.2719,4.2745,4.3448,4.3481,0.0,0.0,0.0,0.0,0.0,0.0,0.0,0.0,0.0,0.0,0.0,0.0,0.0,0.0,0.0,0.0,0.0,0.0,0.0,0.0,0.0,0.0,0.0,0.0,0.0,0.0,0.0,0.0,0.0,0.0,0.0,0.0,0.0,0.0,0.0,0.0,0.0,0.0,0.0,0.0,0.0,3.5935,3.6454,3.7124,0.0,0.0,0.0,0.0,3.9038,3.8624,0.0,0.0,0.0,0.0,0.0,0.0,0.0,0.0,0.0,0.0,0.0,0.0,0.0,0.0,0.0,0.0,0.0,0.0,0.0,0.0,0.0,0.0,0.0,0.0,0.0,0.0,0.0,0.0,0.0,0.0,0.0,0.0,0.0,0.0,0.0,0.0,0.0,0.0,0.0,0.0,0.0,0.0,0.0,0.0,0.0,0.0,0.0,0.0,0.0,0.0,0.0,0.0,0.0,0.0,0.0,0.0,4.4563,4.5292,4.5325,4.4596,4.3852,4.3466,4.3473,4.4191,4.4224,0.0,0.0,0.0,0.0,0.0,0.0,0.0,0.0,0.0,0.0,0.0,0.0,0.0,0.0,0.0,0.0,0.0,0.0,0.0,0.0,0.0,0.0,0.0,0.0,0.0,0.0,0.0,0.0,0.0,0.0,0.0,0.0,0.0,0.0,0.0,0.0,0.0,0.0,0.0,0.0,0.0,3.7207,3.7258,3.7889,3.8325,0.0,0.0,3.8497,3.851,3.8443,0.0,0.0,0.0,0.0,0.0,0.0,0.0,0.0,0.0,0.0,0.0,0.0,0.0,0.0,0.0,0.0,0.0,0.0,0.0,0.0,0.0,0.0,0.0,0.0,0.0,0.0,0.0,0.0,0.0,0.0,0.0,0.0,0.0,0.0,0.0,0.0,0.0,0.0,0.0,0.0,0.0,0.0,0.0,0.0,0.0,0.0,0.0,0.0,0.0,0.0,0.0,0.0,0.0,0.0,0.0,4.3563,4.468,4.5065,4.5065,4.4688,4.3977,4.3804,4.4217,4.4117,4.4117,0.0,0.0,0.0,0.0,0.0,0.0,0.0,0.0,0.0,0.0,0.0,0.0,0.0,0.0,0.0,0.0,0.0,0.0,0.0,0.0,0.0,0.0,0.0,0.0,0.0,0.0,0.0,0.0,0.0,0.0,0.0,0.0,0.0,0.0,0.0,0.0,0.0,0.0,0.0,0.0,0.0,0.0,3.7883,3.8551,0.0,0.0,0.0,3.9602,3.9607,0.0,0.0,0.0,0.0,0.0,0.0,0.0,0.0,0.0,0.0,0.0,0.0,0.0,0.0,0.0,0.0,0.0,0.0,0.0,0.0,0.0,0.0,0.0,0.0,0.0,0.0,0.0,0.0,0.0,0.0,0.0,0.0,0.0,0.0,0.0,0.0,0.0,0.0,0.0,0.0,0.0,0.0,0.0,0.0,0.0,0.0,0.0,0.0,0.0,0.0,0.0,0.0,0.0,0.0,0.0,0.0,0.0,4.4435,4.4511,4.4575,4.4665,4.3801,4.3718,4.4377,4.3863,0.0,0.0,0.0,0.0,0.0,0.0,0.0,0.0,0.0,0.0,0.0,0.0,0.0,0.0,0.0,0.0,0.0,0.0,0.0,0.0,0.0,0.0,0.0,0.0,0.0,0.0,0.0,3.169,0.0,0.0,0.0,0.0,0.0,0.0,0.0,0.0,0.0,0.0,0.0,0.0,0.0,0.0,3.7584,3.8512,3.925,3.9625,0.0,0.0,4.0435,4.0235,4.02,4.04,0.0,0.0,0.0,0.0,0.0,0.0,0.0,0.0,0.0,0.0,0.0,0.0,0.0,0.0,0.0,0.0,0.0,0.0,0.0,0.0,0.0,0.0,0.0,0.0,0.0,0.0,0.0,0.0,0.0,0.0,0.0,0.0,0.0,0.0,0.0,0.0,0.0,0.0,0.0,0.0,0.0,0.0,0.0,0.0,0.0,0.0,0.0,0.0,0.0,0.0,0.0,0.0,0.0,0.0,0.0,4.375,4.3775,4.4054,4.4617,4.3381,4.2972,4.3646,4.3602,4.3609,0.0,0.0,0.0,0.0,0.0,0.0,0.0,0.0,0.0,0.0,0.0,0.0,0.0,0.0,0.0,0.0,0.0,0.0,0.0,0.0,0.0,0.0,0.0,0.0,0.0,0.0,0.0,0.0,0.0,0.0,0.0,0.0,0.0,0.0,0.0,0.0,0.0,0.0,0.0,0.0,0.0,3.9251,3.9331,3.9964,4.0196,0.0,0.0,4.0253,3.958,3.9487,3.9725,4.0452,0.0,0.0,0.0,0.0,0.0,0.0,0.0,0.0,0.0,0.0,0.0,0.0,0.0,0.0,0.0,0.0,0.0,0.0,0.0,0.0,0.0,0.0,0.0,0.0,0.0,0.0,0.0,0.0,0.0,0.0,0.0,0.0,0.0,0.0,0.0,0.0,0.0,0.0,0.0,0.0,0.0,0.0,0.0,0.0,0.0,0.0,0.0,0.0,0.0,0.0,0.0,0.0,0.0,4.351,4.358,4.3516,4.3464,4.3338,4.2837,4.2881,4.3582,4.3144,4.3317,0.0,0.0,0.0,0.0,0.0,0.0,0.0,0.0,0.0,0.0,0.0,0.0,0.0,0.0,0.0,0.0,0.0,0.0,0.0,0.0,0.0,0.0,0.0,0.0,0.0,0.0,0.0,0.0,3.3582,3.3829,3.4099,0.0,0.0,0.0,0.0,0.0,0.0,0.0,0.0,0.0,0.0,3.969,4.0516,4.0874,0.0,0.0,4.0865,4.0966,4.0662,4.0636,4.0718,4.1021,4.081,0.0,0.0,0.0,0.0,0.0,0.0,0.0,0.0,0.0,0.0,0.0,0.0,0.0,0.0,0.0,0.0,0.0,0.0,0.0,0.0,0.0,0.0,0.0,0.0,0.0,0.0,0.0,0.0,0.0,0.0,0.0,0.0,0.0,0.0,0.0,0.0,0.0,0.0,0.0,0.0,0.0,0.0,0.0,0.0,0.0,0.0,0.0,0.0,0.0,0.0,0.0,0.0,4.3623,4.3448,4.3432,4.3222,4.2799,4.2602,4.2812,4.3478,4.2642,4.2905,0.0,0.0,0.0,0.0,0.0,0.0,0.0,0.0,0.0,0.0,0.0,0.0,0.0,0.0,0.0,0.0,0.0,0.0,0.0,0.0,0.0,0.0,0.0,0.0,0.0,0.0,0.0,0.0,3.4615,3.5035,3.4809,0.0,0.0,0.0,0.0,0.0,0.0,0.0,0.0,0.0,0.0,4.0346,4.1254,4.1413,4.1413,4.1413,4.1413,4.1413,4.1413,4.1413,4.1413,4.1413,0.0,0.0,0.0,0.0,0.0,0.0,0.0,0.0,0.0,0.0,0.0,0.0,0.0,0.0,0.0,0.0,0.0,0.0,0.0,0.0,0.0,0.0,0.0,0.0,0.0,0.0,0.0,0.0,0.0,0.0,3.7516,0.0,0.0,0.0,0.0,0.0,0.0,0.0,0.0,0.0,0.0,0.0,0.0,0.0,0.0,0.0,0.0,0.0,0.0,0.0,0.0,0.0,0.0,4.4005,4.3402,4.3414,4.3412,4.3438,4.2771,4.2723,4.3349,4.2138,4.2382,4.4363,0.0,0.0,0.0,0.0,0.0,0.0,0.0,0.0,0.0,0.0,0.0,0.0,0.0,0.0,0.0,0.0,0.0,0.0,0.0,0.0,0.0,0.0,0.0,0.0,0.0,0.0,3.2841,3.4929,3.6224,0.0,0.0,0.0,0.0,0.0,0.0,0.0,0.0,0.0,0.0,4.1762,4.1373,4.1424,4.1433,4.1454,4.1454,4.1424,4.1433,4.1454,4.1424,4.1413,0.0,0.0,0.0,0.0,0.0,0.0,0.0,0.0,0.0,0.0,0.0,0.0,0.0,0.0,0.0,0.0,0.0,0.0,0.0,0.0,0.0,0.0,0.0,0.0,0.0,0.0,0.0,4.0935,4.1305,0.0,0.0,0.0,0.0,0.0,0.0,0.0,0.0,0.0,0.0,0.0,4.2842,4.3716,0.0,0.0,0.0,0.0,0.0,0.0,0.0,0.0,0.0,0.0,0.0,0.0,4.4648,4.4016,4.3996,4.3598,4.2781,4.2911,4.313,4.3381,4.3338,4.3786,4.4759,0.0,0.0,0.0,0.0,0.0,0.0,0.0,0.0,0.0,0.0,0.0,0.0,0.0,0.0,0.0,0.0,0.0,0.0,0.0,0.0,0.0,0.0,0.0,0.0,0.0,3.5976,0.0,0.0,0.0,0.0,0.0,0.0,0.0,0.0,0.0,0.0,0.0,4.1307,4.2038,4.2095,4.2173,4.2445,4.2475,4.2426,0.0,0.0,0.0,0.0,0.0,0.0,0.0,0.0,0.0,0.0,0.0,0.0,0.0,0.0,4.2551,4.2122,4.1712,4.1413,4.1413,0.0,0.0,0.0,0.0,0.0,0.0,0.0,0.0,0.0,0.0,0.0,0.0,0.0,0.0,4.2743,0.0,4.322,0.0,0.0,0.0,0.0,0.0,0.0,0.0,0.0,4.3715,4.3978,4.3965,4.4899,4.4959,0.0,4.476,4.4803,0.0,0.0,0.0,0.0,0.0,0.0,0.0,0.0,4.5783,4.4696,4.4636,4.4137,4.314,4.323,4.3329,4.3389,4.4187,4.4518,4.4218,4.4228,4.3759,0.0,0.0,0.0,0.0,0.0,0.0,0.0,0.0,0.0,0.0,0.0,0.0,0.0,0.0,0.0,0.0,0.0,0.0,0.0,0.0,0.0,0.0,0.0,3.7682,0.0,0.0,0.0,0.0,0.0,0.0,0.0,0.0,0.0,4.0774,4.1254,4.1859,4.2495,4.2823,4.3101,4.3493,0.0,0.0,0.0,0.0,0.0,0.0,0.0,4.4289,4.3486,4.4041,4.4331,4.366,4.3654,4.3755,4.3765,0.0,0.0,4.2762,4.2522,4.2382,4.2314,4.2901,4.3269,4.283,4.3409,4.3888,0.0,0.0,0.0,0.0,0.0,0.0,0.0,0.0,4.2583,4.2775,0.0,4.3076,0.0,0.0,0.0,0.0,0.0,4.3436,0.0,0.0,4.5374,4.5879,4.5703,4.5949,4.6275,4.665,4.6807,4.6796,4.6502,4.434,0.0,0.0,0.0,0.0,0.0,0.0,4.7328,4.5453,4.5373,4.5055,4.4386,4.3778,4.3449,4.3479,4.4635,4.4529,4.3024,4.5042,4.491,4.1932,4.2826,0.0,0.0,0.0,0.0,0.0,0.0,0.0,0.0,0.0,0.0,0.0,0.0,0.0,0.0,0.0,0.0,0.0,0.0,0.0,0.0,3.8123,0.0,0.0,0.0,0.0,0.0,0.0,0.0,0.0,0.0,0.0,4.213,4.209,4.2495,4.3584,0.0,0.0,0.0,0.0,4.4573,4.4562,4.4573,4.4562,4.4562,4.5122,4.5328,4.465,0.0,0.0,4.4701,4.4583,4.4575,4.4594,4.4754,4.4585,4.3287,4.3707,4.4176,4.4042,4.4592,4.5204,4.5244,4.5084,4.5185,4.5826,0.0,0.0,0.0,0.0,4.4105,4.3624,4.2537,4.2508,4.3249,4.4389,4.3669,0.0,0.0,0.0,0.0,0.0,0.0,4.4265,4.583,4.605,4.6575,4.7375,4.7455,4.7572,4.7662,4.7749,4.7719,4.7633,4.6985,4.6698,4.6812,0.0,0.0,0.0,0.0,4.7625,4.6904,4.6594,4.6256,4.5884,4.6161,4.6083,4.5682,4.5553,4.5207,4.4587,4.4769,4.4288,4.2943,4.3615,0.0,0.0,0.0,0.0,0.0,0.0,0.0,0.0,0.0,0.0,0.0,0.0,0.0,0.0,0.0,0.0,0.0,0.0,0.0,4.0226,4.0306,4.066,0.0,0.0,0.0,0.0,0.0,0.0,0.0,0.0,0.0,4.3583,4.3758,4.4051,0.0,0.0,4.4451,4.4594,4.4485,4.4326,4.4194,0.0,0.0,0.0,4.4849,4.5109,4.4303,4.4458,4.4613,4.4408,4.4517,4.4594,4.4583,4.4647,4.4529,4.4108,4.4534,4.4921,4.4787,4.5039,4.5252,4.5117,4.519,4.5304,4.5204,4.4613,4.5713,4.5114,4.3554,4.3896,4.3517,4.2614,4.2614,4.3231,4.4226,4.3847,4.4077,4.4664,4.3642,0.0,0.0,0.0,4.4966,4.6592,4.6831,4.7079,4.7354,4.7829,4.8056,4.7975,4.8056,4.8056,4.7975,4.8161,4.8299,4.837,0.0,0.0,4.8732,4.8595,4.819,4.7548,4.727,4.7063,4.6925,4.7032,4.701,4.6847,4.6532,4.612,4.5569,4.5566,4.497,4.3648,4.411,4.3717,0.0,0.0,0.0,0.0,0.0,0.0,0.0,0.0,0.0,0.0,0.0,3.7827,3.8975,0.0,0.0,0.0,4.0002,4.0934,4.156,4.1781,0.0,0.0,0.0,0.0,0.0,0.0,0.0,4.2311,4.3209,4.4019,4.4272,4.4959,4.5328,4.5031,4.4889,4.4913,4.509,0.0,4.4898,4.4767,4.4745,4.4745,4.4774,4.5389,4.5714,4.5191,4.4989,4.4942,4.4942,4.5033,4.5119,4.5119,4.5184,4.5294,4.5416,4.5838,4.5911,4.5274,4.548,4.5754,4.5636,4.5786,4.5945,4.4296,4.4357,4.5977,4.5613,4.4047,4.3995,4.3502,4.2685,4.2672,4.2855,4.3109,4.3571,4.3875,4.4044,4.3995,0.0,4.5565,4.5391,4.5665,4.6454,4.744,4.7315,4.6356,4.7515,4.8039,4.7979,4.8121,4.8109,4.7916,4.8313,4.8676,4.9004,4.9245,4.9127,4.8685,4.9168,4.8874,4.7616,4.758,4.7562,4.751,4.6928,4.6787,4.7156,4.7408,4.7024,4.6056,4.6913,4.642,4.4313,4.4493,4.4592,4.4283,0.0,0.0,0.0,0.0,0.0,0.0,0.0,0.0,0.0,0.0,0.0,0.0,0.0,0.0,0.0,4.0748,0.0,4.1942,4.2505,0.0,0.0,0.0,4.2531,4.194,4.2757,4.2925,4.1815,0.0,0.0,4.4463,0.0,4.6377,4.5209,4.5237,4.5565,4.6009,4.6074,4.6051,4.6051,4.6051,4.6051,4.6051,4.6516,4.6824,4.6754,4.6417,4.6074,4.6074,4.6074,4.6063,4.6085,4.6191,4.6501,4.7115,4.7315,4.71,4.5801,4.619,4.6757,4.6745,4.6871,4.7036,4.3426,4.2786,4.357,4.3626,4.3186,4.3186,4.2579,4.1668,4.1642,4.2125,4.2899,4.2255,4.1952,4.2005,4.1992,4.2567,4.3595,4.3544,4.4284,4.5639,4.5932,4.6583,4.7559,4.7872,4.8456,4.9233,4.9277,4.9032,4.8508,4.8603,4.8464,4.8132,4.819,4.8717,4.9685,4.9374,4.8945,4.8417,4.8173,4.7939,4.7736,4.7579,4.7288,4.691,4.7445,4.7375,4.6638,4.6817,4.6479,4.55,4.5542,4.5138,4.4123,4.4529,0.0,0.0,0.0,0.0,0.0,0.0,0.0,0.0,0.0,4.0709,4.1506,0.0,4.1082,0.0,3.9705,4.0189,4.1997,4.1741,0.0,0.0,4.3627,4.3459,4.3444,4.3799,4.4073,4.4076,4.4574,4.5068,4.545,4.6255,4.6673,4.6395,4.6829,4.7282,4.7531,4.7445,4.7341,4.7329,4.7312,4.7329,4.7312,4.7433,4.755,4.755,4.7428,4.737,4.7341,4.7341,4.7341,4.737,4.7364,4.7497,4.7625,4.7689,4.7625,4.7311,4.7668,4.7974,4.7784,4.791,4.8081,4.3061,4.2592,4.2839,4.294,4.2889,4.2414,4.1851,4.1302,4.1289,4.1637,4.2157,4.1836,4.1843,4.2044,4.2069,4.2657,4.3662,4.3702,4.4204,4.5115,4.5572,4.6183,4.6938,4.7953,4.8902,4.9756,5.0274,5.0336,5.0005,4.998,4.9685,4.9083,4.9112,4.9388,4.9841,4.9008,4.8563,4.8699,4.8243,4.7934,4.7805,4.7794,4.791,4.8066,4.8147,4.8176,4.8106,4.7816,4.7625,4.7561,4.73,4.6824,4.6156,4.6258,4.6104,0.0,0.0,0.0,0.0,0.0,0.0,0.0,0.0,0.0,0.0,0.0,4.1177,4.0625,3.9907,4.0107,4.1625,4.1735,4.2208,4.3346,4.3684,4.3871,4.3982,4.433,4.4556,4.4494,4.5227,4.5779,4.5935,4.694,4.7642,4.7671,4.8217,4.8463,4.8033,4.7846,4.7794,4.7794,4.7794,4.7794,4.7794,4.7794,4.7794,4.7794,4.7794,4.7794,4.7794,4.7794,4.7794,4.7794,4.7794,4.7921,4.813,4.8217,4.8275,4.8584,4.885,4.8764,4.8144,4.8167,4.8311,4.3215,4.3201,4.3201,4.3201,4.314,4.213,4.1654,4.1528,4.1528,4.1515,4.154,4.2071,4.2587,4.3076,4.3101,4.3672,4.4673,4.4687,4.4687,4.4741,4.5648,4.5982,4.5914,4.7922,4.929,5.0044,5.11,5.1543,5.1485,5.1497,5.1166,5.0593,5.0552,5.0332,4.9809,4.856,4.8101,4.8455,4.8171,4.7979,4.7805,4.7939,4.8537,4.947,4.8919,4.889,4.9528,4.8948,4.8902,4.9519,4.8943,4.8571,4.8571,4.8171,4.7654,0.0,4.6277,0.0,0.0,0.0,0.0,0.0,0.0,0.0,0.0,4.0776,4.1117,4.1217,4.0493,4.0405,4.121,4.208,4.2682,4.2969,4.3583,4.4106,4.4454,4.4745,4.4745,4.4385,4.5797,4.6609,4.6185,4.7596,4.8699,4.867,4.9187,4.9199,4.8328,4.8137,4.8142,4.8026,4.8026,4.8171,4.8171,4.8113,4.8125,4.8096,4.8154,4.8038,4.8125,4.8084,4.8084,4.8084,4.8125,4.8287,4.8728,4.8832,4.9006,4.9519,4.963,4.9323,4.8451,4.8307,4.8319,4.4303,4.4288,4.4303,4.4303,4.4278,4.4077,4.3474,4.2674,4.2674,4.2674,4.2699,4.2799,4.3165,4.3639,4.3639,4.4004,4.4608,4.4608,4.4622,4.4622,4.4851,4.5883,4.7594,4.8069,4.93,5.1203,5.1499,5.134,5.0871,5.0871,5.054,4.9918,4.9876,5.0104,5.0419,0.0,0.0,0.0,4.8607,4.8851,4.7892,4.8827,4.9192,4.889,4.8304,0.0,4.8832,4.8304,4.8246,4.8844,4.8304,0.0,0.0,0.0,0.0,0.0,0.0,0.0,0.0,0.0,0.0,0.0,4.309,4.2567,4.1155,4.0698,4.0275,3.9776,3.9764,4.0352,4.1729,4.1918,4.3039,4.5591,4.4797,4.4803,4.6719,4.5801,4.5227,4.6192,4.6586,4.676,4.6772,4.7845,4.8687,4.8757,4.9274,4.9589,4.9374,4.9257,4.9315,4.9345,4.9269,4.9315,4.9345,4.9299,4.924,4.9345,4.9345,4.9315,4.9286,4.9286,4.9315,4.9286,4.9345,4.9345,4.9478,4.9519,4.9507,4.9693,4.9722,4.9635,4.9403,4.9352,4.9405,4.4589,0.0,4.4589,4.4589,0.0,4.4589,4.4303,4.379,4.379,4.379,4.379,4.379,4.394,4.4177,4.4177,4.4353,4.4589,4.4589,4.4589,4.4564,4.4328,4.5289,4.7234,4.7541,4.8749,5.0699,5.1318,5.1456,5.1149,5.1149,5.0801,5.022,5.0498,5.0511,5.0187,4.9536,4.8566,4.7306,4.8258,4.8432,4.7852,4.8089,4.8426,4.8658,0.0,0.0,0.0,0.0,0.0,0.0,0.0,0.0,0.0,0.0,0.0,4.6685,4.7037,4.6606,4.5042,4.522,4.4665,4.3036,4.2268,4.1686,4.1271,4.0743,4.0262,3.9904,3.9774,4.0007,4.0792,4.1717,4.2994,4.4567,4.4886,4.55,4.6556,4.6272,4.6087,4.6702,4.7381,4.7642,4.7335,4.8077,4.867,4.8728,4.8989,4.9332,4.9635,4.9722,4.9722,4.9722,4.9722,4.9693,4.9722,4.9722,4.9722,4.9722,4.9722,4.9722,4.9722,4.9722,4.9722,4.9722,4.9722,4.9722,4.9722,4.9722,4.9722,4.9722,4.9722,4.9722,4.9722,4.9722,4.9722,4.4905,4.489,4.489,4.4905,4.4905,4.489,4.4905,4.4905,0.0,0.0,0.0,4.4589,4.464,4.4754,4.4754,4.4805,4.4905,4.4991,4.5056,4.5016,4.4694,4.5484,4.7241,4.7835,4.9045,5.0773,5.158,5.2062,5.2243,5.2062,5.1757,5.1427,5.1862,5.1497,5.0291,5.0087,4.9449,4.8386,4.8403,4.8374,4.8154,4.7712,4.7932,4.8861,4.7642,4.7729,4.9279,4.8948,4.9441,5.095,5.0726,5.0506,5.0469,4.8925,4.7696,4.6953,4.5572,4.479,4.4951,4.3874,4.3127,4.2929,4.1609,4.0902,4.1177,4.0675,4.0362,4.0362,4.0036,3.9952,4.0249,4.1835,4.3139,4.3635,4.5118,4.6167,4.6545,4.6766,4.6992,4.7207,4.8037,4.8455,4.7881,4.8292,4.8699,4.8699,4.8728,4.8931,4.9536,4.9722,4.9722,4.9722,4.9722,4.9722,4.9722,4.9722,4.9722,4.9722,4.9722,4.9722,4.9722,4.9722,4.9722,4.9722,4.9722,4.9722,4.9722,4.9722,4.9722,4.9722,4.9722,4.9722,4.9722,4.9722,4.9722,4.606,4.6075,4.606,4.606,4.606,4.606,4.606,4.5984,4.5016,4.4589,4.4589,4.4589,4.488,4.5372,4.5372,4.5623,4.61,4.6562,4.6747,0.0,4.7139,4.8625,5.0887,5.1038,5.2336,5.4403,5.3676,5.3801,5.4649,5.373,5.346,5.3875,5.4068,5.3413,5.2249,5.1626,5.1004,5.0332,5.0788,5.054,4.9449,4.9896,4.9942,4.9528,4.8304,4.7764,4.8067,4.8467,4.8832,4.9122,4.9553,4.9838,4.9802,4.8656,4.7521,4.651,4.6169,4.5249,4.3516,4.3999,4.4016,4.307,4.2356,4.1607,4.0688,4.0111,3.9823,3.9823,4.0161,4.0939,4.2168,4.3008,4.4364,4.6502,4.6778,4.7306,4.8723,4.8171,4.7782,4.8234,4.8571,4.8438,4.7898,4.8263,4.86,4.867,4.8757,4.896,4.9519,4.9722,4.9722,4.9722,4.9722,4.9722,4.9722,4.9722,4.9722,4.9722,4.9722,4.9722,4.9722,4.9722,4.9722,4.9722,4.9722,4.9722,4.9722,4.9722,4.9722,4.9722,4.9722,4.9722,4.9722,4.9722,4.9722,4.7164,4.7164,4.7164,4.7179,4.7164,4.7179,4.7179,4.7129,4.6612,4.621,4.5995,4.6245,4.6552,4.6778,4.6803,4.6928,4.7164,4.744,4.7541,4.7541,4.749,4.8395,4.9979,4.9819,5.0628,5.224,5.2435,5.2767,5.3303,5.3412,5.3648,5.3925,5.3952,5.3675,5.3065,5.2455,5.183,5.1178,5.0772,5.0278,4.971,4.9652,4.9465,4.9151,4.8246,4.7968,4.8275,4.8542,4.8699,4.8699,4.932,4.9536,4.9127,4.7837,4.6854,4.6293,4.4917,4.366,4.262,4.2739,4.2756,4.2567,4.2046,4.1491,4.0976,4.07,4.0563,4.0563,4.0563,4.0767,4.1527,4.2819,4.43,4.5864,4.6769,4.7683,4.8403,4.8212,4.791,4.8159,4.8217,4.7985,4.7335,4.7497,4.7845,4.8159,4.8711,4.9361,4.9693,4.9722,4.9722,4.9722,4.9722,4.9722,4.9722,4.9722,4.9722,4.9722,4.9722,4.9722,4.9722,4.9722,4.9722,4.9722,4.9722,4.9722,4.9722,4.9722,4.9722,4.9722,4.9722,4.9722,4.9722,4.9722,4.9722,4.7908,4.7908,4.7908,4.7908,4.7908,4.7908,4.7908,4.7933,4.8018,4.7883,4.7566,4.7792,4.7908,4.7908,4.7908,4.7908,4.7933,4.8058,4.8093,4.8083,4.7792,4.8289,4.9269,4.8968,4.9555,5.0887,5.1722,5.231,5.2891,5.3344,5.3584,5.3725,5.3877,5.3865,5.372,5.3252,5.2688,5.2007,5.0929,5.0216,4.9925,4.9407,4.9105,4.8902,4.8636,4.8618,4.8914,4.918,4.9308,4.9192,4.9785,4.9762,4.8944,4.7521,4.6581,4.6116,4.384,4.2324,4.2199,4.1882,4.1868,4.2311,4.1957,4.1679,4.1679,4.1804,4.1725,4.1485,4.1149,4.1167,4.2073,4.3477,4.4822,4.5698,4.7344,4.8588,4.8665,4.8665,4.8665,4.8665,4.8665,4.849,4.7857,4.7683,4.8043,4.8665,4.942,5.0087,5.0116,5.0116,5.0116,5.0071,4.9896,4.9722,4.9722,4.9722,4.9722,4.9722,4.9722,4.9722,4.9722,4.9722,4.9722,4.9722,4.9722,4.9722,4.9722,4.9722,4.9722,4.9722,4.9722,4.9722,4.9722,4.9722,4.9722,4.7933,4.7908,4.7958,4.7908,4.7958,4.7958,4.7958,4.8008,4.8492,4.8677,4.8576,4.8109,4.7958,4.7908,4.7958,4.7958,4.7992,4.8476,4.8702,4.8752,4.9179,5.0031,5.1007,5.1105,5.2482,5.4248,5.363,5.4153,5.5922,5.4426,5.3836,5.4402,5.4955,5.4952,5.4474,5.4358,5.401,5.3342,5.2672,5.1784,5.0681,5.0564,5.0204,4.9635,5.0141,5.0158,4.9635,5.0714,5.105,5.061,5.0979,5.0842,4.9682,4.8552,4.7417,4.6327,4.4168,4.2727,4.2299,4.2587,4.2824,4.2914,4.2905,4.2841,4.2864,4.3291,4.3129,4.2423,4.2124,4.3088,4.5327,4.6318,4.7327,4.8623,4.9713,5.0639,5.0975,5.1253,5.124,5.1253,5.0759,5.0975,4.9942,4.9843,5.0158,5.01,5.0697,5.1207,5.1224,5.1224,5.1253,5.1137,5.0511,4.9867,4.9809,4.971,4.9855,4.9838,4.9751,4.9838,4.9913,4.9896,4.9751,5.0087,4.9867,4.9884,4.9867,4.9722,4.978,4.9971,4.9913,4.978,4.9722,4.9838,4.9867,4.8912,4.8912,4.8912,4.8912,4.8912,4.8912,4.8912,4.8937,4.9154,4.9264,4.9254,4.9012,4.8912,4.8887,4.8887,4.8912,4.8912,4.9179,4.928,4.9305,4.949,4.987,5.0324,5.0388,5.0995,5.1969,5.2185,5.2849,5.3775,5.4352,5.4746,5.5133,5.6005,5.6215,5.5664,5.5606,5.5287,5.4662,5.44,5.3833,5.292,5.1804,5.0929,5.039,5.0564,5.039,4.9838,5.0233,5.0174,4.9562,4.9497,4.9228,4.8703,4.7351,4.6488,4.6178,4.4517,4.3226,4.2713,4.2889,4.3126,4.3452,4.4154,4.4266,4.359,4.4302,4.4635,4.4262,4.4161,4.4732,4.5854,4.7333,4.8735,4.9738,5.0659,5.1352,5.1572,5.1294,5.0946,5.0544,5.0109,4.9715,4.9274,4.964,5.022,5.0639,5.1249,5.1659,5.1617,5.1617,5.1617,5.1543,5.1108,5.0875,5.0801,5.083,5.0788,5.0801,5.083,5.083,5.0772,5.083,5.083,5.0788,5.0743,5.0743,5.0888,5.083,5.0801,5.0801,5.0788,5.083,5.083,5.083,5.0946,4.9816,4.9791,4.9665,4.959,4.959,4.959,4.959,4.959,4.959,4.959,4.9615,4.9741,4.9816,4.9791,4.9681,4.959,4.959,4.959,4.969,4.9791,4.9816,4.9933,5.0042,5.0058,5.0253,5.0671,5.1613,5.191,5.203,5.3927,5.486,5.4632,5.5602,5.6122,5.5889,5.5736,5.5465,5.5184,5.5154,5.491,5.4292,5.2941,5.1904,5.1505,5.1148,5.0678,5.007,5.0029,4.955,4.8638,4.8688,4.8445,4.7741,4.6753,4.6108,4.579,4.4881,4.394,4.3277,4.3352,4.3603,4.4023,4.5013,4.5149,4.4463,4.511,4.564,4.5499,4.6259,4.6814,4.6974,4.8767,5.0174,5.0636,5.1552,5.2123,5.2111,5.1701,5.1381,5.0788,5.0747,4.9889,4.964,5.0324,5.1137,5.1556,5.1904,5.2111,5.2111,5.2181,5.2181,5.2111,5.2152,5.1949,5.1704,5.1501,5.1617,5.1617,5.1514,5.1485,5.1617,5.1588,5.1588,5.1253,5.1501,5.1559,5.1369,5.1456,5.1717,5.1833,5.1862,5.192,5.2107,5.2094,5.231,5.0377,5.0302,4.9816,4.969,4.9615,4.964,4.964,4.9715,4.9665,4.964,4.9741,5.0151,5.0352,5.0327,4.9916,4.9656,4.964,4.969,4.9941,5.0327,5.0377,5.067,5.1214,5.123,5.1783,5.2469,5.2663,5.2622,5.2364,5.363,5.3428,5.1975,5.3349,5.4104,5.452,5.4136,5.3992,5.4613,5.4599,5.4557,5.443,5.3796,5.3324,5.3136,5.2196,5.1291,5.0839,5.0743,4.9994,4.8394,4.9629,4.9528,4.7681,4.7683,4.6888,4.5121,4.5179,4.492,4.4066,4.4267,4.4529,4.4644,4.5178,4.5252,4.4662,4.5536,4.5975,4.5563,4.7819,4.924,4.9485,5.0914,5.2123,5.2229,5.2903,5.3284,5.3342,5.3152,5.3342,5.311,5.2762,5.2501,5.2878,5.3284,5.3023,5.311,5.3313,5.33,5.3226,5.3284,5.3255,5.3255,5.3197,5.3007,5.1949,5.1907,5.182,5.1878,5.2023,5.1762,5.1646,5.1588,5.1646,5.1704,5.1862,5.1891,5.1675,5.1775,5.2078,5.2281,5.2484,5.2659,5.2891,5.3255,5.3384,5.1808,5.1456,5.1297,5.0996,5.0686,5.0703,5.0686,5.0686,5.0711,5.067,5.0711,5.0896,5.0971,5.0946,5.0787,5.0686,5.067,5.0686,5.0812,5.0987,5.0971,5.1088,5.1264,5.1289,5.1505,5.1927,5.1967,5.1907,5.1867,5.2971,5.3271,5.2954,5.3867,5.4496,5.4333,5.4142,5.4358,5.4898,5.4329,5.4228,5.4828,5.4064,5.3512,5.3418,5.187,5.0736,5.0146,5.0105,4.9801,4.9208,4.8766,4.8241,4.778,4.7225,4.6607,4.5833,4.5899,4.5824,4.5447,4.5261,4.5171,4.5204,4.574,4.5692,4.5038,4.5628,4.6257,4.6438,4.7599,4.894,5.0067,5.1809,5.2864,5.2294,5.2892,5.3487,5.3487,5.3487,5.3371,5.2991,5.2601,5.2443,5.2991,5.2933,5.3065,5.34,5.3487,5.3516,5.3487,5.3487,5.3487,5.3487,5.3487,5.3342,5.2994,5.2849,5.2849,5.2836,5.2849,5.2849,5.2762,5.2675,5.2733,5.2646,5.2617,5.2588,5.2559,5.2588,5.2833,5.2978,5.3181,5.3268,5.3458,5.3749,5.3936,5.2711,5.2402,5.236,5.2176,5.18,5.1641,5.1565,5.154,5.1364,5.1289,5.1314,5.1448,5.1565,5.1599,5.1741,5.1825,5.1749,5.1465,5.1389,5.1565,5.1565,5.1649,5.18,5.1841,5.1825,5.1841,5.18,5.1724,5.1649,5.242,5.2745,5.2646,5.35,5.3938,5.3859,5.3555,5.3699,5.4091,5.3584,5.3518,5.3992,5.3305,5.2861,5.2608,5.1156,5.0129,4.9776,4.9536,4.9106,4.8587,4.7943,4.7761,4.7861,4.7243,4.6813,4.6813,4.6828,4.6753,4.6562,4.6225,4.6103,4.6344,4.6699,4.6596,4.6094,4.6757,4.7037,4.7184,4.8379,4.9555,5.0243,5.2414,5.3504,5.2413,5.2735,5.3284,5.3487,5.3691,5.3749,5.3659,5.3355,5.321,5.3397,5.3514,5.3675,5.3836,5.3836,5.3778,5.3574,5.3487,5.3487,5.3487,5.3487,5.3487,5.3313,5.3242,5.3284,5.3313,5.3255,5.3429,5.3487,5.3487,5.3487,5.3487,5.3487,5.3487,5.3487,5.3487,5.3574,5.3691,5.3865,5.3936,5.411,5.4226,5.43,5.2937,5.2912,5.2912,5.2845,5.2711,5.2285,5.2101,5.2026,5.1615,5.1473,5.1565,5.19,5.2101,5.2201,5.2536,5.282,5.2611,5.185,5.1699,5.2076,5.2101,5.236,5.2762,5.2719,5.2719,5.2719,5.282,5.2586,5.2143,5.2228,5.2052,5.154,5.1723,5.2417,5.3162,5.2238,5.1909,5.2515,5.2575,5.2276,5.1638,5.1763,5.1695,5.1455,5.0359,4.98,4.9882,4.9244,4.8319,4.711,4.8,4.8463,4.7991,4.7813,4.7857,4.7782,4.7832,4.7591,4.7174,4.7039,4.7201,4.7563,4.791,4.7842,4.7951,4.8236,4.8224,4.8354,4.979,5.1092,5.0766,5.3065,5.4367,5.2981,5.2919,5.3268,5.3646,5.4126,5.4706,5.5055,5.4996,5.5287,5.5316,5.5084,5.488,5.4575,5.4474,5.4329,5.3923,5.3836,5.3632,5.3632,5.3836,5.3981,5.3778,5.3532,5.3574,5.3574,5.3487,5.3487,5.3487,5.3487,5.3487,5.3487,5.3487,5.3487,5.3487,5.3516,5.372,5.3865,5.4184,5.4271,5.4271,5.43,5.4619,5.3851,5.3457,5.3439,5.3256,5.2895,5.2711,5.2661,5.2636,5.246,5.2385,5.2452,5.2586,5.2661,5.2686,5.2845,5.2895,5.287,5.2536,5.2485,5.2611,5.2636,5.2737,5.287,5.2895,5.2895,5.2895,5.2895,5.282,5.2661,5.2636,5.2536,5.2427,5.236,5.2405,5.2462,5.2077,5.2207,5.2806,5.2457,5.2322,5.2568,5.2149,5.1554,5.0803,5.0338,5.0017,4.9717,4.9472,4.909,4.8526,4.8695,4.8524,4.8061,4.7908,4.7908,4.7908,4.7908,4.7857,4.7641,4.7315,4.7242,4.7333,4.7133,4.6936,4.7063,4.7329,4.7988,4.8989,5.0085,5.0784,5.2279,5.3262,5.3948,5.339,5.4032,5.4472,5.472,5.4967,5.5171,5.5345,5.5403,5.5403,5.5403,5.5445,5.5403,5.5213,5.5113,5.4967,5.4822,5.4648,5.4822,5.4822,5.4822,5.4648,5.4503,5.4416,5.4416,5.4271,5.4068,5.3923,5.3836,5.3778,5.372,5.3603,5.3574,5.3516,5.3516,5.3574,5.372,5.372,5.3778,5.3894,5.4025,5.4213,5.4387,5.416,5.4034,5.4052,5.3833,5.349,5.3314,5.3188,5.3163,5.297,5.2895,5.2895,5.2895,5.2895,5.2895,5.2895,5.2895,5.2895,5.2895,5.2895,5.2895,5.2895,5.2895,5.2895,5.2895,5.2895,5.2895,5.2895,5.2895,5.2895,5.2895,5.2895,5.2895,5.2895,5.2737,5.2427,5.2402,5.2666,5.2964,5.2658,5.2607,5.2898,5.2641,5.1958,5.118,5.1046,5.077,5.0268,5.0017,4.9775,4.959,4.9254,4.8928,4.856,4.856,4.8535,4.8535,4.8535,4.8476,4.8234,4.7958,4.7853,4.8019,4.8221,4.8473,4.8666,4.8938,5.0131,5.0943,5.183,5.2546,5.39,5.4722,5.4891,5.4981,5.4921,5.5318,5.5591,5.5794,5.5939,5.6084,5.6157,5.6099,5.6113,5.6113,5.5983,5.5852,5.5765,5.5591,5.5503,5.5345,5.5432,5.5432,5.5258,5.52,5.5316,5.5316,5.5316,5.5055,5.4749,5.4619,5.4503,5.4503,5.4474,5.4155,5.4039,5.3749,5.3691,5.3545,5.3574,5.3487,5.3603,5.3632,5.3764,5.3691,5.3807,5.4002,5.4479,5.4479,5.4353,5.4253,5.3783,5.3532,5.3532,5.3113,5.2895,5.2895,5.2895,5.2895,5.2895,5.2895,5.2895,5.2895,5.2895,5.2895,5.2895,5.2895,5.2895,5.2895,5.2895,5.2895,5.2895,5.2895,5.2895,5.2895,5.2895,5.2895,5.2895,5.2895,5.2895,5.282,5.287,5.2896,5.3017,5.3039,5.3064,5.315,5.3165,5.2787,5.2226,5.2084,5.1825,5.1272,5.0628,5.0101,4.9665,4.9556,4.949,4.954,4.959,4.949,4.9439,4.9565,4.928,4.8944,4.8777,4.8954,4.947,5.0293,5.1755,5.1491,5.1907,5.2501,5.2755,5.389,5.4926,5.5333,5.6265,5.6888,5.6985,5.5899,5.5591,5.6258,5.6419,5.6607,5.7042,5.726,5.726,5.71,5.7129,5.6897,5.6607,5.6432,5.62,5.5925,5.5838,5.562,5.5664,5.5867,5.5925,5.6099,5.6084,5.6113,5.6012,5.5649,5.5403,5.5142,5.5055,5.5026,5.4706,5.4503,5.4184,5.401,5.401,5.3952,5.4039,5.3952,5.3648,5.359,5.372,5.3661,5.3171,5.3339,5.3339,5.3339,5.3356,5.3163,5.3113,5.3096,5.2988,5.2895,5.2895,5.2895,5.2895,5.2895,5.2895,5.2895,5.2895,5.2895,5.2895,5.2895,5.2895,5.2895,5.2895,5.2895,5.2895,5.2895,5.2895,5.2895,5.2895,5.2895,5.2895,5.2895,5.2895,5.2895,5.2895,5.2895,5.3138,5.3532,5.3934,5.4102,5.4152,5.4461,5.4235,5.3331,5.2912,5.2435,5.185,5.0904,5.0151,4.9665,4.959,4.959,4.959,4.959,4.959,4.959,4.959,4.954,4.943,4.938,4.9471,4.9593,5.0296,5.021,5.0338,5.0741,5.1294,5.1922,5.3226,5.4501,5.5412,5.6566,5.7205,5.726,5.6694,5.6549,5.6897,5.7071,5.7158,5.7274,5.7303,5.7303,5.7303,5.7303,5.7245,5.7071,5.6984,5.6955,5.6607,5.6578,5.649,5.6723,5.6897,5.6854,5.6854,5.6868,5.6868,5.6912,5.6665,5.6258,5.5852,5.5403,5.5345,5.5171,5.5171,5.4952,5.4967,5.4967,5.488,5.4619,5.4677,5.4561,5.4329,5.43,5.4039,5.3607,5.3582,5.3339,5.3239,5.3213,5.2995,5.2895,5.2895,5.2895,5.2895,5.2895,5.2895,5.2895,5.2895,5.2895,5.2895,5.2895,5.2895,5.2895,5.2895,5.2895,5.2895,5.2895,5.2895,5.2895,5.2895,5.2895,5.2895,5.2895,5.2895,5.2895,5.2895,5.2895,5.2895,5.2895,5.292,5.3163,5.3658,5.4077,5.4303,5.4622,5.4881,5.4554,5.3884,5.3557,5.3281,5.2452,5.1373,5.0427,4.9816,4.959,4.959,4.959,4.959,4.959,4.959,4.959,4.959,4.959,4.959,4.9854,5.042,5.0832,5.1528,5.2159,5.2436,5.329,5.4101,5.4723,5.5412,5.6078,5.6893,5.7247,5.7303,5.7303,5.7303,5.7303,5.7303,5.7303,5.7303,5.7303,5.7303,5.7303,5.7303,5.7303,5.7303,5.7245,5.7245,5.7216,5.7303,5.7303,5.7303,5.7303,5.7187,5.7115,5.71,5.71,5.7187,5.7158,5.6839,5.6549,5.5997,5.5954,5.5925,5.5881,5.5765,5.5678,5.5548,5.5258,5.5142,5.5374,5.5345,5.5026,5.488,5.459,5.4597,5.4547,5.4027,5.3801,5.3708,5.3239,5.302,5.297,5.2937,5.2895,5.2895,5.2895,5.2895,5.2895,5.2895,5.2895,5.2895,5.2895,5.2895,5.2895,5.2895,5.2895,5.2895,5.2895,5.2895,5.2895,5.2895,5.2895,5.2895,5.2895,5.2895,5.2895,5.2895,5.2895,5.2895,5.2895,5.3188,5.3607,5.3758,5.4102,5.4496,5.4647,5.4403,5.4077,5.4052,5.3658,5.2754,5.1749,5.077,4.9724,4.9656,4.959,4.959,4.959,4.959,4.959,4.959,4.959,4.959,4.9606,4.9998,5.0948,5.2231,5.3709,5.4131,5.487,5.5616,5.5631,5.6936,5.6779,5.7106,5.7289,5.7289,5.7303,5.7303,5.7303,5.7303,5.7303,5.7303,5.7303,5.7303,5.7303,5.7303,5.7303,5.7303,5.7303,5.7303,5.7303,5.7303,5.7303,5.7303,5.7303,5.7303,5.7303,5.7303,5.7274,5.7274,5.7303,5.7274,5.7158,5.7129,5.6839,5.6781,5.6723,5.6549,5.6287,5.6055,5.5838,5.5722,5.5809,5.6113,5.5852,5.5548,5.5533,5.5358,5.4597,5.4597,5.4471,5.4421,5.4303,5.3783,5.3515,5.3482,5.3088,5.292,5.2895,5.2895,5.2895,5.2895,5.2895,5.2895,5.2895,5.2895,5.2895,5.2895,5.2895,5.2895,5.2895,5.2895,5.2895,5.2895,5.2895,5.2895,5.2895,5.2895,5.2895,5.2895,5.2895,5.2895,5.2895,5.292,5.3163,5.3607,5.3683,5.3951,5.4353,5.4496,5.4446,5.4278,5.4052,5.3356,5.2427,5.1641,5.0962,5.0343,4.9841,4.959,4.959,4.959,4.959,4.959,4.959,4.959,4.959,4.9606,4.9694,5.0276,5.1377,5.2035,5.2313,5.3814,5.4382,5.4516,5.5193,5.638,5.7162,5.7303,5.7303,5.7303,5.7303,5.7303,5.7303,5.7303,5.7303,5.7303,5.7303,5.7303,5.7303,5.7303,5.7303,5.7303,5.7303,5.7303,5.7303,5.7303,5.7303,5.7303,5.7303,5.7303,5.7303,5.7303,5.7303,5.7303,5.7303,5.7303,5.7303,5.7303,5.7129,5.71,5.7129,5.6868,5.652,5.6694,5.6665,5.6752,5.6752,5.649,5.6287,5.6258,5.6142,5.5333,5.5333,5.5082,5.4956,5.4881,5.4378,5.3959,5.3683,5.3414,5.3138,5.292,5.2895,5.2895,5.2895,5.2895,5.2895,5.2895,5.2895,5.2895,5.2895,5.2895,5.2895,5.2895,5.2895,5.2895,5.2895,5.2895,5.2895,5.2895,5.2895,5.2895,5.2895,5.2895,5.2895,5.2895,5.2895,5.302,5.3239,5.3314,5.3507,5.3758,5.3808,5.3959,5.4009,5.3658,5.3063,5.2879,5.18,5.1239,5.072,5.0051,4.959,4.959,4.959,4.959,4.959,4.959,4.959,4.959,4.9622,4.987,5.0404,5.1142,5.1756,5.2497,5.3649,5.4293,5.4677,5.5572,5.6651,5.7219,5.7303,5.7303,5.7303,5.7303,5.7303,5.7303,5.7303,5.7303,5.7303,5.7303,5.7303,5.7303,5.7303,5.7303,5.7303,5.7303,5.7303,5.7303,5.7303,5.7303,5.7303,5.7303,5.7303,5.7303,5.7303,5.7303,5.7303,5.7303,5.7303,5.7303,5.7303,5.7303,5.7303,5.7274,5.7274,5.7071,5.7303,5.7303,5.7158,5.7042,5.7042,5.6984,5.681,5.6723,5.6219,5.615,5.5691,5.5534,5.544,5.4949,5.4454,5.4052,5.3758,5.3432,5.3063,5.2962,5.2895,5.2895,5.2895,5.2895,5.2895,5.2895,5.2895,5.2895,5.2895,5.2895,5.2895,5.2895,5.2895,5.2895,5.2895,5.2895,5.2895,5.2895,5.2895,5.2895,5.2895,5.2895,5.2895,5.2895,5.292,5.297,5.2995,5.2995,5.302,5.302,5.3264,5.3389,5.3239,5.3113,5.303,5.2201,5.1389,5.1255,5.0293,4.9766,4.9615,4.959,4.959,4.959,4.959,4.959,4.959,4.9638,5.0046,5.1174,5.1767,5.2308,5.3392,5.4693,5.5557,5.5963,5.6566,5.7162,5.7303,5.7303,5.7303,5.7303,5.7303,5.7303,5.7303,5.7303,5.7303,5.7303,5.7303,5.7303,5.7303,5.7303,5.7303,5.7303,5.7303,5.7303,5.7303,5.7303,5.7303,5.7303,5.7303,5.7303,5.7303,5.7303,5.7303,5.7303,5.7303,5.7303,5.7303,5.7303,5.7303,5.7303,5.7303,5.7303,5.7303,5.7303,5.7303,5.7303,5.7274,5.7187,5.7216,5.7303,5.7216,5.6219,5.6194,5.6118,5.6068,5.5993,5.5509,5.5164,5.4938,5.411,5.3658,5.3507,5.3113,5.2945,5.2895,5.2895,5.2895,5.2895,5.2895,5.2895,5.2895,5.2895,5.2895,5.2895,5.2895,5.2895,5.2895,5.2895,5.2895,5.2895,5.2895,5.2895,5.2895,5.2895,5.2895,5.2895,5.2895,5.2895,5.2895,5.2895,5.2895,5.2895,5.2895,5.292,5.3113,5.2945,5.297,5.2912,5.2402,5.1749,5.1289,5.0645,5.0092,4.9741,4.964,4.959,4.959,4.959,4.959,4.959,4.9703,4.9719,5.0324,5.184,5.2983,5.3934,5.5441,5.6366,5.6865,5.7035,5.7303,5.7303,5.7303,5.7303,5.7303,5.7303,5.7303,5.7303,5.7303,5.7303,5.7303,5.7303,5.7303,5.7303,5.7303,5.7303,5.7303,5.7303,5.7303,5.7303,5.7303,5.7303,5.7303,5.7303,5.7303,5.7303,5.7303,5.7303,5.7303,5.7303,5.7303,5.7303,5.7303,5.7303,5.7303,5.7303,5.7303,5.7303,5.7303,5.7303,5.7303,5.7303,5.7303,5.7303,5.7303,5.7303,5.6219,5.6219,5.6219,5.6219,5.6168,5.5924,5.5641,5.534,5.4813,5.4235,5.3758,5.3432,5.3138,5.2945,5.2895,5.2895,5.2895,5.2895,5.2895,5.2895,5.2895,5.2895,5.2895,5.2895,5.2895,5.2895,5.2895,5.2895,5.2895,5.2895,5.2895,5.2895,5.2895,5.2895,5.2895,5.2895,5.2895,5.2895,5.2895,5.2895,5.2895,5.2895,5.2895,5.2895,5.2895,5.2895,5.2812,5.2385,5.2,5.1599,5.0854,5.0352,5.0026,4.9766,4.959,4.959,4.959,4.959,4.9783,5.011,5.0632,5.0822,5.2447,5.3362,5.3904,5.5091,5.6623,5.7148,5.7303,5.7303,5.7303,5.7303,5.7303,5.7303,5.7303,5.7303,5.7303,5.7303,5.7303,5.7303,5.7303,5.7303,5.7303,5.7303,5.7303,5.7303,5.7303,5.7303,5.7303,5.7303,5.7303,5.7303,5.7303,5.7303,5.7303,5.7303,5.7303,5.7303,5.7303,5.7303,5.7303,5.7303,5.7303,5.7303,5.7303,5.7303,5.7303,5.7303,5.7303,5.7303,5.7303,5.7303,5.7303,5.7303,5.7303,5.6219,5.6219,5.6219,5.6219,5.6219,5.6219,5.5968,5.5591,5.5433,5.4863,5.411,5.3783,5.3457,5.3138,5.2945,5.2895,5.2895,5.2895,5.2895,5.2895,5.2895,5.2895,5.2895,5.2895,5.2895,5.2895,5.2895,5.2895,5.2895,5.2895,5.2895,5.2895,5.2895,5.2895,5.2895,5.2895,5.2895,5.2895,5.2895,5.2895,5.2895,5.2895,5.2895,5.2895,5.2895,5.2895,5.2845,5.2561,5.2234,5.1833,5.1205,5.0544,5.0352,4.9891,4.9615,4.959,4.959,4.959,4.9806,5.0308,5.0853,5.1299,5.2677,5.3438,5.4263,5.5339,5.638,5.7092,5.7303,5.7303,5.7303,5.7303,5.7303,5.7303,5.7303,5.7303,5.7303,5.7303,5.7303,5.7303,5.7303,5.7303,5.7303,5.7303,5.7303,5.7303,5.7303,5.7303,5.7303,5.7303,5.7303,5.7303,5.7303,5.7303,5.7303,5.7303,5.7303,5.7303,5.7303,5.7303,5.7303,5.7303,5.7303,5.7303,5.7303,5.7303,5.7303,5.7303,5.7303,5.7303,5.7303,5.7303,5.7303,5.7303,5.7303,5.6219,5.6219,5.6219,5.6219,5.6219,5.6219,5.6194,5.6025,5.5634,5.5358,5.4988,5.416,5.3708,5.3432,5.3063,5.292,5.2895,5.2895,5.2895,5.2895,5.2895,5.2895,5.2895,5.2895,5.2895,5.2895,5.2895,5.2895,5.2895,5.2895,5.2895,5.2895,5.2895,5.2895,5.2895,5.2895,5.2895,5.2895,5.2895,5.2895,5.2895,5.2895,5.2895,5.2895,5.2895,5.2895,5.2895,5.2719,5.2586,5.2109,5.1565,5.0962,5.0444,4.9891,4.9665,4.959,4.959,4.959,4.967,5.027,5.0885,5.1834,5.3043,5.3994,5.5091,5.6107,5.6993,5.7191,5.7303,5.7245,5.7202,5.7231,5.7303,5.7245,5.7158,5.7245,5.7303,5.7303,5.7303,5.7303,5.7303,5.7303,5.7303,5.7303,5.7303,5.7303,5.7303,5.7303,5.7303,5.7303,5.7303,5.7303,5.7303,5.7303,5.7303,5.7303,5.7303,5.7303,5.7303,5.7303,5.7303,5.7303,5.7303,5.7303,5.7303,5.7303,5.7303,5.7303,5.7303,5.7303,5.7303,5.7303,5.7303,5.7303,5.7303,5.6219,5.6219,5.6219,5.6219,5.6219,5.6219,5.6219,5.6168,5.5968,5.5691,5.529,5.4579,5.3901,5.3339,5.297,5.2895,5.2895,5.2895,5.2895,5.2895,5.2895,5.2895,5.2895,5.2895,5.2895,5.2895,5.2895,5.2895,5.2895,5.2895,5.2895,5.2895,5.2895,5.2895,5.2895,5.2895,5.2895,5.2895,5.2895,5.2895,5.2895,5.2895,5.2895,5.2895,5.2895,5.2895,5.2895,5.2895,5.282,5.241,5.18,5.1214,5.0745,5.0142,4.959,4.9654,5.034,5.0308,4.9895,5.0958,5.1809,5.288,5.4323,5.5949,5.6537,5.6893,5.7303,5.7303,5.7303,5.7187,5.6912,5.6796,5.681,5.681,5.6926,5.7129,5.7216,5.7303,5.7303,5.7303,5.7303,5.7303,5.7303,5.7303,5.7303,5.7303,5.7303,5.7303,5.7303,5.7303,5.7303,5.7303,5.7303,5.7303,5.7303,5.7303,5.7303,5.7303,5.7303,5.7303,5.7303,5.7303,5.7303,5.7303,5.7303,5.7303,5.7303,5.7303,5.7303,5.7303,5.7303,5.7303,5.7303,5.7303,5.7303,5.6219,5.6219,5.6219,5.6219,5.6219,5.6219,5.6219,5.6219,5.6194,5.5968,5.5509,5.4881,5.4027,5.3239,5.2995,5.2895,5.2895,5.2895,5.2895,5.2895,5.2895,5.2895,5.2895,5.2895,5.2895,5.2895,5.2895,5.2895,5.2895,5.2895,5.2895,5.2895,5.2895,5.2895,5.2895,5.2895,5.2895,5.2895,5.2895,5.2895,5.2895,5.2895,5.2895,5.2895,5.2895,5.2895,5.2895,5.2895,5.2895,5.2711,5.185,5.1264,5.1088,5.0218,4.9665,4.9847,5.06,5.1011,5.0869,5.1591,5.2964,5.4144,5.563,5.7007,5.7148,5.7303,5.7303,5.7303,5.7303,5.7071,5.6752,5.6578,5.6622,5.6651,5.6622,5.6897,5.7129,5.7245,5.7303,5.7303,5.7303,5.7303,5.7303,5.7303,5.7303,5.7303,5.7303,5.7303,5.7303,5.7303,5.7303,5.7303,5.7303,5.7303,5.7303,5.7303,5.7303,5.7303,5.7303,5.7303,5.7303,5.7303,5.7303,5.7303,5.7303,5.7303,5.7303,5.7303,5.7303,5.7303,5.7303,5.7303,5.7303,5.7303,5.7303,5.6219,5.6219,5.6219,5.6219,5.6219,5.6219,5.6219,5.6219,5.6219,5.6125,5.5849,5.5082,5.4228,5.3607,5.3113,5.2895,5.2895,5.2895,5.2895,5.2895,5.2895,5.2895,5.2895,5.2895,5.2895,5.2895,5.2895,5.2895,5.2895,5.2895,5.2895,5.2895,5.2895,5.2895,5.2895,5.2895,5.2895,5.2895,5.2895,5.2895,5.2895,5.2895,5.2895,5.2895,5.2895,5.2895,5.2895,5.2895,5.2895,5.2845,5.1875,5.1314,5.1113,5.0209,4.9665,4.9863,5.1074,5.144,5.1502,5.1736,5.237,5.3844,5.563,5.7303,5.7303,5.7303,5.7303,5.7303,5.7303,5.7216,5.697,5.6825,5.6767,5.668,5.6723,5.6926,5.7158,5.7245,5.7303,5.7303,5.7303,5.7303,5.7303,5.7303,5.7303,5.7303,5.7303,5.7303,5.7303,5.7303,5.7303,5.7303,5.7303,5.7303,5.7303,5.7303,5.7303,5.7303,5.7303,5.7303,5.7303,5.7303,5.7303,5.7303,5.7303,5.7303,5.7303,5.7303,5.7303,5.7303,5.7303,5.7303,5.7303,5.7303,5.7303,5.6219,5.6219,5.6219,5.6219,5.6219,5.6219,5.6219,5.6219,5.6219,5.5993,5.5691,5.4906,5.4253,5.3683,5.3163,5.2895,5.2895,5.2895,5.2895,5.2895,5.2895,5.2895,5.2895,5.2895,5.2895,5.2895,5.2895,5.2895,5.2895,5.2895,5.2895,5.2895,5.2895,5.2895,5.2895,5.2895,5.2895,5.2895,5.2895,5.2895,5.2895,5.2895,5.2895,5.2895,5.2895,5.2895,5.2895,5.2895,5.2895,5.2619,5.1825,5.1465,5.1138,5.0184,4.969,4.9895,5.1434,5.2123,5.1911,5.2308,5.3317,5.4619,5.6251,5.7303,5.7303,5.7303,5.7303,5.7303,5.7303,5.7231,5.6752,5.6839,5.6984,5.6868,5.6897,5.7071,5.7216,5.7361,5.7303,5.7303,5.7303,5.7303,5.7303,5.7303,5.7303,5.7303,5.7303,5.7303,5.7303,5.7303,5.7303,5.7303,5.7303,5.7303,5.7303,5.7303,5.7303,5.7303,5.7303,5.7303,5.7303,5.7303,5.7303,5.7303,5.7303,5.7303,5.7303,5.7303,5.7303,5.7303,5.7303,5.7303,5.7303,5.7303,5.7303,5.6219,5.6219,5.6219,5.6219,5.6219,5.6219,5.6219,5.6219,5.6219,5.6018,5.5591,5.4931,5.4396,5.3858,5.3213,5.2895,5.2895,5.2895,5.2895,5.2895,5.2895,5.2895,5.2895,5.2895,5.2895,5.2895,5.2895,5.2895,5.2895,5.2895,5.2895,5.2895,5.2895,5.2895,5.2895,5.2895,5.2895,5.2895,5.2895,5.2895,5.2895,5.2895,5.2895,5.2895,5.2895,5.2895,5.2895,5.2895,5.2895,5.2544,5.2,5.1389,5.0912,5.0368,4.9715,5.0445,5.1669,5.2876,5.2738,5.3332,5.4412,5.5295,5.6494,5.7162,5.7303,5.7303,5.7303,5.7303,5.7303,5.7115,5.6665,5.6999,5.7361,5.7332,5.7158,5.7274,5.7448,5.7565,5.7419,5.7303,5.7303,5.7303,5.7303,5.7303,5.7303,5.7303,5.7303,5.7303,5.7303,5.7303,5.7303,5.7303,5.7303,5.7303,5.7303,5.7303,5.7303,5.7303,5.7303,5.7303,5.7303,5.7303,5.7303,5.7303,5.7303,5.7303,5.7303,5.7303,5.7303,5.7303,5.7303,5.7303,5.7303,5.7303,5.7303,5.6219,5.6219,5.6219,5.6219,5.6219,5.6219,5.6219,5.6219,5.6219,5.6168,5.5993,5.5107,5.4622,5.4278,5.3457,5.2995,5.2895,5.2895,5.2895,5.2895,5.2895,5.2895,5.2895,5.2895,5.2895,5.2895,5.2895,5.2895,5.2895,5.2895,5.2895,5.2895,5.2895,5.2895,5.2895,5.2895,5.2895,5.2895,5.2895,5.2895,5.2895,5.2895,5.2895,5.2895,5.2895,5.2895,5.2895,5.2895,5.2845,5.2586,5.1825,5.1314,5.1038,5.0142,4.964,4.9799,5.2119,5.3332,5.3604,5.4723,5.5296,5.5557,5.6566,5.7247,5.7303,5.7303,5.7303,5.7303,5.7303,5.7303,5.7245,5.7405,5.7768,5.7797,5.7623,5.7623,5.7826,5.7594,5.739,5.7303,5.7303,5.7303,5.7303,5.7303,5.7303,5.7303,5.7303,5.7303,5.7303,5.7303,5.7303,5.7303,5.7303,5.7303,5.7303,5.7303,5.7303,5.7303,5.7303,5.7303,5.7303,5.7303,5.7303,5.7303,5.7303,5.7303,5.7303,5.7303,5.7303,5.7303,5.7303,5.7303,5.7303,5.7303,5.7303,5.6219,5.6219,5.6219,5.6219,5.6219,5.6219,5.6219,5.6219,5.6219,5.6219,5.6068,5.5408,5.4898,5.4446,5.3851,5.3213,5.292,5.2895,5.2895,5.2895,5.2895,5.2895,5.2895,5.2895,5.2895,5.2895,5.2895,5.2895,5.2895,5.2895,5.2895,5.2895,5.2895,5.2895,5.2895,5.2895,5.2895,5.2895,5.2895,5.2895,5.2895,5.2895,5.2895,5.2895,5.2895,5.2895,5.2895,5.2895,5.2744,5.2435,5.1624,5.1172,5.0803,4.9965,4.9712,5.0158,5.2088,5.4338,5.5412,5.6466,5.6165,5.6179,5.6523,5.7275,5.7303,5.7303,5.7303,5.7303,5.7303,5.7303,5.7303,5.8232,5.8639,5.8377,5.8218,5.829,5.829,5.7681,5.7303,5.7303,5.7303,5.7303,5.7303,5.7303,5.7303,5.7303,5.7303,5.7303,5.7303,5.7303,5.7303,5.7303,5.7303,5.7303,5.7303,5.7303,5.7303,5.7303,5.7303,5.7303,5.7303,5.7303,5.7303,5.7303,5.7303,5.7303,5.7303,5.7303,5.7303,5.7303,5.7303,5.7303,5.7303,5.7303,5.7303,5.6219,5.6219,5.6219,5.6219,5.6219,5.6219,5.6219,5.6219,5.6219,5.6219,5.6093,5.5616,5.5107,5.4572,5.3976,5.3389,5.292,5.2895,5.2895,5.2895,5.2895,5.2895,5.2895,5.2895,5.2895,5.2895,5.2895,5.2895,5.2895,5.2895,5.2895,5.2895,5.2895,5.2895,5.2895,5.2895,5.2895,5.2895,5.2895,5.2895,5.2895,5.2895,5.2895,5.2895,5.2895,5.2895,5.2895,5.282,5.2644,5.2126,5.159,5.1038,5.0493,5.0362,5.02,5.0964,5.2708,5.5047,5.6609,5.7162,5.6751,5.6351,5.6964,5.7233,5.7303,5.7303,5.7303,5.7303,5.7303,5.7477,5.7768,5.8842,5.9132,5.8827,5.9045,5.9132,5.8697,5.8087,5.7477,5.7448,5.7303,5.7303,5.7303,5.7303,5.7303,5.7303,5.7303,5.7303,5.7303,5.7303,5.7303,5.7303,5.7303,5.7303,5.7303,5.7303,5.7303,5.7303,5.7303,5.7303,5.7303,5.7303,5.7303,5.7303,5.7303,5.7303,5.7303,5.7303,5.7303,5.7303,5.7303,5.7303,5.7303,5.7303,5.7303,5.6219,5.6219,5.6219,5.6219,5.6219,5.6219,5.6219,5.6219,5.6219,5.6219,5.6168,5.5666,5.5182,5.4579,5.3984,5.3439,5.297,5.2895,5.2895,5.2895,5.2895,5.2895,5.2895,5.2895,5.2895,5.2895,5.2895,5.2895,5.2895,5.2895,5.2895,5.2895,5.2895,5.2895,5.2895,5.2895,5.2895,5.2895,5.2895,5.2895,5.2895,5.2895,5.2895,5.2895,5.2895,5.2895,5.2895,5.287,5.2536,5.2076,5.1548,5.0971,5.0802,5.1089,5.1356,5.2236,5.4054,5.5631,5.6708,5.6993,5.7275,5.6964,5.7162,5.7303,5.7303,5.7303,5.7303,5.7303,5.7332,5.7768,5.8232,5.8871,5.951,5.9655,5.9945,5.9713,5.9219,5.861,5.7942,5.7623,5.739,5.7303,5.7303,5.7303,5.7303,5.7303,5.7303,5.7303,5.7303,5.7303,5.7303,5.7303,5.7303,5.7303,5.7303,5.7303,5.7303,5.7303,5.7303,5.7303,5.7303,5.7303,5.7303,5.7303,5.7303,5.7303,5.7303,5.7303,5.7303,5.7303,5.7303,5.7303,5.7303,5.7303,5.7303,5.6219,5.6219,5.6219,5.6219,5.6219,5.6219,5.6219,5.6219,5.6219,5.6219,5.6175,5.6043,5.544,5.4622,5.4421,5.3758,5.3239,5.2895,5.2895,5.2895,5.2895,5.2895,5.2895,5.2895,5.2895,5.2895,5.2895,5.2895,5.2895,5.2895,5.2895,5.2895,5.2895,5.2895,5.2895,5.2895,5.2895,5.2895,5.2895,5.2895,5.2895,5.2895,5.2895,5.2895,5.2895,5.2895,5.2895,5.2895,5.2485,5.1674,5.144,5.0912,4.9963,5.0867,5.171,5.2998,5.4427,5.563,5.6035,5.6808,5.7303,5.7303,5.7303,5.7303,5.7303,5.7303,5.7332,5.7419,5.7507,5.7884,5.8493,5.9132,5.9727,6.0148,6.0322,6.0061,5.9539,5.89,5.8218,5.7536,5.7303,5.7303,5.7303,5.7303,5.7303,5.7303,5.7303,5.7303,5.7303,5.7303,5.7303,5.7303,5.7303,5.7303,5.7303,5.7303,5.7303,5.7303,5.7303,5.7303,5.7303,5.7303,5.7303,5.7303,5.7303,5.7303,5.7303,5.7303,5.7303,5.7303,5.7303,5.7303,5.7303,5.7303,5.7303,5.6219,5.6219,5.6219,5.6219,5.6219,5.6219,5.6219,5.6219,5.6219,5.6219,5.6219,5.6194,5.5717,5.4981,5.4655,5.4102,5.3306,5.297,5.2895,5.2895,5.2895,5.2895,5.2895,5.2895,5.2895,5.2895,5.2895,5.2895,5.2895,5.2895,5.2895,5.2895,5.2895,5.2895,5.2895,5.2895,5.2895,5.2895,5.2895,5.2895,5.2895,5.2895,5.2895,5.2895,5.2895,5.2895,5.2895,5.2895,5.241,5.1674,5.1498,5.087,5.0371,5.1381,5.335,5.4679,5.5703,5.6251,5.6552,5.6907,5.7219,5.7303,5.7303,5.7303,5.7303,5.7303,5.7507,5.7681,5.7797,5.8058,5.8784,5.9437,5.9988,6.054,6.0438,6.0351,5.9742,5.9132,5.8348,5.7565,5.7303,5.7303,5.7303,5.7303,5.7303,5.7303,5.7303,5.7303,5.7303,5.7303,5.7303,5.7303,5.7303,5.7303,5.7303,5.7303,5.7303,5.7303,5.7303,5.7303,5.7303,5.7303,5.7303,5.7303,5.7303,5.7303,5.7303,5.7303,5.7303,5.7303,5.7303,5.7303,5.7303,5.7303,5.7303,5.6219,5.6219,5.6219,5.6219,5.6219,5.6219,5.6219,5.6219,5.6219,5.6219,5.6219,5.6219,5.5892,5.5257,5.4823,5.4253,5.3582,5.3121,5.2895,5.2895,5.2895,5.2895,5.2895,5.2895,5.2895,5.2895,5.2895,5.2895,5.2895,5.2895,5.2895,5.2895,5.2895,5.2895,5.2895,5.2895,5.2895,5.2895,5.2895,5.2895,5.2895,5.2895,5.2895,5.2895,5.2895,5.2895,5.2895,5.282,5.2661,5.2109,5.1574,5.0996,5.1623,5.2274,5.4497,5.5977,5.6666,5.668,5.6737,5.7021,5.7219,5.7303,5.7303,5.7419,5.7477,5.7361,5.7507,5.7942,5.8087,5.8668,5.9364,5.9771,6.0235,6.07,6.0816,6.0555,6.0032,5.9248,5.8319,5.7623,5.7303,5.7303,5.7303,5.7303,5.7303,5.7303,5.7303,5.7303,5.7303,5.7303,5.7303,5.7303,5.7303,5.7303,5.7303,5.7303,5.7303,5.7303,5.7303,5.7303,5.7303,5.7303,5.7303,5.7303,5.7303,5.7303,5.7303,5.7303,5.7303,5.7303,5.7303,5.7303,5.7303,5.7303,5.7303,5.6219,5.6219,5.6219,5.6219,5.6219,5.6219,5.6219,5.6219,5.6219,5.6219,5.6219,5.6168,5.5917,5.5433,5.4873,5.4278,5.3733,5.3213,5.2945,5.2895,5.2895,5.2895,5.2895,5.2895,5.2895,5.2895,5.2895,5.2895,5.2895,5.2895,5.2895,5.2895,5.2895,5.2895,5.2895,5.2895,5.2895,5.2895,5.2895,5.2895,5.2895,5.2895,5.2895,5.2895,5.2895,5.2895,5.2895,5.287,5.2586,5.2109,5.1574,5.1825,5.2755,5.3243,5.4248,5.5659,5.6865,5.6808,5.6666,5.6908,5.7247,5.7303,5.739,5.7652,5.771,5.7448,5.7565,5.8058,5.8581,5.9248,5.9858,6.0177,6.0349,6.0755,6.1059,6.0595,6.0175,5.9263,5.8247,5.7826,5.7448,5.7303,5.7303,5.7303,5.7303,5.7303,5.7303,5.7303,5.7303,5.7303,5.7303,5.7303,5.7303,5.7303,5.7303,5.7303,5.7303,5.7303,5.7303,5.7303,5.7303,5.7303,5.7303,5.7303,5.7303,5.7303,5.7303,5.7303,5.7303,5.7303,5.7303,5.7303,5.7303,5.7303,5.7303,5.6219,5.6219,5.6219,5.6219,5.6219,5.6219,5.6219,5.6219,5.6219,5.6219,5.6219,5.6194,5.6043,5.5591,5.4956,5.4496,5.3951,5.3239,5.297,5.2895,5.2895,5.2895,5.2895,5.2895,5.2895,5.2895,5.2895,5.2895,5.2895,5.2895,5.2895,5.2895,5.2895,5.2895,5.2895,5.2895,5.2895,5.2895,5.2895,5.2895,5.2895,5.2895,5.2895,5.2895,5.2895,5.2895,5.2895,5.2895,5.2719,5.226,5.1724,5.2401,5.3137,5.3567,5.4541,5.5905,5.685,5.7007,5.6666,5.6808,5.7361,5.739,5.7332,5.7565,5.7652,5.7565,5.8406,5.89,5.8871,5.9451,6.0322,6.0787,6.0186,6.0158,6.0034,5.9685,5.9446,5.9012,5.8408,5.8087,5.7681,5.7303,5.7303,5.7303,5.7303,5.7303,5.7303,5.7303,5.7303,5.7303,5.7303,5.7303,5.7303,5.7303,5.7303,5.7303,5.7303,5.7303,5.7303,5.7303,5.7303,5.7303,5.7303,5.7303,5.7303,5.7303,5.7303,5.7303,5.7303,5.7303,5.7303,5.7303,5.7303,5.7303,5.7303,5.6219,5.6219,5.6219,5.6219,5.6219,5.6219,5.6219,5.6219,5.6219,5.6219,5.6219,5.6219,5.6219,5.586,5.515,5.4798,5.4228,5.3339,5.2995,5.2895,5.2895,5.2895,5.2895,5.2895,5.2895,5.2895,5.2895,5.2895,5.2895,5.2895,5.2895,5.2895,5.2895,5.2895,5.2895,5.2895,5.2895,5.2895,5.2895,5.2895,5.2895,5.2895,5.2895,5.2895,5.2895,5.2895,5.2895,5.2895,5.2895,5.246,5.1984,5.2673,5.3377,5.3842,5.5175,5.6351,5.712,5.732,5.7321,5.7249,5.7507,5.7565,5.7405,5.7378,5.7509,5.7902,5.8769,5.9275,5.9275,5.98,6.0671,6.1,6.0305,5.9755,5.947,5.919,5.9083,5.8874,5.858,5.8277,5.7826,5.7377,5.7303,5.7303,5.7303,5.7303,5.7303,5.7303,5.7303,5.7303,5.7303,5.7303,5.7303,5.7303,5.7303,5.7303,5.7303,5.7303,5.7303,5.7303,5.7303,5.7303,5.7303,5.7303,5.7303,5.7303,5.7303,5.7303,5.7303,5.7303,5.7303,5.7303,5.7303,5.7303,5.7303,5.6219,5.6219,5.6219,5.6219,5.6219,5.6219,5.6219,5.6219,5.6219,5.6219,5.6219,5.6219,5.6219,5.6125,5.5082,5.4597,5.4403,5.3414,5.2995,5.2895,5.2895,5.2895,5.2895,5.2895,5.2895,5.2895,5.2895,5.2895,5.2895,5.2895,5.2895,5.2895,5.2895,5.2895,5.2895,5.2895,5.2895,5.2895,5.2895,5.2895,5.2895,5.2895,5.2895,5.2895,5.2895,5.2895,5.2895,5.2895,5.2895,5.2586,5.2136,5.2722,5.3458,5.4093,5.5182,5.6609,5.735,5.744,5.7484,5.731,5.7354,5.8162,5.7974,5.7542,5.7541,5.7302,5.8214,5.9142,5.9454,6.0247,6.0961,6.1106,6.0698,6.0364,6.0018,5.9718,5.9516,5.9063,5.8607,5.8191,5.7698,5.7437,5.7303,5.7303,5.7303,5.7303,5.7303,5.7303,5.7303,5.7303,5.7303,5.7303,5.7303,5.7303,5.7303,5.7303,5.7303,5.7303,5.7303,5.7303,5.7303,5.7303,5.7303,5.7303,5.7303,5.7303,5.7303,5.7303,5.7303,5.7303,5.7303,5.7303,5.7303,5.7303,5.7303]},{"header":{"parameterUnit":"m.s-1","parameterCategory":1,"la1":31.0,"la2":29.5877,"lo1":-88.7671,"lo2":-86.6584,"dx":0.0162,"dy":0.0185,"nx":115,"ny":88,"refTime":"2022-11-09T06:00:00:Z","depth":0,"parameterNumber":3,"parameterNumberName":"V-component_of_WINDS"},"data":[0.0,0.0,0.0,0.0,0.0,0.0,0.0,0.0,0.0,0.0,0.0,0.0,0.0,0.0,0.0,0.0,0.0,0.0,0.0,0.0,0.0,0.0,0.0,0.0,0.0,0.0,0.0,0.0,0.0,0.0,0.0,0.0,0.0,0.0,0.0,0.0,0.0,0.0,0.0,0.0,0.0,0.0,0.0,0.0,0.0,0.0,0.0,0.0,0.0,0.0,0.0,0.0,0.0,0.0,0.0,0.0,0.0,0.0,0.0,0.0,0.0,0.0,0.0,0.0,0.0,0.0,0.0,0.0,0.0,0.0,0.0,0.0,0.0,0.0,0.0,0.0,0.0,0.0,0.0,0.0,0.0,0.0,0.0,0.0,0.0,0.0,0.0,0.0,0.0,0.0,0.0,0.0,0.0,0.0,0.0,0.0,0.0,0.0,0.0,0.0,0.0,0.0,0.0,0.0,0.0,0.0,0.0,0.0,0.0,0.0,0.0,0.0,0.0,0.0,0.0,0.0,0.0,0.0,0.0,0.0,0.0,0.0,0.0,0.0,0.0,0.0,0.0,0.0,0.0,0.0,0.0,0.0,0.0,0.0,0.0,0.0,0.0,0.0,0.0,0.0,0.0,0.0,0.0,0.0,0.0,0.0,0.0,0.0,0.0,0.0,0.0,0.0,0.0,0.0,0.0,0.0,0.0,0.0,0.0,0.0,0.0,0.0,0.0,0.0,0.0,0.0,0.0,0.0,0.0,0.0,0.0,0.0,0.0,0.0,0.0,0.0,0.0,0.0,0.0,0.0,0.0,0.0,0.0,0.0,0.0,0.0,0.0,0.0,0.0,0.0,0.0,0.0,0.0,0.0,0.0,0.0,0.0,0.0,0.0,0.0,0.0,0.0,0.0,0.0,0.0,0.0,0.0,0.0,0.0,0.0,0.0,0.0,0.0,0.0,0.0,0.0,0.0,0.0,0.0,0.0,0.0,0.0,0.0,0.0,0.0,0.0,0.0,0.0,0.0,0.0,0.0,0.0,0.0,0.0,0.0,0.0,0.0,0.0,0.0,0.0,0.0,0.0,0.0,0.0,0.0,0.0,0.0,0.0,0.0,0.0,0.0,0.0,0.0,0.0,0.0,0.0,0.0,0.0,0.0,0.0,0.0,0.0,0.0,0.0,0.0,0.0,0.0,0.0,0.0,0.0,0.0,0.0,0.0,0.0,0.0,0.0,0.0,0.0,0.0,0.0,0.0,0.0,0.0,0.0,0.0,0.0,0.0,0.0,0.0,0.0,0.0,0.0,0.0,0.0,0.0,0.0,0.0,0.0,0.0,0.0,0.0,0.0,0.0,0.0,0.0,0.0,0.0,0.0,0.0,0.0,0.0,0.0,0.0,0.0,0.0,0.0,0.0,0.0,0.0,0.0,0.0,0.0,0.0,0.0,0.0,0.0,0.0,0.0,0.0,0.0,0.0,0.0,0.0,0.0,0.0,0.0,0.0,0.0,0.0,0.0,0.0,0.0,0.0,0.0,0.0,0.0,0.0,0.0,0.0,0.0,0.0,0.0,0.0,0.0,0.0,0.0,0.0,0.0,0.0,0.0,0.0,0.0,0.0,0.0,0.0,0.0,0.0,0.0,0.0,0.0,0.0,0.0,0.0,0.0,0.0,0.0,0.0,0.0,0.0,0.0,0.0,0.0,0.0,0.0,0.0,0.0,0.0,0.0,0.0,0.0,0.0,0.0,0.0,0.0,0.0,0.0,0.0,0.0,0.0,0.0,0.0,0.0,0.0,0.0,0.0,0.0,0.0,0.0,0.0,0.0,0.0,0.0,0.0,0.0,0.0,0.0,0.0,0.0,0.0,0.0,0.0,0.0,0.0,0.0,0.0,0.0,0.0,0.0,0.0,0.0,0.0,0.0,0.0,0.0,0.0,0.0,0.0,0.0,0.0,0.0,0.0,0.0,0.0,0.0,0.0,0.0,0.0,0.0,0.0,0.0,0.0,0.0,0.0,0.0,0.0,0.0,0.0,0.0,0.0,0.0,0.0,0.0,0.0,0.0,0.0,0.0,0.0,0.0,0.0,0.0,0.0,0.0,0.0,0.0,0.0,0.0,0.0,0.0,0.0,0.0,0.0,0.0,0.0,0.0,0.0,0.0,0.0,0.0,0.0,0.0,0.0,0.0,0.0,0.0,0.0,0.0,0.0,0.0,0.0,0.0,0.0,0.0,0.0,0.0,0.0,0.0,0.0,0.0,0.0,0.0,0.0,0.0,0.0,0.0,0.0,0.0,0.0,0.0,0.0,0.0,0.0,0.0,0.0,0.0,0.0,0.0,0.0,0.0,0.0,0.0,0.0,0.0,0.0,0.0,0.0,0.0,0.0,0.0,0.0,0.0,0.0,0.0,0.0,0.0,0.0,0.0,0.0,0.0,0.0,0.0,0.0,0.0,0.0,0.0,0.0,0.0,0.0,0.0,0.0,0.0,0.0,0.0,0.0,0.0,0.0,0.0,0.0,0.0,0.0,0.0,0.0,0.0,0.0,0.0,0.0,0.0,0.0,0.0,0.0,0.0,0.0,0.0,0.0,0.0,0.0,0.0,0.0,0.0,0.0,0.0,0.0,0.0,0.0,0.0,0.0,0.0,0.0,0.0,0.0,0.0,0.0,0.0,0.0,0.0,0.0,0.0,0.0,0.0,0.0,0.0,0.0,0.0,0.0,0.0,0.0,0.0,0.0,0.0,0.0,0.0,0.0,0.0,0.0,0.0,0.0,0.0,0.0,0.0,0.0,0.0,0.0,0.0,0.0,0.0,0.0,0.0,0.0,0.0,0.0,0.0,0.0,0.0,0.0,0.0,0.0,0.0,0.0,0.0,0.0,0.0,0.0,0.0,0.0,0.0,0.0,0.0,0.0,0.0,0.0,0.0,0.0,0.0,0.0,0.0,0.0,0.0,0.0,0.0,0.0,0.0,0.0,0.0,0.0,0.0,0.0,0.0,0.0,0.0,0.0,0.0,0.0,0.0,0.0,0.0,0.0,0.0,0.0,0.0,0.0,0.0,0.0,0.0,0.0,0.0,0.0,0.0,0.0,0.0,0.0,0.0,0.0,0.0,0.0,0.0,0.0,0.0,0.0,0.0,0.0,0.0,0.0,0.0,0.0,0.0,0.0,0.0,0.0,0.0,0.0,0.0,0.0,0.0,0.0,0.0,0.0,0.0,0.0,0.0,0.0,0.0,0.0,0.0,0.0,0.0,0.0,0.0,0.0,0.0,0.0,0.0,0.0,0.0,0.0,0.0,0.0,0.0,0.0,0.0,0.0,0.0,0.0,0.0,0.0,0.0,0.0,0.0,0.0,0.0,0.0,0.0,0.0,0.0,0.0,0.0,0.0,0.0,0.0,0.0,0.0,0.0,0.0,0.0,0.0,0.0,0.0,0.0,0.0,0.0,0.0,0.0,0.0,0.0,0.0,0.0,0.0,0.0,0.0,0.0,0.0,0.0,0.0,0.0,0.0,0.0,0.0,0.0,0.0,0.0,0.0,0.0,0.0,0.0,0.0,0.0,0.0,0.0,0.0,0.0,0.0,0.0,0.0,0.0,0.0,0.0,0.0,0.0,0.0,0.0,0.0,0.0,0.0,0.0,0.0,0.0,0.0,0.0,0.0,0.0,0.0,0.0,0.0,0.0,0.0,0.0,0.0,0.0,0.0,0.0,0.0,0.0,0.0,0.0,0.0,0.0,0.0,0.0,0.0,0.0,0.0,0.0,0.0,0.0,0.0,0.0,0.0,0.0,0.0,0.0,0.0,0.0,0.0,0.0,0.0,0.0,0.0,0.0,0.0,0.0,0.0,0.0,0.0,0.0,0.0,0.0,0.0,0.0,0.0,0.0,0.0,0.0,0.0,0.0,0.0,0.0,0.0,0.0,0.0,0.0,0.0,0.0,0.0,0.0,0.0,0.0,0.0,0.0,0.0,0.0,0.0,0.0,0.0,0.0,0.0,0.0,0.0,0.0,0.0,0.0,0.0,0.0,0.0,0.0,0.0,0.0,0.0,0.0,0.0,0.0,0.0,0.0,0.0,0.0,0.0,0.0,0.0,0.0,0.0,0.0,0.0,0.0,0.0,0.0,0.0,0.0,0.0,0.0,0.0,0.0,0.0,0.0,0.0,0.0,0.0,0.0,0.0,0.0,0.0,0.0,0.0,0.0,0.0,0.0,0.0,0.0,0.0,0.0,0.0,0.0,0.0,0.0,0.0,0.0,1.6201,0.0,0.0,0.0,1.4847,0.0,0.0,0.0,0.0,0.0,0.0,0.0,0.0,0.0,0.0,0.0,0.0,0.0,0.0,0.0,0.0,0.0,0.0,0.0,0.0,0.0,0.0,0.0,0.0,0.0,0.0,0.0,0.0,0.0,0.0,0.0,0.0,0.0,0.0,0.0,0.0,0.0,0.0,0.0,0.0,0.0,0.0,0.0,0.0,0.0,0.0,0.0,0.0,0.0,0.0,0.0,0.0,0.0,0.0,0.0,0.0,0.0,0.0,0.0,0.0,0.0,0.0,0.0,0.0,0.0,0.0,0.0,0.0,0.0,0.0,0.0,0.0,0.0,0.0,0.0,0.0,0.0,0.0,0.0,0.0,0.0,0.0,0.0,0.0,0.0,0.0,0.0,0.0,0.0,0.0,0.0,0.0,0.0,0.0,0.0,0.0,0.0,0.0,0.0,0.0,0.0,0.0,0.0,0.0,0.0,0.0,0.0,0.0,0.0,0.0,1.6041,1.6657,1.5714,1.5085,1.493,0.0,0.0,0.0,0.0,0.0,0.0,0.0,0.0,0.0,0.0,0.0,0.0,0.0,0.0,0.0,0.0,0.0,0.0,0.0,0.0,0.0,0.0,0.0,0.0,0.0,0.0,0.0,0.0,0.0,0.0,0.0,0.0,0.0,0.0,0.0,0.0,0.0,0.0,0.0,0.0,0.0,0.0,0.0,0.0,0.0,0.0,0.0,0.0,0.0,0.0,0.0,0.0,0.0,0.0,0.0,0.0,0.0,0.0,0.0,0.0,0.0,0.0,0.0,0.0,0.0,0.0,0.0,0.0,0.0,0.0,0.0,0.0,0.0,0.0,0.0,0.0,0.0,0.0,0.0,0.0,0.0,0.0,0.0,0.0,0.0,0.0,0.0,0.0,0.0,0.0,0.0,0.0,0.0,0.0,0.0,0.0,0.0,0.0,0.0,0.0,0.0,0.0,0.0,0.0,0.0,0.0,0.0,0.0,0.0,0.0,0.0,0.0,1.6139,1.557,1.5347,0.0,0.0,0.0,0.0,0.0,0.0,0.0,0.0,0.0,0.0,0.0,0.0,0.0,0.0,0.0,0.0,0.0,0.0,0.0,0.0,0.0,0.0,0.0,0.0,0.0,0.0,0.0,0.0,0.0,0.0,0.0,0.0,0.0,0.0,0.0,0.0,0.0,0.0,0.0,0.0,0.0,0.0,0.0,0.0,0.0,0.0,0.0,0.0,0.0,0.0,0.0,0.0,0.0,0.0,0.0,0.0,0.0,0.0,0.0,0.0,0.0,0.0,0.0,0.0,0.0,0.0,0.0,0.0,0.0,0.0,0.0,0.0,0.0,0.0,0.0,0.0,0.0,0.0,0.0,0.0,0.0,0.0,0.0,0.0,0.0,0.0,0.0,0.0,0.0,0.0,0.0,0.0,0.0,0.0,0.0,0.0,0.0,0.0,0.0,0.0,0.0,0.0,0.0,0.0,0.0,0.0,0.0,0.0,0.0,0.0,1.7421,1.7856,1.7025,0.0,1.6625,0.0,0.0,0.0,0.0,0.0,0.0,0.0,0.0,0.0,0.0,0.0,0.0,0.0,0.0,0.0,0.0,0.0,0.0,0.0,0.0,0.0,0.0,0.0,0.0,0.0,0.0,0.0,0.0,0.0,0.0,0.0,0.0,0.0,0.0,0.0,0.0,0.0,0.0,0.0,0.0,0.0,0.0,0.0,0.0,0.0,0.0,0.0,0.0,0.0,0.0,0.0,0.0,0.0,0.0,0.0,0.0,0.0,0.0,0.0,0.0,0.0,0.0,0.0,0.0,0.0,0.0,0.0,0.0,0.0,0.0,0.0,0.0,0.0,0.0,0.0,0.0,0.0,0.0,0.0,0.0,0.0,0.0,0.0,0.0,0.0,0.0,0.0,0.0,0.0,0.0,0.0,0.0,0.0,0.0,0.0,0.0,0.0,0.0,0.0,0.0,0.0,0.0,0.0,0.0,0.0,0.0,0.0,0.0,0.0,0.0,1.7056,1.7212,1.6893,1.6744,0.0,0.0,0.0,0.0,0.0,0.0,0.0,0.0,0.0,0.0,0.0,0.0,0.0,0.0,0.0,0.0,0.0,0.0,0.0,0.0,0.0,0.0,0.0,0.0,0.0,0.0,0.0,0.0,0.0,0.0,0.0,0.0,0.0,0.0,0.0,0.0,0.0,0.0,0.0,0.0,0.0,0.0,0.0,0.0,0.0,0.0,0.0,0.0,0.0,0.0,0.0,0.0,0.0,0.0,0.0,0.0,0.0,0.0,0.0,0.0,0.0,0.0,0.0,0.0,0.0,0.0,0.0,0.0,0.0,0.0,0.0,0.0,0.0,0.0,0.0,0.0,0.0,0.0,0.0,0.0,0.0,0.0,0.0,0.0,0.0,0.0,0.0,0.0,0.0,0.0,0.0,0.0,0.0,0.0,0.0,0.0,0.0,0.0,0.0,0.0,0.0,0.0,0.0,0.0,0.0,0.0,0.0,0.0,0.0,0.0,1.7502,1.6944,1.6739,1.7178,1.7374,1.7293,0.0,0.0,0.0,0.0,0.0,0.0,0.0,0.0,0.0,0.0,0.0,0.0,0.0,0.0,0.0,0.0,0.0,0.0,0.0,0.0,0.0,0.0,0.0,0.0,0.0,0.0,0.0,0.0,0.0,0.0,0.0,0.0,0.0,0.0,0.0,0.0,0.0,0.0,0.0,0.0,0.0,0.0,0.0,0.0,0.0,0.0,0.0,0.0,0.0,0.0,0.0,0.0,0.0,0.0,0.0,0.0,0.0,0.0,0.0,0.0,0.0,0.0,0.0,0.0,0.0,0.0,0.0,0.0,0.0,0.0,0.0,0.0,0.0,0.0,0.0,0.0,0.0,0.0,0.0,0.0,0.0,0.0,0.0,0.0,0.0,0.0,0.0,0.0,0.0,0.0,0.0,0.0,0.0,0.0,0.0,0.0,0.0,0.0,0.0,0.0,0.0,0.0,0.0,0.0,0.0,0.0,0.0,0.0,1.9243,1.8359,1.7523,1.676,1.8308,1.8788,0.0,0.0,0.0,0.0,0.0,0.0,0.0,0.0,0.0,0.0,0.0,0.0,0.0,0.0,0.0,0.0,0.0,0.0,0.0,0.0,0.0,0.0,0.0,0.0,0.0,0.0,0.0,0.0,0.0,0.0,0.0,0.0,0.0,0.0,0.0,0.0,0.0,0.0,0.0,0.0,0.0,0.0,0.0,0.0,0.0,0.0,0.0,0.0,0.0,0.0,0.0,0.0,0.0,0.0,0.0,0.0,0.0,0.0,0.0,0.0,0.0,0.0,0.0,0.0,0.0,0.0,0.0,0.0,0.0,0.0,0.0,0.0,0.0,0.0,0.0,0.0,0.0,0.0,0.0,0.0,0.0,0.0,0.0,0.0,0.0,0.0,0.0,0.0,0.0,0.0,0.0,0.0,0.0,0.0,0.0,0.0,0.0,0.0,0.0,0.0,0.0,0.0,0.0,0.0,0.0,0.0,0.0,0.0,0.0,1.946,1.7987,1.7035,1.675,1.7987,1.8838,0.0,0.0,0.0,0.0,0.0,0.0,0.0,0.0,0.0,0.0,0.0,0.0,0.0,0.0,0.0,0.0,0.0,0.0,0.0,0.0,0.0,0.0,0.0,0.0,0.0,0.0,0.0,0.0,0.0,0.0,0.0,0.0,0.0,0.0,0.0,0.0,0.0,0.0,0.0,0.0,0.0,0.0,0.0,0.0,0.0,0.0,0.0,0.0,0.0,0.0,0.0,0.0,0.0,0.0,0.0,0.0,0.0,0.0,0.0,0.0,0.0,0.0,0.0,0.0,0.0,0.0,0.0,0.0,0.0,0.0,0.0,0.0,0.0,0.0,0.0,0.0,0.0,0.0,0.0,0.0,0.0,0.0,0.0,0.0,0.0,0.0,0.0,0.0,0.0,0.0,0.0,0.0,0.0,0.0,0.0,0.0,0.0,0.0,0.0,0.0,0.0,0.0,0.0,0.0,0.0,0.0,0.0,0.0,0.0,1.9588,1.804,1.7229,1.7243,1.7839,1.87,0.0,0.0,0.0,0.0,0.0,0.0,0.0,0.0,0.0,0.0,0.0,0.0,0.0,0.0,0.0,0.0,0.0,0.0,0.0,0.0,0.0,0.0,0.0,0.0,0.0,0.0,0.0,0.0,0.0,0.0,0.0,0.0,0.0,0.0,0.0,0.0,0.0,0.0,0.0,0.0,0.0,0.0,0.0,0.0,0.0,0.0,0.0,0.0,0.0,0.0,0.0,0.0,0.0,0.0,0.0,0.0,0.0,0.0,0.0,0.0,0.0,0.0,0.0,0.0,0.0,0.0,0.0,0.0,0.0,0.0,0.0,0.0,0.0,0.0,0.0,0.0,0.0,0.0,0.0,0.0,0.0,0.0,0.0,0.0,0.0,0.0,0.0,0.0,0.0,0.0,0.0,0.0,0.0,0.0,0.0,0.0,0.0,0.0,0.0,0.0,0.0,0.0,0.0,0.0,0.0,0.0,0.0,0.0,2.1144,1.9617,1.873,1.8281,1.8291,1.8141,1.8579,0.0,0.0,0.0,0.0,0.0,0.0,0.0,0.0,0.0,0.0,0.0,0.0,0.0,0.0,0.0,0.0,0.0,0.0,0.0,0.0,0.0,0.0,0.0,0.0,0.0,0.0,0.0,0.0,0.0,0.0,0.0,0.0,0.0,0.0,0.0,0.0,0.0,0.0,0.0,0.0,0.0,0.0,0.0,0.0,0.0,0.0,0.0,0.0,0.0,0.0,0.0,0.0,0.0,0.0,0.0,0.0,0.0,0.0,0.0,0.0,0.0,0.0,0.0,0.0,0.0,0.0,0.0,0.0,0.0,0.0,0.0,0.0,0.0,0.0,0.0,0.0,0.0,0.0,0.0,0.0,0.0,0.0,0.0,0.0,0.0,0.0,0.0,0.0,0.0,0.0,0.0,0.0,0.0,0.0,0.0,0.0,0.0,0.0,0.0,0.0,0.0,0.0,0.0,0.0,0.0,0.0,0.0,0.0,0.0,1.8593,1.9111,1.9058,1.8371,1.9097,1.9972,0.0,0.0,0.0,0.0,0.0,0.0,0.0,0.0,0.0,0.0,0.0,0.0,0.0,0.0,0.0,0.0,0.0,0.0,0.0,0.0,0.0,0.0,0.0,0.0,0.0,0.0,0.0,0.0,0.0,0.0,0.0,0.0,0.0,0.0,0.0,0.0,0.0,0.0,0.0,0.0,0.0,0.0,0.0,0.0,0.0,0.0,0.0,0.0,0.0,0.0,0.0,0.0,0.0,0.0,0.0,0.0,0.0,0.0,0.0,0.0,0.0,0.0,0.0,0.0,0.0,0.0,0.0,0.0,0.0,0.0,0.0,0.0,0.0,0.0,0.0,0.0,0.0,0.0,0.0,0.0,0.0,0.0,0.0,0.0,0.0,0.0,0.0,0.0,0.0,0.0,0.0,0.0,0.0,0.0,0.0,0.0,0.0,0.0,0.0,0.0,0.0,0.0,0.0,0.0,0.0,0.0,0.0,0.0,0.0,1.9841,2.0216,2.0143,1.9392,1.9786,2.0459,2.1464,0.0,0.0,0.0,0.0,0.0,0.0,0.0,0.0,0.0,0.0,0.0,0.0,0.0,0.0,0.0,0.0,0.0,0.0,0.0,0.0,0.0,0.0,0.0,0.0,0.0,0.0,0.0,0.0,0.0,0.0,0.0,0.0,0.0,0.0,0.0,0.0,0.0,0.0,0.0,0.0,0.0,0.0,0.0,0.0,0.0,0.0,0.0,0.0,0.0,0.0,0.0,0.0,0.0,0.0,0.0,0.0,0.0,0.0,0.0,0.0,0.0,0.0,0.0,0.0,0.0,0.0,0.0,0.0,0.0,0.0,0.0,0.0,0.0,0.0,0.0,0.0,0.0,0.0,0.0,0.0,0.0,0.0,0.0,0.0,0.0,0.0,0.0,0.0,0.0,0.0,0.0,0.0,0.0,0.0,0.0,0.0,0.0,0.0,0.0,0.0,0.0,0.0,0.0,0.0,0.0,0.0,0.0,0.0,2.2711,2.1966,2.1461,2.1189,2.0283,2.0333,0.0,0.0,0.0,0.0,0.0,0.0,0.0,0.0,0.0,0.0,0.0,0.0,0.0,0.0,0.0,0.0,0.0,0.0,0.0,0.0,0.0,0.0,0.0,0.0,0.0,0.0,0.0,0.0,0.0,0.0,0.0,0.0,0.0,0.0,0.0,0.0,0.0,0.0,0.0,0.0,0.0,0.0,0.0,0.0,0.0,0.0,0.0,0.0,0.0,0.0,0.0,0.0,0.0,0.0,0.0,0.0,0.0,0.0,0.0,0.0,0.0,0.0,0.0,0.0,0.0,0.0,0.0,0.0,0.0,0.0,0.0,0.0,0.0,0.0,0.0,0.0,0.0,0.0,0.0,0.0,0.0,0.0,0.0,0.0,0.0,0.0,0.0,0.0,0.0,0.0,0.0,0.0,0.0,0.0,0.0,0.0,0.0,0.0,0.0,0.0,0.0,0.0,0.0,0.0,0.0,0.0,0.0,0.0,0.0,2.3769,2.3114,2.2356,2.1544,2.164,2.1904,0.0,0.0,0.0,0.0,0.0,0.0,0.0,0.0,0.0,0.0,0.0,0.0,0.0,0.0,0.0,0.0,0.0,0.0,0.0,0.0,0.0,0.0,0.0,0.0,0.0,0.0,0.0,0.0,0.0,0.0,0.0,0.0,0.0,0.0,0.0,0.0,0.0,0.0,0.0,0.0,0.0,0.0,0.0,0.0,0.0,0.0,0.0,0.0,0.0,0.0,0.0,0.0,0.0,0.0,0.0,0.0,0.0,0.0,0.0,0.0,0.0,0.0,0.0,0.0,0.0,0.0,0.0,0.0,0.0,0.0,0.0,0.0,0.0,0.0,0.0,0.0,0.0,0.0,0.0,0.0,0.0,0.0,0.0,0.0,0.0,0.0,0.0,0.0,0.0,0.0,0.0,0.0,0.0,0.0,0.0,0.0,0.0,0.0,0.0,0.0,0.0,0.0,0.0,0.0,0.0,0.0,0.0,0.0,2.4623,2.4603,2.4238,2.3647,2.2846,2.2869,2.2804,0.0,0.0,0.0,0.0,0.0,0.0,0.0,0.0,0.0,0.0,0.0,0.0,0.0,0.0,0.0,0.0,0.0,0.0,0.0,0.0,0.0,0.0,0.0,0.0,0.0,0.0,0.0,0.0,0.0,0.0,0.0,0.0,0.0,0.0,0.0,0.0,0.0,0.0,0.0,0.0,0.0,0.0,0.0,0.0,0.0,0.0,0.0,0.0,0.0,0.0,0.0,0.0,0.0,0.0,0.0,0.0,0.0,0.0,0.0,0.0,0.0,0.0,0.0,0.0,0.0,0.0,0.0,0.0,0.0,0.0,0.0,0.0,0.0,0.0,0.0,0.0,0.0,0.0,0.0,0.0,0.0,0.0,0.0,0.0,0.0,0.0,0.0,0.0,0.0,0.0,0.0,0.0,0.0,0.0,0.0,0.0,0.0,0.0,0.0,0.0,0.0,0.0,0.0,0.0,0.0,0.0,0.0,0.0,2.5232,2.5273,2.5179,2.4952,2.4569,2.3894,2.3268,0.0,0.0,0.0,0.0,0.0,0.0,0.0,0.0,0.0,0.0,0.0,0.0,0.0,0.0,0.0,0.0,0.0,0.0,0.0,0.0,0.0,0.0,0.0,0.0,0.0,0.0,0.0,0.0,0.0,0.0,0.0,0.0,0.0,0.0,0.0,0.0,0.0,0.0,0.0,0.0,0.0,0.0,0.0,0.0,0.0,0.0,0.0,0.0,0.0,0.0,0.0,0.0,0.0,0.0,0.0,0.0,0.0,0.0,0.0,0.0,0.0,0.0,0.0,0.0,0.0,0.0,0.0,0.0,0.0,0.0,0.0,0.0,0.0,0.0,0.0,0.0,0.0,0.0,0.0,0.0,0.0,0.0,0.0,0.0,0.0,0.0,0.0,0.0,0.0,0.0,0.0,0.0,0.0,0.0,0.0,0.0,0.0,0.0,0.0,0.0,0.0,0.0,0.0,0.0,0.0,0.0,0.0,0.0,2.5377,2.5741,2.5025,2.4787,2.5024,2.4249,2.3743,0.0,0.0,0.0,0.0,0.0,0.0,0.0,0.0,0.0,0.0,0.0,0.0,0.0,0.0,0.0,0.0,0.0,0.0,0.0,0.0,0.0,0.0,0.0,0.0,0.0,0.0,0.0,0.0,0.0,0.0,0.0,0.0,0.0,0.0,0.0,0.0,0.0,0.0,0.0,0.0,0.0,0.0,0.0,0.0,0.0,0.0,0.0,0.0,2.2315,0.0,0.0,0.0,0.0,0.0,0.0,0.0,0.0,0.0,0.0,0.0,0.0,0.0,0.0,0.0,0.0,0.0,0.0,0.0,0.0,0.0,0.0,0.0,0.0,0.0,0.0,0.0,0.0,0.0,0.0,0.0,0.0,0.0,0.0,0.0,0.0,0.0,0.0,0.0,0.0,0.0,0.0,0.0,0.0,0.0,0.0,0.0,0.0,0.0,0.0,0.0,0.0,0.0,0.0,0.0,0.0,0.0,0.0,0.0,2.5533,2.5564,2.5305,2.517,2.519,2.4964,2.4551,0.0,0.0,0.0,0.0,0.0,0.0,0.0,0.0,0.0,0.0,0.0,0.0,0.0,0.0,0.0,0.0,0.0,0.0,0.0,0.0,0.0,0.0,0.0,0.0,0.0,0.0,0.0,0.0,0.0,0.0,0.0,0.0,0.0,0.0,0.0,0.0,0.0,0.0,0.0,0.0,0.0,0.0,0.0,0.0,0.0,0.0,0.0,0.0,0.0,0.0,0.0,0.0,0.0,0.0,0.0,0.0,0.0,0.0,0.0,0.0,0.0,0.0,0.0,0.0,0.0,0.0,0.0,0.0,0.0,0.0,0.0,0.0,0.0,0.0,0.0,0.0,0.0,0.0,0.0,0.0,0.0,0.0,0.0,0.0,0.0,0.0,0.0,0.0,0.0,0.0,0.0,0.0,0.0,0.0,0.0,0.0,0.0,0.0,0.0,0.0,0.0,0.0,0.0,0.0,0.0,0.0,0.0,2.5834,2.5886,2.545,2.573,2.5752,2.5429,2.5741,2.5368,2.4261,0.0,0.0,0.0,0.0,0.0,0.0,0.0,0.0,0.0,0.0,0.0,0.0,0.0,0.0,0.0,0.0,0.0,0.0,0.0,0.0,0.0,0.0,0.0,0.0,0.0,0.0,0.0,0.0,0.0,0.0,0.0,0.0,0.0,0.0,0.0,0.0,0.0,0.0,2.2375,2.3404,0.0,0.0,0.0,0.0,0.0,0.0,0.0,0.0,2.2842,0.0,0.0,0.0,0.0,0.0,0.0,0.0,0.0,0.0,0.0,0.0,0.0,0.0,0.0,0.0,0.0,0.0,0.0,0.0,0.0,0.0,0.0,0.0,0.0,0.0,0.0,0.0,0.0,0.0,0.0,0.0,0.0,0.0,0.0,0.0,0.0,0.0,0.0,0.0,0.0,0.0,0.0,0.0,0.0,0.0,0.0,0.0,0.0,0.0,0.0,0.0,0.0,0.0,0.0,0.0,0.0,2.5803,2.6611,2.6841,2.6395,2.6063,2.6031,2.6342,2.6052,2.5794,2.5555,0.0,0.0,0.0,0.0,0.0,0.0,0.0,0.0,0.0,0.0,0.0,0.0,0.0,0.0,0.0,0.0,0.0,0.0,0.0,0.0,0.0,0.0,0.0,0.0,0.0,0.0,0.0,0.0,0.0,0.0,0.0,0.0,0.0,0.0,0.0,0.0,0.0,0.0,0.0,2.5342,2.5895,0.0,0.0,0.0,0.0,0.0,0.0,0.0,0.0,2.4182,0.0,0.0,0.0,0.0,0.0,0.0,0.0,0.0,0.0,0.0,0.0,0.0,0.0,0.0,0.0,0.0,0.0,0.0,0.0,0.0,0.0,0.0,0.0,0.0,0.0,0.0,0.0,0.0,0.0,0.0,0.0,0.0,0.0,0.0,0.0,0.0,0.0,0.0,0.0,0.0,0.0,0.0,0.0,0.0,0.0,0.0,0.0,0.0,0.0,0.0,0.0,0.0,0.0,0.0,0.0,2.6655,2.7274,2.741,2.6966,2.651,2.6365,2.6581,2.6602,2.6498,0.0,0.0,0.0,0.0,0.0,0.0,0.0,0.0,0.0,0.0,0.0,0.0,0.0,0.0,0.0,0.0,0.0,0.0,0.0,0.0,0.0,0.0,0.0,0.0,0.0,0.0,0.0,0.0,0.0,0.0,0.0,0.0,0.0,0.0,0.0,0.0,0.0,0.0,0.0,0.0,2.6647,2.7166,2.8081,0.0,0.0,0.0,0.0,0.0,0.0,2.4965,2.4327,0.0,0.0,0.0,0.0,0.0,0.0,0.0,0.0,0.0,0.0,0.0,0.0,0.0,0.0,0.0,0.0,0.0,0.0,0.0,0.0,0.0,0.0,0.0,0.0,0.0,0.0,0.0,0.0,0.0,0.0,0.0,0.0,0.0,0.0,0.0,0.0,0.0,0.0,0.0,0.0,0.0,0.0,0.0,0.0,0.0,0.0,0.0,0.0,0.0,0.0,0.0,0.0,0.0,0.0,0.0,2.7422,2.7841,2.7841,2.7431,2.6975,2.6726,2.6759,2.7182,2.7203,0.0,0.0,0.0,0.0,0.0,0.0,0.0,0.0,0.0,0.0,0.0,0.0,0.0,0.0,0.0,0.0,0.0,0.0,0.0,0.0,0.0,0.0,0.0,0.0,0.0,0.0,0.0,0.0,0.0,0.0,0.0,0.0,0.0,0.0,0.0,0.0,0.0,0.0,0.0,0.0,0.0,2.868,2.9094,2.9381,0.0,0.0,0.0,0.0,2.7334,2.6144,0.0,0.0,0.0,0.0,0.0,0.0,0.0,0.0,0.0,0.0,0.0,0.0,0.0,0.0,0.0,0.0,0.0,0.0,0.0,0.0,0.0,0.0,0.0,0.0,0.0,0.0,0.0,0.0,0.0,0.0,0.0,0.0,0.0,0.0,0.0,0.0,0.0,0.0,0.0,0.0,0.0,0.0,0.0,0.0,0.0,0.0,0.0,0.0,0.0,0.0,0.0,0.0,0.0,0.0,0.0,0.0,2.7829,2.8284,2.8305,2.785,2.7419,2.7226,2.7215,2.7614,2.7634,0.0,0.0,0.0,0.0,0.0,0.0,0.0,0.0,0.0,0.0,0.0,0.0,0.0,0.0,0.0,0.0,0.0,0.0,0.0,0.0,0.0,0.0,0.0,0.0,0.0,0.0,0.0,0.0,0.0,0.0,0.0,0.0,0.0,0.0,0.0,0.0,0.0,0.0,0.0,0.0,0.0,3.1013,3.1074,3.0426,2.9875,0.0,0.0,2.959,2.97,2.9532,0.0,0.0,0.0,0.0,0.0,0.0,0.0,0.0,0.0,0.0,0.0,0.0,0.0,0.0,0.0,0.0,0.0,0.0,0.0,0.0,0.0,0.0,0.0,0.0,0.0,0.0,0.0,0.0,0.0,0.0,0.0,0.0,0.0,0.0,0.0,0.0,0.0,0.0,0.0,0.0,0.0,0.0,0.0,0.0,0.0,0.0,0.0,0.0,0.0,0.0,0.0,0.0,0.0,0.0,0.0,2.8021,2.7936,2.8935,2.8935,2.7924,2.7513,2.7422,2.7646,2.7584,2.7584,0.0,0.0,0.0,0.0,0.0,0.0,0.0,0.0,0.0,0.0,0.0,0.0,0.0,0.0,0.0,0.0,0.0,0.0,0.0,0.0,0.0,0.0,0.0,0.0,0.0,0.0,0.0,0.0,0.0,0.0,0.0,0.0,0.0,0.0,0.0,0.0,0.0,0.0,0.0,0.0,0.0,0.0,3.1788,3.1779,0.0,0.0,0.0,3.0906,3.0962,0.0,0.0,0.0,0.0,0.0,0.0,0.0,0.0,0.0,0.0,0.0,0.0,0.0,0.0,0.0,0.0,0.0,0.0,0.0,0.0,0.0,0.0,0.0,0.0,0.0,0.0,0.0,0.0,0.0,0.0,0.0,0.0,0.0,0.0,0.0,0.0,0.0,0.0,0.0,0.0,0.0,0.0,0.0,0.0,0.0,0.0,0.0,0.0,0.0,0.0,0.0,0.0,0.0,0.0,0.0,0.0,0.0,2.8325,2.9357,2.9259,2.7961,2.772,2.7851,2.8271,2.8349,0.0,0.0,0.0,0.0,0.0,0.0,0.0,0.0,0.0,0.0,0.0,0.0,0.0,0.0,0.0,0.0,0.0,0.0,0.0,0.0,0.0,0.0,0.0,0.0,0.0,0.0,0.0,2.665,0.0,0.0,0.0,0.0,0.0,0.0,0.0,0.0,0.0,0.0,0.0,0.0,0.0,0.0,3.1537,3.2315,3.2589,3.281,0.0,0.0,3.168,3.1933,3.1091,3.0443,0.0,0.0,0.0,0.0,0.0,0.0,0.0,0.0,0.0,0.0,0.0,0.0,0.0,0.0,0.0,0.0,0.0,0.0,0.0,0.0,0.0,0.0,0.0,0.0,0.0,0.0,0.0,0.0,0.0,0.0,0.0,0.0,0.0,0.0,0.0,0.0,0.0,0.0,0.0,0.0,0.0,0.0,0.0,0.0,0.0,0.0,0.0,0.0,0.0,0.0,0.0,0.0,0.0,0.0,0.0,2.9371,2.9405,2.8986,2.7964,2.8374,2.8849,2.9387,3.069,3.0748,0.0,0.0,0.0,0.0,0.0,0.0,0.0,0.0,0.0,0.0,0.0,0.0,0.0,0.0,0.0,0.0,0.0,0.0,0.0,0.0,0.0,0.0,0.0,0.0,0.0,0.0,0.0,0.0,0.0,0.0,0.0,0.0,0.0,0.0,0.0,0.0,0.0,0.0,0.0,0.0,0.0,3.2953,3.304,3.2272,3.2045,0.0,0.0,3.1911,3.2864,3.2914,3.2565,3.1658,0.0,0.0,0.0,0.0,0.0,0.0,0.0,0.0,0.0,0.0,0.0,0.0,0.0,0.0,0.0,0.0,0.0,0.0,0.0,0.0,0.0,0.0,0.0,0.0,0.0,0.0,0.0,0.0,0.0,0.0,0.0,0.0,0.0,0.0,0.0,0.0,0.0,0.0,0.0,0.0,0.0,0.0,0.0,0.0,0.0,0.0,0.0,0.0,0.0,0.0,0.0,0.0,0.0,3.2416,3.0924,3.1816,3.1488,2.9908,3.0012,3.0358,3.0854,3.1131,3.1292,0.0,0.0,0.0,0.0,0.0,0.0,0.0,0.0,0.0,0.0,0.0,0.0,0.0,0.0,0.0,0.0,0.0,0.0,0.0,0.0,0.0,0.0,0.0,0.0,0.0,0.0,0.0,0.0,2.8163,2.8355,2.858,0.0,0.0,0.0,0.0,0.0,0.0,0.0,0.0,0.0,0.0,3.3341,3.3997,3.375,0.0,0.0,3.3762,3.3639,3.4006,3.4098,3.394,3.3572,3.3828,0.0,0.0,0.0,0.0,0.0,0.0,0.0,0.0,0.0,0.0,0.0,0.0,0.0,0.0,0.0,0.0,0.0,0.0,0.0,0.0,0.0,0.0,0.0,0.0,0.0,0.0,0.0,0.0,0.0,0.0,0.0,0.0,0.0,0.0,0.0,0.0,0.0,0.0,0.0,0.0,0.0,0.0,0.0,0.0,0.0,0.0,0.0,0.0,0.0,0.0,0.0,0.0,3.4197,3.2499,3.3553,3.3184,3.1274,3.1542,3.1915,3.2393,3.2206,3.2441,0.0,0.0,0.0,0.0,0.0,0.0,0.0,0.0,0.0,0.0,0.0,0.0,0.0,0.0,0.0,0.0,0.0,0.0,0.0,0.0,0.0,0.0,0.0,0.0,0.0,0.0,0.0,0.0,2.8998,2.9349,2.9192,0.0,0.0,0.0,0.0,0.0,0.0,0.0,0.0,0.0,0.0,3.3836,3.4577,3.4692,3.4692,3.4692,3.4692,3.4692,3.4692,3.4692,3.4692,3.4692,0.0,0.0,0.0,0.0,0.0,0.0,0.0,0.0,0.0,0.0,0.0,0.0,0.0,0.0,0.0,0.0,0.0,0.0,0.0,0.0,0.0,0.0,0.0,0.0,0.0,0.0,0.0,0.0,0.0,0.0,3.1497,0.0,0.0,0.0,0.0,0.0,0.0,0.0,0.0,0.0,0.0,0.0,0.0,0.0,0.0,0.0,0.0,0.0,0.0,0.0,0.0,0.0,0.0,3.6094,3.41,3.4148,3.3386,3.1923,3.2746,3.351,3.404,3.4428,3.4685,3.4836,0.0,0.0,0.0,0.0,0.0,0.0,0.0,0.0,0.0,0.0,0.0,0.0,0.0,0.0,0.0,0.0,0.0,0.0,0.0,0.0,0.0,0.0,0.0,0.0,0.0,0.0,2.7587,2.9292,3.0362,0.0,0.0,0.0,0.0,0.0,0.0,0.0,0.0,0.0,0.0,3.5004,3.4678,3.4739,3.4728,3.4764,3.4764,3.4739,3.4728,3.4764,3.4739,3.4692,0.0,0.0,0.0,0.0,0.0,0.0,0.0,0.0,0.0,0.0,0.0,0.0,0.0,0.0,0.0,0.0,0.0,0.0,0.0,0.0,0.0,0.0,0.0,0.0,0.0,0.0,0.0,3.4349,3.4698,0.0,0.0,0.0,0.0,0.0,0.0,0.0,0.0,0.0,0.0,0.0,3.6389,3.7111,0.0,0.0,0.0,0.0,0.0,0.0,0.0,0.0,0.0,0.0,0.0,0.0,3.7216,3.6203,3.6167,3.5542,3.4316,3.4963,3.5435,3.5622,3.6104,3.6175,3.5783,0.0,0.0,0.0,0.0,0.0,0.0,0.0,0.0,0.0,0.0,0.0,0.0,0.0,0.0,0.0,0.0,0.0,0.0,0.0,0.0,0.0,0.0,0.0,0.0,0.0,3.0171,0.0,0.0,0.0,0.0,0.0,0.0,0.0,0.0,0.0,0.0,0.0,3.4757,3.5647,3.5459,3.5426,3.5952,3.6037,3.6095,0.0,0.0,0.0,0.0,0.0,0.0,0.0,0.0,0.0,0.0,0.0,0.0,0.0,0.0,3.5705,3.5305,3.4942,3.4692,3.4692,0.0,0.0,0.0,0.0,0.0,0.0,0.0,0.0,0.0,0.0,0.0,0.0,0.0,0.0,3.6265,0.0,3.6548,0.0,0.0,0.0,0.0,0.0,0.0,0.0,0.0,3.7233,3.7706,3.7841,3.8432,3.8483,0.0,3.8355,3.8244,0.0,0.0,0.0,0.0,0.0,0.0,0.0,0.0,3.8417,3.7525,3.7475,3.7036,3.6158,3.6294,3.6418,3.6408,3.7098,3.719,3.6572,3.5696,3.5219,0.0,0.0,0.0,0.0,0.0,0.0,0.0,0.0,0.0,0.0,0.0,0.0,0.0,0.0,0.0,0.0,0.0,0.0,0.0,0.0,0.0,0.0,0.0,3.1602,0.0,0.0,0.0,0.0,0.0,0.0,0.0,0.0,0.0,3.4902,3.5001,3.5495,3.6495,3.6413,3.6508,3.7311,0.0,0.0,0.0,0.0,0.0,0.0,0.0,3.8183,3.7739,3.8053,3.8135,3.7537,3.7304,3.7246,3.7234,0.0,0.0,3.6061,3.574,3.5602,3.5683,3.6078,3.6247,3.5919,3.6445,3.6847,0.0,0.0,0.0,0.0,0.0,0.0,0.0,0.0,3.7406,3.7306,0.0,3.7137,0.0,0.0,0.0,0.0,0.0,3.7078,0.0,0.0,3.8839,3.951,3.9773,3.9548,3.9829,4.053,4.0287,4.03,4.0401,3.8184,0.0,0.0,0.0,0.0,0.0,0.0,3.9735,3.8203,3.8115,3.7826,3.7347,3.6856,3.6579,3.6605,3.7536,3.7843,3.7318,3.6924,3.6591,3.6371,3.5068,0.0,0.0,0.0,0.0,0.0,0.0,0.0,0.0,0.0,0.0,0.0,0.0,0.0,0.0,0.0,0.0,0.0,0.0,0.0,0.0,3.1989,0.0,0.0,0.0,0.0,0.0,0.0,0.0,0.0,0.0,0.0,3.6141,3.6008,3.6495,3.7804,0.0,0.0,0.0,0.0,3.8811,3.8823,3.8811,3.8823,3.8823,3.931,3.949,3.89,0.0,0.0,3.8901,3.8798,3.8748,3.8786,3.8541,3.8079,3.7012,3.7001,3.7232,3.7511,3.7708,3.7952,3.7965,3.7851,3.7914,4.1284,0.0,0.0,0.0,0.0,4.0216,4.068,4.1144,4.1117,4.0908,4.0542,4.126,0.0,0.0,0.0,0.0,0.0,0.0,3.9573,3.9686,4.0207,4.0912,4.1776,4.1686,4.1789,4.1983,4.1943,4.1918,4.1957,4.1273,4.0594,3.9982,0.0,0.0,0.0,0.0,4.0654,4.0415,3.9817,3.955,3.9624,3.9841,3.9752,3.9319,3.923,3.9212,3.9209,3.8703,3.8245,3.7826,3.7768,0.0,0.0,0.0,0.0,0.0,0.0,0.0,0.0,0.0,0.0,0.0,0.0,0.0,0.0,0.0,0.0,0.0,0.0,0.0,3.3735,3.4065,3.4554,0.0,0.0,0.0,0.0,0.0,0.0,0.0,0.0,0.0,3.8221,3.808,3.8041,0.0,0.0,3.8534,3.8786,3.897,3.9151,3.9358,0.0,0.0,0.0,3.9679,3.9799,3.9412,3.9355,3.9298,3.9117,3.8933,3.8786,3.8798,3.8725,3.8623,3.8512,3.8078,3.7924,3.8083,3.8087,3.8077,3.8237,3.8151,3.8015,4.3724,4.1739,4.1409,4.1543,4.2059,4.2436,4.288,4.3341,4.3341,4.3113,4.2825,4.3657,4.3647,4.299,4.331,0.0,0.0,0.0,4.1703,4.1951,4.1684,4.2227,4.332,4.2853,4.2657,4.2749,4.2657,4.2657,4.2749,4.2539,4.2264,4.1885,0.0,0.0,4.1944,4.1803,4.1615,4.1401,4.0888,4.0709,4.0927,4.1042,4.1068,4.1016,4.0606,4.0424,4.0516,4.0225,3.972,3.8915,3.8982,3.8424,0.0,0.0,0.0,0.0,0.0,0.0,0.0,0.0,0.0,0.0,0.0,3.2218,3.2977,0.0,0.0,0.0,3.5313,3.5135,3.5183,3.5527,0.0,0.0,0.0,0.0,0.0,0.0,0.0,3.7065,3.8291,3.9203,3.9212,3.9733,3.9905,3.9296,3.928,3.9431,3.9761,0.0,4.0095,4.0242,4.0266,4.0266,4.0292,4.0601,4.0824,4.0646,4.0287,4.0046,4.0046,3.9885,3.9787,3.9787,3.9713,3.9766,4.0159,3.9737,3.9233,3.9075,3.9015,3.9056,3.9193,3.9018,3.8831,4.6551,4.6438,4.4667,4.4313,4.4945,4.4941,4.4876,4.4686,4.4698,4.4523,4.4277,4.4972,4.5112,4.4893,4.4941,0.0,4.3405,4.3643,4.3978,4.4397,4.3399,4.3594,4.4668,4.3491,4.297,4.3154,4.2879,4.2892,4.3049,4.2603,4.2664,4.3355,4.314,4.28,4.2415,4.2812,4.2556,4.1621,4.1543,4.1504,4.1505,4.1042,4.1144,4.1789,4.1621,4.1466,4.1378,4.1414,4.0911,3.9812,3.9256,3.9085,3.92,0.0,0.0,0.0,0.0,0.0,0.0,0.0,0.0,0.0,0.0,0.0,0.0,0.0,0.0,0.0,3.7462,0.0,3.6239,3.6604,0.0,0.0,0.0,3.6992,3.6599,3.7683,3.8081,3.7096,0.0,0.0,3.9468,0.0,4.1781,4.0684,4.042,4.0579,4.1314,4.1417,4.1442,4.1442,4.1442,4.1442,4.1442,4.186,4.216,4.2121,4.1794,4.1417,4.1417,4.1417,4.143,4.1404,4.1227,4.1231,4.1776,4.1608,4.1261,4.0432,4.0463,4.0645,4.0658,4.0453,4.0261,4.8575,4.9139,4.7496,4.6912,4.7052,4.7052,4.7445,4.8092,4.8115,4.764,4.6945,4.7839,4.8208,4.8162,4.8173,4.7614,4.6674,4.6721,4.6615,4.6392,4.6158,4.6002,4.5953,4.5627,4.5063,4.433,4.4223,4.4028,4.3676,4.357,4.3374,4.3101,4.3035,4.3267,4.3764,4.3467,4.3303,4.3309,4.2643,4.2436,4.2606,4.2489,4.2345,4.2123,4.2463,4.2423,4.2016,4.1993,4.1667,4.0946,4.0782,4.0354,3.9555,3.957,0.0,0.0,0.0,0.0,0.0,0.0,0.0,0.0,0.0,3.5097,3.5489,0.0,3.8079,0.0,4.0558,4.0519,3.8758,3.8459,0.0,0.0,3.8112,3.8008,3.8733,3.8921,3.9142,3.9491,4.0047,4.0491,4.0767,4.1625,4.2094,4.182,4.2096,4.2293,4.2307,4.2463,4.2579,4.2592,4.2553,4.2592,4.2553,4.2709,4.2814,4.2814,4.2657,4.2605,4.2579,4.2579,4.2579,4.2605,4.2553,4.258,4.2671,4.2658,4.2554,4.2319,4.2035,4.1864,4.2021,4.1878,4.1681,5.0141,5.0591,4.9662,4.9316,4.9257,4.8738,4.8812,4.9277,4.9288,4.8994,4.8496,4.9337,4.9894,5.0133,5.0163,4.9561,4.8625,4.8589,4.8451,4.8195,4.7709,4.7771,4.8236,4.7227,4.6584,4.6246,4.5741,4.5323,4.5049,4.5076,4.4762,4.4146,4.4172,4.4274,4.4412,4.3645,4.3439,4.3873,4.3153,4.2853,4.2997,4.301,4.3114,4.335,4.3376,4.3402,4.3363,4.3101,4.2905,4.2801,4.2566,4.216,4.1559,4.1446,4.1149,0.0,0.0,0.0,0.0,0.0,0.0,0.0,0.0,0.0,0.0,0.0,4.0245,4.0803,4.2099,4.2287,4.0793,4.0062,3.9792,4.0003,3.9226,3.8899,3.9537,3.9675,3.9833,4.0019,4.0723,4.1219,4.1338,4.2265,4.2944,4.297,4.3415,4.3493,4.2918,4.2892,4.301,4.301,4.301,4.301,4.301,4.301,4.301,4.301,4.301,4.301,4.301,4.301,4.301,4.301,4.301,4.3101,4.3337,4.3415,4.3467,4.365,4.3528,4.3214,4.2852,4.2591,4.2368,5.1445,5.1457,5.1457,5.1457,5.1355,5.0265,4.9696,4.9546,4.9546,4.9557,4.9587,5.011,5.0697,5.1307,5.1337,5.0852,5.008,5.0067,5.0067,5.0019,4.9086,4.9309,5.0381,4.8474,4.7703,4.7933,4.6979,4.6435,4.6383,4.6369,4.6095,4.5505,4.5492,4.5269,4.4799,4.3676,4.331,4.3677,4.335,4.3154,4.2997,4.3141,4.3702,4.4592,4.4095,4.4069,4.4644,4.4121,4.4056,4.4538,4.4068,4.3781,4.3781,4.335,4.2814,0.0,4.119,0.0,0.0,0.0,0.0,0.0,0.0,0.0,0.0,4.2132,4.2508,4.2357,4.321,4.34,4.2419,4.1556,4.1106,4.1202,4.0265,3.9691,4.0005,4.0266,4.0266,3.9965,4.1258,4.199,4.1585,4.2879,4.3873,4.3846,4.4264,4.4251,4.3467,4.3271,4.3323,4.3219,4.3219,4.335,4.335,4.3297,4.3284,4.3258,4.331,4.3206,4.3284,4.3271,4.3271,4.3271,4.3284,4.3454,4.3899,4.4017,4.4174,4.4538,4.4589,4.4289,4.3506,4.3139,4.289,5.2827,5.2839,5.2827,5.2827,5.2797,5.2558,5.1839,5.0828,5.0828,5.0828,5.0858,5.0978,5.1385,5.2007,5.2007,5.221,5.2518,5.2518,5.2506,5.2506,5.2311,5.1408,4.999,4.9533,4.842,4.6867,4.66,4.6252,4.578,4.578,4.5506,4.4971,4.4958,4.5114,4.5348,0.0,0.0,0.0,4.3742,4.3937,4.3075,4.3964,4.4317,4.4069,4.3493,0.0,4.4017,4.3493,4.3441,4.4003,4.3493,0.0,0.0,0.0,0.0,0.0,0.0,0.0,0.0,0.0,0.0,0.0,4.6183,4.4906,4.2363,4.35,4.4632,4.5181,4.6021,4.561,4.333,4.2983,4.2642,4.2006,4.0558,4.0318,4.2043,4.1194,4.0723,4.1637,4.2016,4.2172,4.216,4.3127,4.3886,4.3925,4.4343,4.4577,4.4407,4.4303,4.4355,4.4381,4.429,4.4355,4.4381,4.4316,4.4263,4.4381,4.4381,4.4355,4.4329,4.4329,4.4355,4.4329,4.4381,4.4381,4.4525,4.4538,4.4552,4.4695,4.4721,4.4643,4.4434,4.4315,4.4314,5.3198,0.0,5.3198,5.3198,0.0,5.3198,5.2827,5.2187,5.2187,5.2187,5.2187,5.2187,5.2366,5.2677,5.2677,5.2887,5.3198,5.3198,5.3198,5.3169,5.2857,5.1984,5.0652,4.9771,4.8643,4.7355,4.6742,4.6356,4.6055,4.6055,4.5741,4.5218,4.5494,4.548,4.5139,4.4578,4.3729,4.2618,4.3428,4.3585,4.3062,4.3324,4.365,4.386,0.0,0.0,0.0,0.0,0.0,0.0,0.0,0.0,0.0,0.0,0.0,4.5059,4.52,4.57,4.6592,4.642,4.6684,4.7718,4.7827,4.7247,4.5785,4.6255,4.6726,4.7084,4.7244,4.6739,4.5428,4.4419,4.3679,4.3203,4.156,4.0946,4.1874,4.1664,4.1519,4.212,4.2709,4.2944,4.2644,4.3337,4.3846,4.3899,4.4134,4.4395,4.4643,4.4721,4.4721,4.4721,4.4721,4.4695,4.4721,4.4721,4.4721,4.4721,4.4721,4.4721,4.4721,4.4721,4.4721,4.4721,4.4721,4.4721,4.4721,4.4721,4.4721,4.4721,4.4721,4.4721,4.4721,4.4721,4.4721,5.3545,5.3558,5.3558,5.3545,5.3545,5.3558,5.3545,5.3545,0.0,0.0,0.0,5.3198,5.3258,5.3366,5.3366,5.3426,5.3545,5.3677,5.3725,5.3707,5.3264,5.2642,5.1866,5.0408,4.9286,4.8472,4.7784,4.7316,4.7117,4.7316,4.7013,4.633,4.6722,4.6369,4.5257,4.5074,4.4499,4.3519,4.3559,4.3532,4.331,4.2984,4.3206,4.4043,4.2944,4.3023,4.4396,4.4121,4.4566,4.5926,4.5649,4.5426,4.5467,4.6049,4.6261,4.6015,4.6349,4.6942,4.7759,4.8012,4.8213,4.8389,4.8556,4.8745,4.9127,4.8528,4.8128,4.8128,4.7739,4.7298,4.684,4.543,4.4356,4.4089,4.2513,4.1547,4.1886,4.2108,4.2382,4.2552,4.3324,4.3677,4.3088,4.3507,4.3873,4.3873,4.3899,4.4082,4.4578,4.4721,4.4721,4.4721,4.4721,4.4721,4.4721,4.4721,4.4721,4.4721,4.4721,4.4721,4.4721,4.4721,4.4721,4.4721,4.4721,4.4721,4.4721,4.4721,4.4721,4.4721,4.4721,4.4721,4.4721,4.4721,4.4721,5.4922,5.491,5.4922,5.4922,5.4922,5.4922,5.4922,5.4832,5.3707,5.3198,5.3198,5.3198,5.3516,5.4072,5.4072,5.4371,5.494,5.5521,5.5773,0.0,5.6209,5.5294,5.3273,5.2966,5.174,4.9851,5.0576,5.05,4.9639,5.0461,5.0235,4.8749,4.871,4.8094,4.6994,4.6459,4.5924,4.5269,4.5755,4.5506,4.4499,4.4878,4.4943,4.4644,4.3493,4.2984,4.3232,4.3663,4.4017,4.4278,4.4617,4.4825,4.4866,4.5821,4.6775,4.7562,4.7731,4.8603,5.0419,4.9842,4.9723,5.0596,5.0228,4.9531,4.8517,4.7829,4.7459,4.7459,4.7889,4.7173,4.5121,4.5025,4.4631,4.3435,4.256,4.2618,4.3846,4.335,4.3023,4.3454,4.3781,4.3637,4.3127,4.348,4.3807,4.3846,4.3925,4.4108,4.4538,4.4721,4.4721,4.4721,4.4721,4.4721,4.4721,4.4721,4.4721,4.4721,4.4721,4.4721,4.4721,4.4721,4.4721,4.4721,4.4721,4.4721,4.4721,4.4721,4.4721,4.4721,4.4721,4.4721,4.4721,4.4721,4.4721,5.6239,5.6239,5.6239,5.6226,5.6239,5.6226,5.6226,5.6166,5.5581,5.5102,5.4875,5.5174,5.5478,5.5748,5.5777,5.5927,5.6239,5.6568,5.6688,5.6688,5.6628,5.5702,5.4126,5.3688,5.2656,5.1057,5.0857,5.0569,5.006,4.9944,4.9402,4.8634,4.8605,4.8329,4.778,4.7231,4.6642,4.6081,4.5715,4.5271,4.4734,4.4682,4.4539,4.4304,4.3441,4.3167,4.3467,4.3755,4.3873,4.3873,4.4408,4.4578,4.4331,4.6171,4.7498,4.799,4.8751,4.962,5.0568,4.9903,4.9785,5.0561,5.0081,4.9475,4.8887,4.8558,4.8368,4.8368,4.8368,4.7837,4.6552,4.5742,4.508,4.4727,4.3493,4.2957,4.3559,4.3363,4.3114,4.3363,4.3415,4.3206,4.2644,4.2814,4.3127,4.3363,4.3859,4.4421,4.4695,4.4721,4.4721,4.4721,4.4721,4.4721,4.4721,4.4721,4.4721,4.4721,4.4721,4.4721,4.4721,4.4721,4.4721,4.4721,4.4721,4.4721,4.4721,4.4721,4.4721,4.4721,4.4721,4.4721,4.4721,4.4721,4.4721,5.7094,5.7094,5.7094,5.7094,5.7094,5.7094,5.7094,5.7124,5.7257,5.7064,5.6718,5.6987,5.7094,5.7094,5.7094,5.7094,5.7124,5.7274,5.7347,5.7304,5.6987,5.6258,5.514,5.4623,5.3667,5.2351,5.1581,5.0986,5.0439,5.0017,4.9587,4.9203,4.8804,4.8527,4.8396,4.7922,4.744,4.6853,4.5832,4.5165,4.4904,4.4487,4.4239,4.4056,4.3768,4.3728,4.4042,4.433,4.4422,4.4317,4.4826,4.5027,4.4996,4.7108,4.8527,4.8862,4.9826,5.0357,5.0207,4.9912,4.9924,5.0368,5.0002,4.9726,4.9726,4.9875,4.9534,4.8815,4.8179,4.7751,4.7112,4.6142,4.5388,4.5673,4.4537,4.3821,4.3794,4.3794,4.3794,4.3794,4.3794,4.3637,4.3114,4.2957,4.3258,4.3794,4.4473,4.5074,4.51,4.51,4.51,4.5034,4.4878,4.4721,4.4721,4.4721,4.4721,4.4721,4.4721,4.4721,4.4721,4.4721,4.4721,4.4721,4.4721,4.4721,4.4721,4.4721,4.4721,4.4721,4.4721,4.4721,4.4721,4.4721,4.4721,5.7124,5.7094,5.7154,5.7094,5.7154,5.7154,5.7154,5.7214,5.7726,5.7979,5.7859,5.7334,5.7154,5.7094,5.7154,5.7154,5.7227,5.7739,5.8008,5.8068,5.8577,5.816,5.6992,5.6852,5.5637,5.3806,5.4367,5.3624,5.1892,5.3514,5.3777,5.2193,5.0578,4.9479,4.9076,4.8971,4.8657,4.8056,4.74,4.6576,4.5583,4.5478,4.5179,4.4643,4.5073,4.5113,4.4643,4.5663,4.599,4.5544,4.5952,4.6741,4.769,4.8951,5.0104,5.1114,5.1147,5.0835,5.0327,5.0697,5.1008,5.1086,5.0991,5.0943,5.1026,5.1535,5.0442,4.8003,4.7014,4.6612,4.5105,4.5269,4.5405,4.5342,4.5255,4.5571,4.5898,4.6173,4.6187,4.6173,4.5729,4.5898,4.4943,4.4879,4.5113,4.506,4.5623,4.6107,4.6147,4.6147,4.6173,4.6069,4.548,4.4852,4.4799,4.4734,4.4865,4.4825,4.4747,4.4825,4.4917,4.4878,4.4747,4.5074,4.4852,4.4891,4.4852,4.4721,4.4773,4.497,4.4917,4.4773,4.4721,4.4825,4.4852,5.8291,5.8291,5.8291,5.8291,5.8291,5.8291,5.8291,5.8321,5.8547,5.871,5.8667,5.8411,5.8291,5.8261,5.8261,5.8291,5.8291,5.8577,5.8697,5.8726,5.8979,5.8811,5.8372,5.8317,5.7735,5.6807,5.6608,5.5935,5.4991,5.4531,5.3857,5.3067,5.1629,5.0644,5.0148,5.0095,4.9808,4.9218,4.8982,4.8445,4.7649,4.667,4.5832,4.5322,4.5478,4.5322,4.4825,4.5205,4.5153,4.4724,4.5779,4.6639,4.7186,4.9141,5.065,5.1511,5.1722,5.1487,5.0847,5.1056,5.1367,5.1756,5.1159,5.1062,5.1691,5.1444,5.0479,4.9347,4.8965,4.8656,4.7979,4.7076,4.6476,4.661,4.642,4.6238,4.6461,4.6186,4.5872,4.556,4.5167,4.4788,4.4343,4.4696,4.5218,4.5571,4.6119,4.6539,4.6527,4.6527,4.6527,4.6435,4.6043,4.5834,4.5741,4.5767,4.5755,4.5741,4.5767,4.5767,4.5715,4.5767,4.5767,4.5755,4.5689,4.5689,4.582,4.5767,4.5741,4.5741,4.5755,4.5767,4.5767,4.5767,4.5872,5.9368,5.9338,5.9189,5.9099,5.9099,5.9099,5.9099,5.9099,5.9099,5.9099,5.9129,5.9279,5.9368,5.9338,5.9175,5.9099,5.9099,5.9099,5.9219,5.9338,5.9368,5.9474,5.9638,5.9624,5.946,5.9001,5.8178,5.7652,5.728,5.5388,5.4354,5.4306,5.3256,5.2192,5.1409,5.1748,5.158,5.0733,5.065,5.0454,4.9914,4.8671,4.7432,4.6477,4.6638,4.6515,4.5906,4.5893,4.5779,4.5555,4.6583,4.7451,4.8159,5.0192,5.1574,5.2013,5.2491,5.2366,5.1546,5.1636,5.1935,5.2348,5.181,5.1795,5.2232,5.2036,5.1728,5.154,5.1123,5.0615,4.9717,4.8238,4.7457,4.7764,4.7238,4.6958,4.6972,4.6552,4.6264,4.5755,4.5743,4.4945,4.4696,4.5337,4.6069,4.6421,4.6734,4.6972,4.6972,4.701,4.701,4.6972,4.6984,4.6801,4.6606,4.6423,4.6527,4.6527,4.6409,4.6383,4.6527,4.6501,4.6501,4.6173,4.6423,4.6475,4.6278,4.6356,4.6592,4.6696,4.6722,4.6775,4.6917,4.6932,4.71,6.007,5.998,5.9368,5.9219,5.9129,5.9159,5.9159,5.9249,5.9189,5.9159,5.9279,5.9801,6.004,6.001,5.9488,5.9145,5.9159,5.9219,5.9518,6.001,6.007,6.0386,6.1,6.0986,6.0363,5.9403,5.9231,5.8797,5.8188,5.6917,5.6517,5.6907,5.5729,5.4282,5.3083,5.4195,5.4228,5.2538,5.2439,5.2427,5.2333,5.1809,5.0437,4.869,4.9128,4.9342,4.8854,4.8841,4.8995,4.938,4.9144,4.9908,5.1835,5.2784,5.3231,5.321,5.3723,5.3533,5.2516,5.2755,5.3097,5.3204,5.3367,5.3662,5.3138,5.3729,5.3919,5.3911,5.2185,5.0629,4.8789,4.7869,4.7423,4.7598,4.7843,4.8004,4.8056,4.7858,4.8056,4.7847,4.7533,4.7298,4.7638,4.8004,4.7768,4.7847,4.803,4.8044,4.7951,4.8004,4.7977,4.7977,4.7925,4.7728,4.6801,4.6789,4.671,4.6763,4.6894,4.6658,4.6554,4.6501,4.6554,4.6606,4.6722,4.6749,4.658,4.6644,4.6891,4.7074,4.7257,4.7414,4.7623,4.7977,4.8068,6.1776,6.1357,6.1134,6.0775,6.0372,6.0358,6.0372,6.0372,6.0402,6.0386,6.0402,6.0655,6.0745,6.0715,6.0492,6.0372,6.0386,6.0372,6.0521,6.0731,6.0745,6.0851,6.106,6.109,6.0908,6.0497,6.0411,6.0308,5.993,5.8798,5.8263,5.8234,5.7231,5.6034,5.5319,5.567,5.5075,5.3479,5.3945,5.3992,5.3382,5.377,5.3658,5.2867,5.2097,5.146,5.089,5.0876,5.0955,5.1095,5.1248,5.1902,5.3065,5.4028,5.451,5.4501,5.47,5.461,5.4162,5.391,5.3832,5.3753,5.2938,5.2824,5.3025,5.2983,5.2746,5.2431,5.1379,4.9775,4.8641,4.7997,4.8176,4.8738,4.8493,4.8187,4.8187,4.8187,4.8082,4.7687,4.7362,4.7245,4.7687,4.7635,4.778,4.8108,4.8187,4.8213,4.8187,4.8187,4.8187,4.8187,4.8187,4.8056,4.7742,4.7611,4.7611,4.7626,4.7611,4.7611,4.7533,4.7455,4.7507,4.7428,4.7402,4.7376,4.735,4.7376,4.7571,4.7702,4.7885,4.7963,4.8161,4.8422,4.8564,6.2854,6.245,6.2435,6.2181,6.1732,6.1509,6.1419,6.1389,6.118,6.109,6.112,6.1313,6.1419,6.1493,6.1628,6.1762,6.1672,6.1299,6.121,6.1419,6.1419,6.1553,6.1732,6.1748,6.1762,6.1748,6.1732,6.1642,6.1349,6.0536,6.0045,5.9768,5.8899,5.8126,5.7505,5.7682,5.6959,5.5556,5.5883,5.5784,5.4942,5.5501,5.5978,5.5894,5.5219,5.42,5.3087,5.2831,5.2804,5.2965,5.3129,5.3659,5.4665,5.5406,5.582,5.582,5.5807,5.5718,5.5521,5.5089,5.458,5.3964,5.2929,5.2552,5.3406,5.2878,5.2787,5.2865,5.188,5.0704,5.0353,4.9522,4.8866,4.901,4.8376,4.8004,4.8187,4.837,4.8422,4.8288,4.8041,4.7911,4.8053,4.8157,4.8329,4.85,4.85,4.8448,4.8265,4.8187,4.8187,4.8187,4.8187,4.8187,4.803,4.7992,4.8004,4.803,4.7977,4.8134,4.8187,4.8187,4.8187,4.8187,4.8187,4.8187,4.8187,4.8187,4.8265,4.837,4.8527,4.8564,4.8721,4.8826,4.8919,6.3123,6.3093,6.3093,6.3048,6.2854,6.2345,6.2091,6.2002,6.1479,6.1343,6.1419,6.1852,6.2091,6.2211,6.2644,6.3018,6.2734,6.1792,6.1613,6.2061,6.2091,6.2435,6.2914,6.2898,6.2898,6.2898,6.3018,6.2704,6.2107,6.1933,6.1622,6.1185,6.103,6.0332,5.9205,6.0126,5.9945,5.842,5.8103,5.79,5.7318,5.7363,5.7477,5.743,5.8187,5.7637,5.543,5.4901,5.4886,5.5159,5.4854,5.5383,5.6564,5.6918,5.7034,5.6944,5.7004,5.6748,5.6282,5.609,5.5235,5.4146,5.3473,5.3691,5.4169,5.4282,5.4658,5.5168,5.4247,5.3401,5.3496,5.1385,4.9194,4.7757,4.7884,4.7963,4.8303,4.8762,4.9285,4.9599,4.9546,4.9808,4.9834,4.9625,4.9442,4.9139,4.9076,4.8945,4.8579,4.85,4.8317,4.8317,4.85,4.8631,4.8448,4.8254,4.8265,4.8265,4.8187,4.8187,4.8187,4.8187,4.8187,4.8187,4.8187,4.8187,4.8187,4.8213,4.8396,4.8527,4.8814,4.8893,4.8893,4.8919,4.9206,6.4141,6.3707,6.3722,6.3468,6.3108,6.2854,6.2794,6.2764,6.2555,6.2465,6.251,6.2704,6.2794,6.2824,6.3048,6.3108,6.3078,6.2644,6.2584,6.2734,6.2764,6.2884,6.3078,6.3108,6.3108,6.3108,6.3108,6.3018,6.2794,6.2764,6.2644,6.248,6.2435,6.204,6.1222,6.155,6.0823,5.9261,6.0245,6.0156,5.8898,5.9892,6.0096,5.9351,5.9593,5.9148,5.8018,5.7765,5.7732,5.7799,5.7299,5.7034,5.7118,5.7094,5.7094,5.7094,5.7094,5.7034,5.6808,5.6419,5.6021,5.5328,5.4882,5.4743,5.4891,5.4868,5.4449,5.3815,5.2635,5.1961,5.0513,4.9532,4.9191,5.0196,4.962,4.902,4.927,4.952,4.9703,4.986,4.9912,4.9912,4.9912,4.9923,4.9912,4.9714,4.9651,4.952,4.9389,4.9232,4.9389,4.9389,4.9389,4.9232,4.9102,4.9023,4.9023,4.8893,4.871,4.8579,4.85,4.8448,4.8396,4.8291,4.8265,4.8213,4.8213,4.8265,4.8396,4.8396,4.8448,4.8553,4.8698,4.884,4.8997,6.4545,6.4395,6.4381,6.4156,6.3782,6.3572,6.3422,6.3393,6.3197,6.3108,6.3108,6.3108,6.3108,6.3108,6.3108,6.3108,6.3108,6.3108,6.3108,6.3108,6.3108,6.3108,6.3108,6.3108,6.3108,6.3108,6.3108,6.3108,6.3108,6.3108,6.3108,6.3108,6.3108,6.2884,6.248,6.245,6.1767,6.0995,6.1825,6.1868,6.1155,6.1839,6.1956,6.1028,6.0835,6.0505,5.9907,5.9608,5.9352,5.9099,5.8667,5.8278,5.7872,5.7872,5.7842,5.7842,5.7842,5.7739,5.7483,5.7154,5.6527,5.5975,5.5076,5.4698,5.4736,5.465,5.3612,5.3274,5.2685,5.1749,5.0566,4.9733,5.0243,5.1411,5.0326,4.989,5.0054,5.0237,5.0368,5.0498,5.0592,5.054,5.0524,5.0524,5.0435,5.0289,5.0211,5.0054,4.9976,4.986,4.9938,4.9938,4.9782,4.9729,4.9834,4.9834,4.9834,4.9599,4.9296,4.9206,4.9102,4.9102,4.9076,4.8788,4.8683,4.8422,4.837,4.8239,4.8265,4.8187,4.8291,4.8317,4.8463,4.837,4.8474,6.4321,6.4889,6.4889,6.474,6.462,6.4096,6.3797,6.3797,6.3333,6.3108,6.3108,6.3108,6.3108,6.3108,6.3108,6.3108,6.3108,6.3108,6.3108,6.3108,6.3108,6.3108,6.3108,6.3108,6.3108,6.3108,6.3108,6.3108,6.3108,6.3108,6.3108,6.3108,6.3108,6.3108,6.3018,6.3078,6.3005,6.2903,6.314,6.317,6.3097,6.3289,6.2944,6.2241,6.2106,6.1762,6.1104,6.037,5.9741,5.9189,5.9026,5.8979,5.9039,5.9099,5.8979,5.8919,5.9069,5.8697,5.8264,5.8098,5.754,5.6163,5.5216,5.4064,5.5067,5.4729,5.4485,5.5108,5.4274,5.3506,5.3028,5.2039,5.1532,5.1366,5.047,5.0054,5.0655,5.0827,5.0969,5.1361,5.1586,5.1586,5.1413,5.1439,5.123,5.0969,5.0812,5.0603,5.0383,5.0304,5.008,5.0148,5.0331,5.0383,5.054,5.0498,5.0524,5.0461,5.0106,4.9912,4.9677,4.9599,4.9572,4.9285,4.9102,4.8814,4.8657,4.8657,4.8605,4.8683,4.8605,4.8358,4.8306,4.8396,4.8344,6.3437,6.3602,6.3602,6.3602,6.3588,6.3393,6.3333,6.3347,6.3183,6.3108,6.3108,6.3108,6.3108,6.3108,6.3108,6.3108,6.3108,6.3108,6.3108,6.3108,6.3108,6.3108,6.3108,6.3108,6.3108,6.3108,6.3108,6.3108,6.3108,6.3108,6.3108,6.3108,6.3108,6.3108,6.3108,6.3108,6.3363,6.3797,6.4276,6.4441,6.45,6.4904,6.4635,6.3558,6.3093,6.2525,6.1792,6.0699,5.9801,5.9189,5.9099,5.9099,5.9099,5.9099,5.9099,5.9099,5.9099,5.9039,5.8876,5.8816,5.8535,5.8227,5.7257,5.7696,5.7843,5.7542,5.7155,5.6849,5.5631,5.4382,5.351,5.2346,5.1705,5.1586,5.1047,5.0917,5.123,5.1387,5.1465,5.157,5.1596,5.1596,5.1596,5.1596,5.1544,5.1387,5.1309,5.1282,5.0969,5.0943,5.0864,5.1073,5.123,5.122,5.122,5.1204,5.1204,5.1272,5.1021,5.0655,5.0289,4.9912,4.986,4.9703,4.9703,4.9479,4.952,4.952,4.9442,4.9206,4.9259,4.9154,4.8945,4.8919,4.8683,6.3887,6.3857,6.3602,6.3482,6.3452,6.3227,6.3108,6.3108,6.3108,6.3108,6.3108,6.3108,6.3108,6.3108,6.3108,6.3108,6.3108,6.3108,6.3108,6.3108,6.3108,6.3108,6.3108,6.3108,6.3108,6.3108,6.3108,6.3108,6.3108,6.3108,6.3108,6.3108,6.3108,6.3108,6.3108,6.3138,6.3393,6.3947,6.4411,6.468,6.5024,6.5368,6.4979,6.4216,6.3827,6.3498,6.251,6.1224,6.013,5.9368,5.9099,5.9099,5.9099,5.9099,5.9099,5.9099,5.9099,5.9099,5.9099,5.9099,5.8825,5.8289,5.7931,5.7259,5.6579,5.6323,5.5515,5.4725,5.4159,5.351,5.2811,5.199,5.1659,5.1596,5.1596,5.1596,5.1596,5.1596,5.1596,5.1596,5.1596,5.1596,5.1596,5.1596,5.1596,5.1596,5.1544,5.1544,5.1518,5.1596,5.1596,5.1596,5.1596,5.1492,5.1455,5.1413,5.1413,5.1492,5.1465,5.1178,5.0917,5.042,5.0409,5.0383,5.0315,5.0211,5.0132,5.0043,4.9782,4.9677,4.9886,4.986,4.9572,4.9442,4.918,6.4994,6.4934,6.4351,6.4082,6.4006,6.3482,6.3257,6.3197,6.3123,6.3108,6.3108,6.3108,6.3108,6.3108,6.3108,6.3108,6.3108,6.3108,6.3108,6.3108,6.3108,6.3108,6.3108,6.3108,6.3108,6.3108,6.3108,6.3108,6.3108,6.3108,6.3108,6.3108,6.3108,6.3108,6.3108,6.3108,6.3422,6.3887,6.4066,6.4441,6.4874,6.5054,6.48,6.4411,6.4381,6.3947,6.2869,6.1672,6.0505,5.9292,5.9145,5.9099,5.9099,5.9099,5.9099,5.9099,5.9099,5.9099,5.9099,5.9085,5.8703,5.7776,5.6565,5.5164,5.4695,5.4009,5.3241,5.3226,5.2001,5.2114,5.1815,5.1612,5.1612,5.1596,5.1596,5.1596,5.1596,5.1596,5.1596,5.1596,5.1596,5.1596,5.1596,5.1596,5.1596,5.1596,5.1596,5.1596,5.1596,5.1596,5.1596,5.1596,5.1596,5.1596,5.1596,5.157,5.157,5.1596,5.157,5.1465,5.1439,5.1178,5.1126,5.1073,5.0917,5.0681,5.0472,5.0304,5.02,5.0278,5.0524,5.0289,5.0043,5.0002,4.9845,6.4994,6.4994,6.4845,6.4785,6.468,6.4096,6.3812,6.3737,6.3303,6.3138,6.3108,6.3108,6.3108,6.3108,6.3108,6.3108,6.3108,6.3108,6.3108,6.3108,6.3108,6.3108,6.3108,6.3108,6.3108,6.3108,6.3108,6.3108,6.3108,6.3108,6.3108,6.3108,6.3108,6.3108,6.3108,6.3138,6.3393,6.3887,6.3977,6.4261,6.474,6.4874,6.4815,6.465,6.4381,6.3588,6.248,6.1509,6.0701,5.9997,5.9398,5.9099,5.9099,5.9099,5.9099,5.9099,5.9099,5.9099,5.9099,5.9085,5.8961,5.8413,5.7342,5.6693,5.6437,5.5062,5.4501,5.4367,5.3679,5.2489,5.1752,5.1596,5.1596,5.1596,5.1596,5.1596,5.1596,5.1596,5.1596,5.1596,5.1596,5.1596,5.1596,5.1596,5.1596,5.1596,5.1596,5.1596,5.1596,5.1596,5.1596,5.1596,5.1596,5.1596,5.1596,5.1596,5.1596,5.1596,5.1596,5.1596,5.1596,5.1596,5.1439,5.1413,5.1439,5.1204,5.089,5.1047,5.1021,5.11,5.11,5.0864,5.0681,5.0655,5.0551,6.5906,6.5906,6.5607,6.5458,6.5368,6.477,6.4306,6.3977,6.3692,6.3363,6.3138,6.3108,6.3108,6.3108,6.3108,6.3108,6.3108,6.3108,6.3108,6.3108,6.3108,6.3108,6.3108,6.3108,6.3108,6.3108,6.3108,6.3108,6.3108,6.3108,6.3108,6.3108,6.3108,6.3108,6.3108,6.3108,6.3257,6.3482,6.3572,6.3767,6.4066,6.4126,6.4306,6.4366,6.3947,6.3273,6.3019,6.1732,6.103,6.0446,5.9681,5.9099,5.9099,5.9099,5.9099,5.9099,5.9099,5.9099,5.9099,5.9072,5.8811,5.8303,5.7552,5.6948,5.6266,5.5223,5.459,5.4261,5.3344,5.2253,5.169,5.1596,5.1596,5.1596,5.1596,5.1596,5.1596,5.1596,5.1596,5.1596,5.1596,5.1596,5.1596,5.1596,5.1596,5.1596,5.1596,5.1596,5.1596,5.1596,5.1596,5.1596,5.1596,5.1596,5.1596,5.1596,5.1596,5.1596,5.1596,5.1596,5.1596,5.1596,5.1596,5.1596,5.157,5.157,5.1387,5.1596,5.1596,5.1465,5.1361,5.1361,5.1309,5.1152,5.1073,6.6999,6.6954,6.637,6.6146,6.6071,6.5413,6.4859,6.4381,6.4066,6.3677,6.3273,6.3153,6.3108,6.3108,6.3108,6.3108,6.3108,6.3108,6.3108,6.3108,6.3108,6.3108,6.3108,6.3108,6.3108,6.3108,6.3108,6.3108,6.3108,6.3108,6.3108,6.3108,6.3108,6.3108,6.3108,6.3108,6.3138,6.3197,6.3227,6.3227,6.3257,6.3257,6.3512,6.3662,6.3482,6.3333,6.3199,6.2211,6.121,6.1016,5.9937,5.9308,5.9129,5.9099,5.9099,5.9099,5.9099,5.9099,5.9099,5.9058,5.8662,5.7524,5.6991,5.6494,5.5471,5.4189,5.3359,5.2933,5.2346,5.1752,5.1596,5.1596,5.1596,5.1596,5.1596,5.1596,5.1596,5.1596,5.1596,5.1596,5.1596,5.1596,5.1596,5.1596,5.1596,5.1596,5.1596,5.1596,5.1596,5.1596,5.1596,5.1596,5.1596,5.1596,5.1596,5.1596,5.1596,5.1596,5.1596,5.1596,5.1596,5.1596,5.1596,5.1596,5.1596,5.1596,5.1596,5.1596,5.1596,5.1596,5.157,5.1492,5.1518,5.1596,5.1518,6.6999,6.6969,6.6879,6.6819,6.6729,6.6116,6.5742,6.5473,6.4485,6.3947,6.3767,6.3333,6.3168,6.3108,6.3108,6.3108,6.3108,6.3108,6.3108,6.3108,6.3108,6.3108,6.3108,6.3108,6.3108,6.3108,6.3108,6.3108,6.3108,6.3108,6.3108,6.3108,6.3108,6.3108,6.3108,6.3108,6.3108,6.3108,6.3108,6.3108,6.3108,6.3108,6.3138,6.3333,6.3168,6.3197,6.3093,6.245,6.1672,6.109,6.0356,5.9697,5.9279,5.9159,5.9099,5.9099,5.9099,5.9099,5.9099,5.9004,5.8991,5.8372,5.6977,5.5862,5.4944,5.348,5.2504,5.2021,5.1892,5.1596,5.1596,5.1596,5.1596,5.1596,5.1596,5.1596,5.1596,5.1596,5.1596,5.1596,5.1596,5.1596,5.1596,5.1596,5.1596,5.1596,5.1596,5.1596,5.1596,5.1596,5.1596,5.1596,5.1596,5.1596,5.1596,5.1596,5.1596,5.1596,5.1596,5.1596,5.1596,5.1596,5.1596,5.1596,5.1596,5.1596,5.1596,5.1596,5.1596,5.1596,5.1596,5.1596,5.1596,5.1596,5.1596,6.6999,6.6999,6.6999,6.6999,6.6939,6.6685,6.6311,6.5951,6.5323,6.4635,6.4066,6.3677,6.3363,6.3168,6.3108,6.3108,6.3108,6.3108,6.3108,6.3108,6.3108,6.3108,6.3108,6.3108,6.3108,6.3108,6.3108,6.3108,6.3108,6.3108,6.3108,6.3108,6.3108,6.3108,6.3108,6.3108,6.3108,6.3108,6.3108,6.3108,6.3108,6.3108,6.3108,6.3108,6.3108,6.3108,6.2974,6.2465,6.1972,6.1493,6.0639,6.004,5.9651,5.9308,5.9099,5.9099,5.9099,5.9099,5.8936,5.8607,5.8053,5.7887,5.6366,5.55,5.4973,5.3784,5.2284,5.1768,5.1596,5.1596,5.1596,5.1596,5.1596,5.1596,5.1596,5.1596,5.1596,5.1596,5.1596,5.1596,5.1596,5.1596,5.1596,5.1596,5.1596,5.1596,5.1596,5.1596,5.1596,5.1596,5.1596,5.1596,5.1596,5.1596,5.1596,5.1596,5.1596,5.1596,5.1596,5.1596,5.1596,5.1596,5.1596,5.1596,5.1596,5.1596,5.1596,5.1596,5.1596,5.1596,5.1596,5.1596,5.1596,5.1596,5.1596,6.6999,6.6999,6.6999,6.6999,6.6999,6.6999,6.67,6.6251,6.6026,6.5383,6.4485,6.4096,6.3707,6.3363,6.3168,6.3108,6.3108,6.3108,6.3108,6.3108,6.3108,6.3108,6.3108,6.3108,6.3108,6.3108,6.3108,6.3108,6.3108,6.3108,6.3108,6.3108,6.3108,6.3108,6.3108,6.3108,6.3108,6.3108,6.3108,6.3108,6.3108,6.3108,6.3108,6.3108,6.3108,6.3108,6.3048,6.2674,6.2285,6.1806,6.1058,6.0236,6.004,5.9458,5.9129,5.9099,5.9099,5.9099,5.8866,5.8386,5.786,5.7412,5.6151,5.5427,5.4619,5.3586,5.2546,5.183,5.1596,5.1596,5.1596,5.1596,5.1596,5.1596,5.1596,5.1596,5.1596,5.1596,5.1596,5.1596,5.1596,5.1596,5.1596,5.1596,5.1596,5.1596,5.1596,5.1596,5.1596,5.1596,5.1596,5.1596,5.1596,5.1596,5.1596,5.1596,5.1596,5.1596,5.1596,5.1596,5.1596,5.1596,5.1596,5.1596,5.1596,5.1596,5.1596,5.1596,5.1596,5.1596,5.1596,5.1596,5.1596,5.1596,5.1596,6.6999,6.6999,6.6999,6.6999,6.6999,6.6999,6.6969,6.6805,6.6265,6.5936,6.5533,6.4545,6.4006,6.3677,6.3273,6.3138,6.3108,6.3108,6.3108,6.3108,6.3108,6.3108,6.3108,6.3108,6.3108,6.3108,6.3108,6.3108,6.3108,6.3108,6.3108,6.3108,6.3108,6.3108,6.3108,6.3108,6.3108,6.3108,6.3108,6.3108,6.3108,6.3108,6.3108,6.3108,6.3108,6.3108,6.3108,6.2898,6.2704,6.2135,6.1419,6.0701,6.0116,5.9458,5.9189,5.9099,5.9099,5.9099,5.9031,5.847,5.7832,5.6877,5.5805,5.4885,5.3784,5.278,5.1939,5.1721,5.1596,5.1544,5.1533,5.1559,5.1596,5.1544,5.1465,5.1544,5.1596,5.1596,5.1596,5.1596,5.1596,5.1596,5.1596,5.1596,5.1596,5.1596,5.1596,5.1596,5.1596,5.1596,5.1596,5.1596,5.1596,5.1596,5.1596,5.1596,5.1596,5.1596,5.1596,5.1596,5.1596,5.1596,5.1596,5.1596,5.1596,5.1596,5.1596,5.1596,5.1596,5.1596,5.1596,5.1596,5.1596,5.1596,5.1596,6.6999,6.6999,6.6999,6.6999,6.6999,6.6999,6.6999,6.6939,6.67,6.637,6.5892,6.5009,6.4201,6.3602,6.3197,6.3108,6.3108,6.3108,6.3108,6.3108,6.3108,6.3108,6.3108,6.3108,6.3108,6.3108,6.3108,6.3108,6.3108,6.3108,6.3108,6.3108,6.3108,6.3108,6.3108,6.3108,6.3108,6.3108,6.3108,6.3108,6.3108,6.3108,6.3108,6.3108,6.3108,6.3108,6.3108,6.3108,6.3018,6.2495,6.1732,6.1,6.0475,5.9757,5.9099,5.9045,5.8358,5.8386,5.8841,5.782,5.7006,5.5906,5.456,5.2948,5.2377,5.199,5.1596,5.1596,5.1596,5.1492,5.1272,5.1167,5.1152,5.1152,5.1256,5.1439,5.1518,5.1596,5.1596,5.1596,5.1596,5.1596,5.1596,5.1596,5.1596,5.1596,5.1596,5.1596,5.1596,5.1596,5.1596,5.1596,5.1596,5.1596,5.1596,5.1596,5.1596,5.1596,5.1596,5.1596,5.1596,5.1596,5.1596,5.1596,5.1596,5.1596,5.1596,5.1596,5.1596,5.1596,5.1596,5.1596,5.1596,5.1596,5.1596,6.6999,6.6999,6.6999,6.6999,6.6999,6.6999,6.6999,6.6999,6.6969,6.67,6.6116,6.5368,6.4351,6.3482,6.3227,6.3108,6.3108,6.3108,6.3108,6.3108,6.3108,6.3108,6.3108,6.3108,6.3108,6.3108,6.3108,6.3108,6.3108,6.3108,6.3108,6.3108,6.3108,6.3108,6.3108,6.3108,6.3108,6.3108,6.3108,6.3108,6.3108,6.3108,6.3108,6.3108,6.3108,6.3108,6.3108,6.3108,6.3108,6.2854,6.1792,6.106,6.0851,5.9847,5.9189,5.8882,5.8081,5.7721,5.7846,5.7203,5.5934,5.4738,5.3283,5.1923,5.1768,5.1596,5.1596,5.1596,5.1596,5.1387,5.11,5.0943,5.101,5.1037,5.101,5.123,5.1439,5.1544,5.1596,5.1596,5.1596,5.1596,5.1596,5.1596,5.1596,5.1596,5.1596,5.1596,5.1596,5.1596,5.1596,5.1596,5.1596,5.1596,5.1596,5.1596,5.1596,5.1596,5.1596,5.1596,5.1596,5.1596,5.1596,5.1596,5.1596,5.1596,5.1596,5.1596,5.1596,5.1596,5.1596,5.1596,5.1596,5.1596,5.1596,6.6999,6.6999,6.6999,6.6999,6.6999,6.6999,6.6999,6.6999,6.6999,6.6924,6.6595,6.5607,6.459,6.3887,6.3333,6.3108,6.3108,6.3108,6.3108,6.3108,6.3108,6.3108,6.3108,6.3108,6.3108,6.3108,6.3108,6.3108,6.3108,6.3108,6.3108,6.3108,6.3108,6.3108,6.3108,6.3108,6.3108,6.3108,6.3108,6.3108,6.3108,6.3108,6.3108,6.3108,6.3108,6.3108,6.3108,6.3108,6.3108,6.3048,6.1822,6.112,6.088,5.9803,5.9189,5.8868,5.7665,5.7286,5.723,5.7019,5.6437,5.5032,5.3283,5.1596,5.1596,5.1596,5.1596,5.1596,5.1596,5.1518,5.1324,5.1193,5.1141,5.1063,5.1073,5.1256,5.1465,5.1544,5.1596,5.1596,5.1596,5.1596,5.1596,5.1596,5.1596,5.1596,5.1596,5.1596,5.1596,5.1596,5.1596,5.1596,5.1596,5.1596,5.1596,5.1596,5.1596,5.1596,5.1596,5.1596,5.1596,5.1596,5.1596,5.1596,5.1596,5.1596,5.1596,5.1596,5.1596,5.1596,5.1596,5.1596,5.1596,5.1596,5.1596,6.6999,6.6999,6.6999,6.6999,6.6999,6.6999,6.6999,6.6999,6.6999,6.6729,6.637,6.5398,6.462,6.3977,6.3393,6.3108,6.3108,6.3108,6.3108,6.3108,6.3108,6.3108,6.3108,6.3108,6.3108,6.3108,6.3108,6.3108,6.3108,6.3108,6.3108,6.3108,6.3108,6.3108,6.3108,6.3108,6.3108,6.3108,6.3108,6.3108,6.3108,6.3108,6.3108,6.3108,6.3108,6.3108,6.3108,6.3108,6.3108,6.2778,6.1762,6.1299,6.091,5.9774,5.9219,5.8841,5.7344,5.6665,5.6806,5.6494,5.5544,5.4263,5.2685,5.1596,5.1596,5.1596,5.1596,5.1596,5.1596,5.1559,5.11,5.1178,5.1309,5.1204,5.123,5.1387,5.1518,5.1648,5.1596,5.1596,5.1596,5.1596,5.1596,5.1596,5.1596,5.1596,5.1596,5.1596,5.1596,5.1596,5.1596,5.1596,5.1596,5.1596,5.1596,5.1596,5.1596,5.1596,5.1596,5.1596,5.1596,5.1596,5.1596,5.1596,5.1596,5.1596,5.1596,5.1596,5.1596,5.1596,5.1596,5.1596,5.1596,5.1596,5.1596,6.6999,6.6999,6.6999,6.6999,6.6999,6.6999,6.6999,6.6999,6.6999,6.6759,6.6251,6.5428,6.4755,6.4186,6.3452,6.3108,6.3108,6.3108,6.3108,6.3108,6.3108,6.3108,6.3108,6.3108,6.3108,6.3108,6.3108,6.3108,6.3108,6.3108,6.3108,6.3108,6.3108,6.3108,6.3108,6.3108,6.3108,6.3108,6.3108,6.3108,6.3108,6.3108,6.3108,6.3108,6.3108,6.3108,6.3108,6.3108,6.3108,6.2689,6.1972,6.121,6.0641,6.0027,5.9249,5.8319,5.7133,5.5964,5.6093,5.5529,5.4471,5.3631,5.2423,5.1752,5.1596,5.1596,5.1596,5.1596,5.1596,5.1455,5.1021,5.135,5.1648,5.1622,5.1465,5.157,5.1727,5.1831,5.1701,5.1596,5.1596,5.1596,5.1596,5.1596,5.1596,5.1596,5.1596,5.1596,5.1596,5.1596,5.1596,5.1596,5.1596,5.1596,5.1596,5.1596,5.1596,5.1596,5.1596,5.1596,5.1596,5.1596,5.1596,5.1596,5.1596,5.1596,5.1596,5.1596,5.1596,5.1596,5.1596,5.1596,5.1596,5.1596,5.1596,6.6999,6.6999,6.6999,6.6999,6.6999,6.6999,6.6999,6.6999,6.6999,6.6939,6.6729,6.5637,6.5024,6.465,6.3707,6.3227,6.3108,6.3108,6.3108,6.3108,6.3108,6.3108,6.3108,6.3108,6.3108,6.3108,6.3108,6.3108,6.3108,6.3108,6.3108,6.3108,6.3108,6.3108,6.3108,6.3108,6.3108,6.3108,6.3108,6.3108,6.3108,6.3108,6.3108,6.3108,6.3108,6.3108,6.3108,6.3108,6.3048,6.2704,6.1762,6.112,6.0791,5.9757,5.9159,5.8923,5.6722,5.5529,5.5267,5.4159,5.3574,5.3359,5.2346,5.1659,5.1596,5.1596,5.1596,5.1596,5.1596,5.1596,5.1544,5.1716,5.2014,5.204,5.1884,5.1884,5.2067,5.1858,5.1675,5.1596,5.1596,5.1596,5.1596,5.1596,5.1596,5.1596,5.1596,5.1596,5.1596,5.1596,5.1596,5.1596,5.1596,5.1596,5.1596,5.1596,5.1596,5.1596,5.1596,5.1596,5.1596,5.1596,5.1596,5.1596,5.1596,5.1596,5.1596,5.1596,5.1596,5.1596,5.1596,5.1596,5.1596,5.1596,5.1596,6.6999,6.6999,6.6999,6.6999,6.6999,6.6999,6.6999,6.6999,6.6999,6.6999,6.6819,6.5996,6.5353,6.4815,6.4141,6.3452,6.3138,6.3108,6.3108,6.3108,6.3108,6.3108,6.3108,6.3108,6.3108,6.3108,6.3108,6.3108,6.3108,6.3108,6.3108,6.3108,6.3108,6.3108,6.3108,6.3108,6.3108,6.3108,6.3108,6.3108,6.3108,6.3108,6.3108,6.3108,6.3108,6.3108,6.3108,6.3108,6.2928,6.2525,6.1523,6.0984,6.0478,5.9447,5.9048,5.8566,5.6751,5.4545,5.351,5.2454,5.2719,5.2704,5.2392,5.1627,5.1596,5.1596,5.1596,5.1596,5.1596,5.1596,5.1596,5.2433,5.2798,5.2563,5.2448,5.2485,5.2485,5.1936,5.1596,5.1596,5.1596,5.1596,5.1596,5.1596,5.1596,5.1596,5.1596,5.1596,5.1596,5.1596,5.1596,5.1596,5.1596,5.1596,5.1596,5.1596,5.1596,5.1596,5.1596,5.1596,5.1596,5.1596,5.1596,5.1596,5.1596,5.1596,5.1596,5.1596,5.1596,5.1596,5.1596,5.1596,5.1596,5.1596,5.1596,6.6999,6.6999,6.6999,6.6999,6.6999,6.6999,6.6999,6.6999,6.6999,6.6999,6.6849,6.6281,6.5637,6.4964,6.4291,6.3662,6.3138,6.3108,6.3108,6.3108,6.3108,6.3108,6.3108,6.3108,6.3108,6.3108,6.3108,6.3108,6.3108,6.3108,6.3108,6.3108,6.3108,6.3108,6.3108,6.3108,6.3108,6.3108,6.3108,6.3108,6.3108,6.3108,6.3108,6.3108,6.3108,6.3108,6.3108,6.3018,6.2808,6.2121,6.1449,6.0791,6.0075,5.9162,5.8582,5.7762,5.6122,5.3829,5.23,5.1752,5.2145,5.252,5.197,5.1674,5.1596,5.1596,5.1596,5.1596,5.1596,5.1753,5.2014,5.2981,5.3243,5.2997,5.3164,5.3243,5.2851,5.2302,5.1753,5.1727,5.1596,5.1596,5.1596,5.1596,5.1596,5.1596,5.1596,5.1596,5.1596,5.1596,5.1596,5.1596,5.1596,5.1596,5.1596,5.1596,5.1596,5.1596,5.1596,5.1596,5.1596,5.1596,5.1596,5.1596,5.1596,5.1596,5.1596,5.1596,5.1596,5.1596,5.1596,5.1596,5.1596,5.1596,5.1596,6.6999,6.6999,6.6999,6.6999,6.6999,6.6999,6.6999,6.6999,6.6999,6.6999,6.6939,6.634,6.5727,6.5009,6.4336,6.3722,6.3197,6.3108,6.3108,6.3108,6.3108,6.3108,6.3108,6.3108,6.3108,6.3108,6.3108,6.3108,6.3108,6.3108,6.3108,6.3108,6.3108,6.3108,6.3108,6.3108,6.3108,6.3108,6.3108,6.3108,6.3108,6.3108,6.3108,6.3108,6.3108,6.3108,6.3108,6.3078,6.2644,6.2061,6.1433,6.0745,5.9712,5.8224,5.7571,5.6508,5.4826,5.3226,5.2192,5.1939,5.1627,5.197,5.1752,5.1596,5.1596,5.1596,5.1596,5.1596,5.1622,5.2014,5.2433,5.3008,5.3583,5.3713,5.3975,5.3766,5.3321,5.2772,5.2171,5.1884,5.1675,5.1596,5.1596,5.1596,5.1596,5.1596,5.1596,5.1596,5.1596,5.1596,5.1596,5.1596,5.1596,5.1596,5.1596,5.1596,5.1596,5.1596,5.1596,5.1596,5.1596,5.1596,5.1596,5.1596,5.1596,5.1596,5.1596,5.1596,5.1596,5.1596,5.1596,5.1596,5.1596,5.1596,5.1596,6.6999,6.6999,6.6999,6.6999,6.6999,6.6999,6.6999,6.6999,6.6999,6.6999,6.6984,6.6789,6.6071,6.5024,6.4785,6.4066,6.3482,6.3108,6.3108,6.3108,6.3108,6.3108,6.3108,6.3108,6.3108,6.3108,6.3108,6.3108,6.3108,6.3108,6.3108,6.3108,6.3108,6.3108,6.3108,6.3108,6.3108,6.3108,6.3108,6.3108,6.3108,6.3108,6.3108,6.3108,6.3108,6.3108,6.3108,6.3108,6.2584,6.1583,6.1269,6.0641,5.9346,5.8003,5.699,5.5848,5.4456,5.3283,5.2857,5.2083,5.1596,5.1596,5.1596,5.1596,5.1596,5.1596,5.1622,5.1701,5.1779,5.2119,5.2668,5.3243,5.3808,5.4158,5.4314,5.4079,5.3609,5.3034,5.2448,5.1805,5.1596,5.1596,5.1596,5.1596,5.1596,5.1596,5.1596,5.1596,5.1596,5.1596,5.1596,5.1596,5.1596,5.1596,5.1596,5.1596,5.1596,5.1596,5.1596,5.1596,5.1596,5.1596,5.1596,5.1596,5.1596,5.1596,5.1596,5.1596,5.1596,5.1596,5.1596,5.1596,5.1596,5.1596,5.1596,6.6999,6.6999,6.6999,6.6999,6.6999,6.6999,6.6999,6.6999,6.6999,6.6999,6.6999,6.6969,6.64,6.5488,6.5099,6.4441,6.3528,6.3197,6.3108,6.3108,6.3108,6.3108,6.3108,6.3108,6.3108,6.3108,6.3108,6.3108,6.3108,6.3108,6.3108,6.3108,6.3108,6.3108,6.3108,6.3108,6.3108,6.3108,6.3108,6.3108,6.3108,6.3108,6.3108,6.3108,6.3108,6.3108,6.3108,6.3108,6.2495,6.1583,6.1373,6.0625,5.9206,5.7758,5.5457,5.4204,5.3207,5.2627,5.2362,5.1975,5.169,5.1596,5.1596,5.1596,5.1596,5.1596,5.1779,5.1936,5.204,5.2276,5.2929,5.3547,5.4043,5.454,5.4419,5.4341,5.3792,5.3243,5.2537,5.1831,5.1596,5.1596,5.1596,5.1596,5.1596,5.1596,5.1596,5.1596,5.1596,5.1596,5.1596,5.1596,5.1596,5.1596,5.1596,5.1596,5.1596,5.1596,5.1596,5.1596,5.1596,5.1596,5.1596,5.1596,5.1596,5.1596,5.1596,5.1596,5.1596,5.1596,5.1596,5.1596,5.1596,5.1596,5.1596,6.6999,6.6999,6.6999,6.6999,6.6999,6.6999,6.6999,6.6999,6.6999,6.6999,6.6999,6.6999,6.661,6.5817,6.5263,6.462,6.3857,6.3377,6.3108,6.3108,6.3108,6.3108,6.3108,6.3108,6.3108,6.3108,6.3108,6.3108,6.3108,6.3108,6.3108,6.3108,6.3108,6.3108,6.3108,6.3108,6.3108,6.3108,6.3108,6.3108,6.3108,6.3108,6.3108,6.3108,6.3108,6.3108,6.3108,6.3018,6.2794,6.2135,6.1463,6.0775,5.8639,5.711,5.4497,5.2918,5.2238,5.2223,5.2161,5.1908,5.169,5.1596,5.1596,5.1701,5.1753,5.1648,5.1779,5.2171,5.2302,5.2825,5.3452,5.3818,5.4236,5.4654,5.4759,5.4524,5.4053,5.3347,5.2511,5.1884,5.1596,5.1596,5.1596,5.1596,5.1596,5.1596,5.1596,5.1596,5.1596,5.1596,5.1596,5.1596,5.1596,5.1596,5.1596,5.1596,5.1596,5.1596,5.1596,5.1596,5.1596,5.1596,5.1596,5.1596,5.1596,5.1596,5.1596,5.1596,5.1596,5.1596,5.1596,5.1596,5.1596,5.1596,5.1596,6.6999,6.6999,6.6999,6.6999,6.6999,6.6999,6.6999,6.6999,6.6999,6.6999,6.6999,6.6939,6.664,6.6026,6.5323,6.465,6.4036,6.3452,6.3168,6.3108,6.3108,6.3108,6.3108,6.3108,6.3108,6.3108,6.3108,6.3108,6.3108,6.3108,6.3108,6.3108,6.3108,6.3108,6.3108,6.3108,6.3108,6.3108,6.3108,6.3108,6.3108,6.3108,6.3108,6.3108,6.3108,6.3108,6.3108,6.3078,6.2704,6.2135,6.1463,5.9552,5.6666,5.5831,5.4634,5.3253,5.2079,5.2083,5.2238,5.2032,5.1659,5.1596,5.1675,5.191,5.1962,5.1727,5.1831,5.2276,5.2746,5.3347,5.3896,5.4184,5.4518,5.4884,5.5189,5.477,5.4361,5.3448,5.2532,5.2067,5.1727,5.1596,5.1596,5.1596,5.1596,5.1596,5.1596,5.1596,5.1596,5.1596,5.1596,5.1596,5.1596,5.1596,5.1596,5.1596,5.1596,5.1596,5.1596,5.1596,5.1596,5.1596,5.1596,5.1596,5.1596,5.1596,5.1596,5.1596,5.1596,5.1596,5.1596,5.1596,5.1596,5.1596,5.1596,6.6999,6.6999,6.6999,6.6999,6.6999,6.6999,6.6999,6.6999,6.6999,6.6999,6.6999,6.6969,6.6789,6.6251,6.5458,6.4874,6.4261,6.3482,6.3197,6.3108,6.3108,6.3108,6.3108,6.3108,6.3108,6.3108,6.3108,6.3108,6.3108,6.3108,6.3108,6.3108,6.3108,6.3108,6.3108,6.3108,6.3108,6.3108,6.3108,6.3108,6.3108,6.3108,6.3108,6.3108,6.3108,6.3108,6.3108,6.3108,6.2898,6.2315,6.1642,5.9359,5.6951,5.5682,5.4452,5.2994,5.2037,5.1923,5.2238,5.2141,5.1648,5.1675,5.1622,5.1831,5.191,5.1831,5.2589,5.3034,5.3008,5.353,5.4314,5.4733,5.5392,5.5884,5.6074,5.5932,5.5042,5.4015,5.3112,5.2302,5.1936,5.1596,5.1596,5.1596,5.1596,5.1596,5.1596,5.1596,5.1596,5.1596,5.1596,5.1596,5.1596,5.1596,5.1596,5.1596,5.1596,5.1596,5.1596,5.1596,5.1596,5.1596,5.1596,5.1596,5.1596,5.1596,5.1596,5.1596,5.1596,5.1596,5.1596,5.1596,5.1596,5.1596,5.1596,6.6999,6.6999,6.6999,6.6999,6.6999,6.6999,6.6999,6.6999,6.6999,6.6999,6.6999,6.6999,6.6999,6.6535,6.5652,6.5233,6.459,6.3602,6.3227,6.3108,6.3108,6.3108,6.3108,6.3108,6.3108,6.3108,6.3108,6.3108,6.3108,6.3108,6.3108,6.3108,6.3108,6.3108,6.3108,6.3108,6.3108,6.3108,6.3108,6.3108,6.3108,6.3108,6.3108,6.3108,6.3108,6.3108,6.3108,6.3108,6.3108,6.2555,6.1679,5.9275,5.7208,5.5634,5.3866,5.252,5.1799,5.1753,5.1868,5.1831,5.1779,5.1831,5.1716,5.1805,5.2009,5.2623,5.3411,5.3842,5.3842,5.3844,5.4628,5.5196,5.5898,5.6428,5.6558,5.6569,5.5489,5.4453,5.3561,5.2617,5.2124,5.1748,5.1596,5.1596,5.1596,5.1596,5.1596,5.1596,5.1596,5.1596,5.1596,5.1596,5.1596,5.1596,5.1596,5.1596,5.1596,5.1596,5.1596,5.1596,5.1596,5.1596,5.1596,5.1596,5.1596,5.1596,5.1596,5.1596,5.1596,5.1596,5.1596,5.1596,5.1596,5.1596,5.1596,6.6999,6.6999,6.6999,6.6999,6.6999,6.6999,6.6999,6.6999,6.6999,6.6999,6.6999,6.6999,6.6999,6.6924,6.5607,6.4994,6.48,6.3692,6.3227,6.3108,6.3108,6.3108,6.3108,6.3108,6.3108,6.3108,6.3108,6.3108,6.3108,6.3108,6.3108,6.3108,6.3108,6.3108,6.3108,6.3108,6.3108,6.3108,6.3108,6.3108,6.3108,6.3108,6.3108,6.3108,6.3108,6.3108,6.3108,6.3108,6.3108,6.2704,6.1756,5.9493,5.7452,5.5771,5.4138,5.2587,5.1836,5.226,5.2386,5.2228,5.2354,5.2918,5.2892,5.2843,5.3248,5.3905,5.4702,5.5483,5.5321,5.4515,5.4889,5.502,5.5528,5.5891,5.609,5.584,5.5197,5.4478,5.3762,5.2944,5.2266,5.1915,5.1596,5.1596,5.1596,5.1596,5.1596,5.1596,5.1596,5.1596,5.1596,5.1596,5.1596,5.1596,5.1596,5.1596,5.1596,5.1596,5.1596,5.1596,5.1596,5.1596,5.1596,5.1596,5.1596,5.1596,5.1596,5.1596,5.1596,5.1596,5.1596,5.1596,5.1596,5.1596,5.1596]}]]